<?xml version="1.0" encoding="UTF-8" standalone="no" ?>
<gpx xmlns="http://www.topografix.com/GPX/1/1" xmlns:xsi="http://www.w3.org/2001/XMLSchema-instance" xsi:schemaLocation="http://www.topografix.com/GPX/1/1 http://www.topografix.com/GPX/1/1/gpx.xsd" version="1.1" creator="VisuGPX - https://www.visugpx.com">
  <metadata>
    <name>Givors-Croix Regis-Givors</name>
  </metadata>
  <trk>
    <name><![CDATA[Givors-Croix Regis-Givors_1]]></name>
    <extensions>
      <line xmlns="http://www.topografix.com/GPX/gpx_style/0/2">
        <color>0000FF</color>
        <width>4</width>
      </line>
    </extensions>
    <trkseg>
      <trkpt lat="45.58519" lon="4.76694">
        <ele>161.6</ele>
        <time>2023-07-08T12:18:26Z</time>
      </trkpt>
      <trkpt lat="45.58519" lon="4.76694">
        <ele>161.6</ele>
        <time>2023-07-08T12:18:27Z</time>
      </trkpt>
      <trkpt lat="45.58519" lon="4.76695">
        <ele>161.4</ele>
        <time>2023-07-08T12:18:53Z</time>
      </trkpt>
      <trkpt lat="45.58519" lon="4.76694">
        <ele>161.6</ele>
        <time>2023-07-08T12:19:13Z</time>
      </trkpt>
      <trkpt lat="45.58516" lon="4.76695">
        <ele>161.8</ele>
        <time>2023-07-08T12:19:24Z</time>
      </trkpt>
      <trkpt lat="45.58515" lon="4.76694">
        <ele>161.8</ele>
        <time>2023-07-08T12:19:25Z</time>
      </trkpt>
      <trkpt lat="45.58513" lon="4.76693">
        <ele>161.8</ele>
        <time>2023-07-08T12:19:26Z</time>
      </trkpt>
      <trkpt lat="45.58512" lon="4.76691">
        <ele>161.8</ele>
        <time>2023-07-08T12:19:27Z</time>
      </trkpt>
      <trkpt lat="45.58511" lon="4.76689">
        <ele>161.8</ele>
        <time>2023-07-08T12:19:28Z</time>
      </trkpt>
      <trkpt lat="45.58511" lon="4.76686">
        <ele>161.8</ele>
        <time>2023-07-08T12:19:29Z</time>
      </trkpt>
      <trkpt lat="45.5851" lon="4.76684">
        <ele>161.8</ele>
        <time>2023-07-08T12:19:30Z</time>
      </trkpt>
      <trkpt lat="45.5851" lon="4.76682">
        <ele>161.8</ele>
        <time>2023-07-08T12:19:31Z</time>
      </trkpt>
      <trkpt lat="45.58499" lon="4.7666">
        <ele>162</ele>
        <time>2023-07-08T12:19:43Z</time>
      </trkpt>
      <trkpt lat="45.58498" lon="4.7666">
        <ele>162</ele>
        <time>2023-07-08T12:19:44Z</time>
      </trkpt>
      <trkpt lat="45.58496" lon="4.76659">
        <ele>162</ele>
        <time>2023-07-08T12:19:45Z</time>
      </trkpt>
      <trkpt lat="45.58494" lon="4.7666">
        <ele>162</ele>
        <time>2023-07-08T12:19:46Z</time>
      </trkpt>
      <trkpt lat="45.58492" lon="4.76661">
        <ele>162</ele>
        <time>2023-07-08T12:19:47Z</time>
      </trkpt>
      <trkpt lat="45.58491" lon="4.76663">
        <ele>162.2</ele>
        <time>2023-07-08T12:19:48Z</time>
      </trkpt>
      <trkpt lat="45.58489" lon="4.76665">
        <ele>162.2</ele>
        <time>2023-07-08T12:19:49Z</time>
      </trkpt>
      <trkpt lat="45.58478" lon="4.7667">
        <ele>162.2</ele>
        <time>2023-07-08T12:19:54Z</time>
      </trkpt>
      <trkpt lat="45.58477" lon="4.76669">
        <ele>162.2</ele>
        <time>2023-07-08T12:19:55Z</time>
      </trkpt>
      <trkpt lat="45.58475" lon="4.76666">
        <ele>162.2</ele>
        <time>2023-07-08T12:19:56Z</time>
      </trkpt>
      <trkpt lat="45.58474" lon="4.76663">
        <ele>162.2</ele>
        <time>2023-07-08T12:19:57Z</time>
      </trkpt>
      <trkpt lat="45.58472" lon="4.76659">
        <ele>162.2</ele>
        <time>2023-07-08T12:19:58Z</time>
      </trkpt>
      <trkpt lat="45.58471" lon="4.76656">
        <ele>162.4</ele>
        <time>2023-07-08T12:19:59Z</time>
      </trkpt>
      <trkpt lat="45.5847" lon="4.76652">
        <ele>162.4</ele>
        <time>2023-07-08T12:20:00Z</time>
      </trkpt>
      <trkpt lat="45.58451" lon="4.76636">
        <ele>163.4</ele>
        <time>2023-07-08T12:20:10Z</time>
      </trkpt>
      <trkpt lat="45.58428" lon="4.76669">
        <ele>164</ele>
        <time>2023-07-08T12:20:22Z</time>
      </trkpt>
      <trkpt lat="45.58406" lon="4.76709">
        <ele>166.6</ele>
        <time>2023-07-08T12:20:37Z</time>
      </trkpt>
      <trkpt lat="45.58383" lon="4.7675">
        <ele>169.2</ele>
        <time>2023-07-08T12:20:52Z</time>
      </trkpt>
      <trkpt lat="45.58356" lon="4.7679">
        <ele>172</ele>
        <time>2023-07-08T12:21:09Z</time>
      </trkpt>
      <trkpt lat="45.58322" lon="4.76814">
        <ele>174</ele>
        <time>2023-07-08T12:21:24Z</time>
      </trkpt>
      <trkpt lat="45.58285" lon="4.7684">
        <ele>176.2</ele>
        <time>2023-07-08T12:21:39Z</time>
      </trkpt>
      <trkpt lat="45.58263" lon="4.76847">
        <ele>178.2</ele>
        <time>2023-07-08T12:21:49Z</time>
      </trkpt>
      <trkpt lat="45.58261" lon="4.76849">
        <ele>178.4</ele>
        <time>2023-07-08T12:21:50Z</time>
      </trkpt>
      <trkpt lat="45.58257" lon="4.76852">
        <ele>178.6</ele>
        <time>2023-07-08T12:21:52Z</time>
      </trkpt>
      <trkpt lat="45.58255" lon="4.76855">
        <ele>178.8</ele>
        <time>2023-07-08T12:21:53Z</time>
      </trkpt>
      <trkpt lat="45.58254" lon="4.76857">
        <ele>179</ele>
        <time>2023-07-08T12:21:54Z</time>
      </trkpt>
      <trkpt lat="45.58252" lon="4.7686">
        <ele>179.2</ele>
        <time>2023-07-08T12:21:55Z</time>
      </trkpt>
      <trkpt lat="45.58251" lon="4.76863">
        <ele>179.6</ele>
        <time>2023-07-08T12:21:56Z</time>
      </trkpt>
      <trkpt lat="45.5825" lon="4.76865">
        <ele>180</ele>
        <time>2023-07-08T12:21:57Z</time>
      </trkpt>
      <trkpt lat="45.58239" lon="4.76902">
        <ele>181.6</ele>
        <time>2023-07-08T12:22:09Z</time>
      </trkpt>
      <trkpt lat="45.5821" lon="4.76931">
        <ele>183.4</ele>
        <time>2023-07-08T12:22:24Z</time>
      </trkpt>
      <trkpt lat="45.58181" lon="4.76949">
        <ele>185.2</ele>
        <time>2023-07-08T12:22:37Z</time>
      </trkpt>
      <trkpt lat="45.58152" lon="4.76949">
        <ele>186.6</ele>
        <time>2023-07-08T12:22:49Z</time>
      </trkpt>
      <trkpt lat="45.5813" lon="4.7692">
        <ele>188.8</ele>
        <time>2023-07-08T12:23:01Z</time>
      </trkpt>
      <trkpt lat="45.58129" lon="4.76918">
        <ele>189</ele>
        <time>2023-07-08T12:23:02Z</time>
      </trkpt>
      <trkpt lat="45.58128" lon="4.76915">
        <ele>189</ele>
        <time>2023-07-08T12:23:03Z</time>
      </trkpt>
      <trkpt lat="45.58127" lon="4.76912">
        <ele>189.2</ele>
        <time>2023-07-08T12:23:04Z</time>
      </trkpt>
      <trkpt lat="45.58125" lon="4.76909">
        <ele>189.4</ele>
        <time>2023-07-08T12:23:05Z</time>
      </trkpt>
      <trkpt lat="45.58124" lon="4.76907">
        <ele>189.6</ele>
        <time>2023-07-08T12:23:06Z</time>
      </trkpt>
      <trkpt lat="45.58122" lon="4.76905">
        <ele>189.8</ele>
        <time>2023-07-08T12:23:07Z</time>
      </trkpt>
      <trkpt lat="45.5812" lon="4.76903">
        <ele>190</ele>
        <time>2023-07-08T12:23:08Z</time>
      </trkpt>
      <trkpt lat="45.58118" lon="4.76901">
        <ele>190</ele>
        <time>2023-07-08T12:23:09Z</time>
      </trkpt>
      <trkpt lat="45.58116" lon="4.769">
        <ele>190.2</ele>
        <time>2023-07-08T12:23:10Z</time>
      </trkpt>
      <trkpt lat="45.58114" lon="4.76899">
        <ele>190.4</ele>
        <time>2023-07-08T12:23:11Z</time>
      </trkpt>
      <trkpt lat="45.58113" lon="4.76899">
        <ele>190.6</ele>
        <time>2023-07-08T12:23:12Z</time>
      </trkpt>
      <trkpt lat="45.58111" lon="4.769">
        <ele>191</ele>
        <time>2023-07-08T12:23:13Z</time>
      </trkpt>
      <trkpt lat="45.58109" lon="4.76902">
        <ele>191.2</ele>
        <time>2023-07-08T12:23:14Z</time>
      </trkpt>
      <trkpt lat="45.58107" lon="4.76905">
        <ele>191.4</ele>
        <time>2023-07-08T12:23:15Z</time>
      </trkpt>
      <trkpt lat="45.58105" lon="4.7691">
        <ele>191.6</ele>
        <time>2023-07-08T12:23:16Z</time>
      </trkpt>
      <trkpt lat="45.58105" lon="4.76915">
        <ele>191.8</ele>
        <time>2023-07-08T12:23:17Z</time>
      </trkpt>
      <trkpt lat="45.58106" lon="4.76919">
        <ele>191.8</ele>
        <time>2023-07-08T12:23:18Z</time>
      </trkpt>
      <trkpt lat="45.58108" lon="4.76923">
        <ele>192</ele>
        <time>2023-07-08T12:23:19Z</time>
      </trkpt>
      <trkpt lat="45.58109" lon="4.76927">
        <ele>192.2</ele>
        <time>2023-07-08T12:23:20Z</time>
      </trkpt>
      <trkpt lat="45.58111" lon="4.7693">
        <ele>192.2</ele>
        <time>2023-07-08T12:23:21Z</time>
      </trkpt>
      <trkpt lat="45.58112" lon="4.76934">
        <ele>192.2</ele>
        <time>2023-07-08T12:23:22Z</time>
      </trkpt>
      <trkpt lat="45.58114" lon="4.76937">
        <ele>192.2</ele>
        <time>2023-07-08T12:23:23Z</time>
      </trkpt>
      <trkpt lat="45.58133" lon="4.76976">
        <ele>193.4</ele>
        <time>2023-07-08T12:23:37Z</time>
      </trkpt>
      <trkpt lat="45.58122" lon="4.77019">
        <ele>196</ele>
        <time>2023-07-08T12:23:50Z</time>
      </trkpt>
      <trkpt lat="45.58121" lon="4.77023">
        <ele>196</ele>
        <time>2023-07-08T12:23:51Z</time>
      </trkpt>
      <trkpt lat="45.5812" lon="4.77026">
        <ele>196.2</ele>
        <time>2023-07-08T12:23:52Z</time>
      </trkpt>
      <trkpt lat="45.5812" lon="4.77029">
        <ele>196.2</ele>
        <time>2023-07-08T12:23:53Z</time>
      </trkpt>
      <trkpt lat="45.58119" lon="4.77032">
        <ele>196.4</ele>
        <time>2023-07-08T12:23:54Z</time>
      </trkpt>
      <trkpt lat="45.58118" lon="4.77035">
        <ele>196.6</ele>
        <time>2023-07-08T12:23:55Z</time>
      </trkpt>
      <trkpt lat="45.58115" lon="4.77045">
        <ele>197.6</ele>
        <time>2023-07-08T12:23:58Z</time>
      </trkpt>
      <trkpt lat="45.58114" lon="4.77048">
        <ele>197.8</ele>
        <time>2023-07-08T12:23:59Z</time>
      </trkpt>
      <trkpt lat="45.58114" lon="4.77051">
        <ele>198</ele>
        <time>2023-07-08T12:24:00Z</time>
      </trkpt>
      <trkpt lat="45.58113" lon="4.77055">
        <ele>198.2</ele>
        <time>2023-07-08T12:24:01Z</time>
      </trkpt>
      <trkpt lat="45.58112" lon="4.77058">
        <ele>198.4</ele>
        <time>2023-07-08T12:24:02Z</time>
      </trkpt>
      <trkpt lat="45.58111" lon="4.77061">
        <ele>198.4</ele>
        <time>2023-07-08T12:24:03Z</time>
      </trkpt>
      <trkpt lat="45.58111" lon="4.77064">
        <ele>198.6</ele>
        <time>2023-07-08T12:24:04Z</time>
      </trkpt>
      <trkpt lat="45.58089" lon="4.77115">
        <ele>201</ele>
        <time>2023-07-08T12:24:21Z</time>
      </trkpt>
      <trkpt lat="45.58069" lon="4.77147">
        <ele>203.2</ele>
        <time>2023-07-08T12:24:33Z</time>
      </trkpt>
      <trkpt lat="45.58076" lon="4.77191">
        <ele>205</ele>
        <time>2023-07-08T12:24:45Z</time>
      </trkpt>
      <trkpt lat="45.58054" lon="4.77224">
        <ele>207.2</ele>
        <time>2023-07-08T12:24:58Z</time>
      </trkpt>
      <trkpt lat="45.58023" lon="4.77246">
        <ele>209.8</ele>
        <time>2023-07-08T12:25:12Z</time>
      </trkpt>
      <trkpt lat="45.58007" lon="4.77262">
        <ele>211.2</ele>
        <time>2023-07-08T12:25:20Z</time>
      </trkpt>
      <trkpt lat="45.58004" lon="4.77262">
        <ele>211.4</ele>
        <time>2023-07-08T12:25:21Z</time>
      </trkpt>
      <trkpt lat="45.5799" lon="4.77268">
        <ele>212</ele>
        <time>2023-07-08T12:25:26Z</time>
      </trkpt>
      <trkpt lat="45.57988" lon="4.77267">
        <ele>212.4</ele>
        <time>2023-07-08T12:25:27Z</time>
      </trkpt>
      <trkpt lat="45.57986" lon="4.77268">
        <ele>212.6</ele>
        <time>2023-07-08T12:25:28Z</time>
      </trkpt>
      <trkpt lat="45.57983" lon="4.77269">
        <ele>212.8</ele>
        <time>2023-07-08T12:25:29Z</time>
      </trkpt>
      <trkpt lat="45.57981" lon="4.7727">
        <ele>212.8</ele>
        <time>2023-07-08T12:25:30Z</time>
      </trkpt>
      <trkpt lat="45.57979" lon="4.77271">
        <ele>213</ele>
        <time>2023-07-08T12:25:31Z</time>
      </trkpt>
      <trkpt lat="45.57976" lon="4.77271">
        <ele>213.2</ele>
        <time>2023-07-08T12:25:32Z</time>
      </trkpt>
      <trkpt lat="45.57974" lon="4.77273">
        <ele>213.2</ele>
        <time>2023-07-08T12:25:33Z</time>
      </trkpt>
      <trkpt lat="45.57972" lon="4.77274">
        <ele>213.4</ele>
        <time>2023-07-08T12:25:34Z</time>
      </trkpt>
      <trkpt lat="45.5797" lon="4.77276">
        <ele>213.4</ele>
        <time>2023-07-08T12:25:35Z</time>
      </trkpt>
      <trkpt lat="45.57968" lon="4.77277">
        <ele>213.6</ele>
        <time>2023-07-08T12:25:36Z</time>
      </trkpt>
      <trkpt lat="45.57966" lon="4.77278">
        <ele>213.8</ele>
        <time>2023-07-08T12:25:37Z</time>
      </trkpt>
      <trkpt lat="45.57964" lon="4.7728">
        <ele>213.8</ele>
        <time>2023-07-08T12:25:38Z</time>
      </trkpt>
      <trkpt lat="45.57961" lon="4.77282">
        <ele>214.2</ele>
        <time>2023-07-08T12:25:40Z</time>
      </trkpt>
      <trkpt lat="45.57958" lon="4.77286">
        <ele>214.6</ele>
        <time>2023-07-08T12:25:42Z</time>
      </trkpt>
      <trkpt lat="45.57957" lon="4.77287">
        <ele>214.8</ele>
        <time>2023-07-08T12:25:43Z</time>
      </trkpt>
      <trkpt lat="45.57955" lon="4.77289">
        <ele>214.8</ele>
        <time>2023-07-08T12:25:44Z</time>
      </trkpt>
      <trkpt lat="45.57954" lon="4.77291">
        <ele>215</ele>
        <time>2023-07-08T12:25:45Z</time>
      </trkpt>
      <trkpt lat="45.57952" lon="4.77293">
        <ele>215.2</ele>
        <time>2023-07-08T12:25:46Z</time>
      </trkpt>
      <trkpt lat="45.5795" lon="4.77295">
        <ele>215.4</ele>
        <time>2023-07-08T12:25:47Z</time>
      </trkpt>
      <trkpt lat="45.57948" lon="4.77298">
        <ele>215.6</ele>
        <time>2023-07-08T12:25:48Z</time>
      </trkpt>
      <trkpt lat="45.57946" lon="4.773">
        <ele>215.6</ele>
        <time>2023-07-08T12:25:49Z</time>
      </trkpt>
      <trkpt lat="45.57943" lon="4.77303">
        <ele>215.6</ele>
        <time>2023-07-08T12:25:50Z</time>
      </trkpt>
      <trkpt lat="45.57941" lon="4.77305">
        <ele>215.8</ele>
        <time>2023-07-08T12:25:51Z</time>
      </trkpt>
      <trkpt lat="45.57939" lon="4.77308">
        <ele>216</ele>
        <time>2023-07-08T12:25:52Z</time>
      </trkpt>
      <trkpt lat="45.57919" lon="4.77336">
        <ele>218.2</ele>
        <time>2023-07-08T12:26:03Z</time>
      </trkpt>
      <trkpt lat="45.57905" lon="4.77374">
        <ele>220</ele>
        <time>2023-07-08T12:26:17Z</time>
      </trkpt>
      <trkpt lat="45.57873" lon="4.77401">
        <ele>221.8</ele>
        <time>2023-07-08T12:26:30Z</time>
      </trkpt>
      <trkpt lat="45.5784" lon="4.77416">
        <ele>224.4</ele>
        <time>2023-07-08T12:26:43Z</time>
      </trkpt>
      <trkpt lat="45.57811" lon="4.77391">
        <ele>225.6</ele>
        <time>2023-07-08T12:26:56Z</time>
      </trkpt>
      <trkpt lat="45.57788" lon="4.77372">
        <ele>228.6</ele>
        <time>2023-07-08T12:27:06Z</time>
      </trkpt>
      <trkpt lat="45.5776" lon="4.7736">
        <ele>229.6</ele>
        <time>2023-07-08T12:27:17Z</time>
      </trkpt>
      <trkpt lat="45.57732" lon="4.77337">
        <ele>231.2</ele>
        <time>2023-07-08T12:27:30Z</time>
      </trkpt>
      <trkpt lat="45.57693" lon="4.77319">
        <ele>232.6</ele>
        <time>2023-07-08T12:27:45Z</time>
      </trkpt>
      <trkpt lat="45.57646" lon="4.77319">
        <ele>235.2</ele>
        <time>2023-07-08T12:28:03Z</time>
      </trkpt>
      <trkpt lat="45.57624" lon="4.77349">
        <ele>237.2</ele>
        <time>2023-07-08T12:28:15Z</time>
      </trkpt>
      <trkpt lat="45.57645" lon="4.77376">
        <ele>238.8</ele>
        <time>2023-07-08T12:28:26Z</time>
      </trkpt>
      <trkpt lat="45.57675" lon="4.77398">
        <ele>240.4</ele>
        <time>2023-07-08T12:28:39Z</time>
      </trkpt>
      <trkpt lat="45.57713" lon="4.77424">
        <ele>242.2</ele>
        <time>2023-07-08T12:28:53Z</time>
      </trkpt>
      <trkpt lat="45.57746" lon="4.77467">
        <ele>244</ele>
        <time>2023-07-08T12:29:09Z</time>
      </trkpt>
      <trkpt lat="45.5772" lon="4.77498">
        <ele>244.6</ele>
        <time>2023-07-08T12:29:21Z</time>
      </trkpt>
      <trkpt lat="45.57679" lon="4.7753">
        <ele>246.2</ele>
        <time>2023-07-08T12:29:37Z</time>
      </trkpt>
      <trkpt lat="45.57654" lon="4.77585">
        <ele>248</ele>
        <time>2023-07-08T12:29:53Z</time>
      </trkpt>
      <trkpt lat="45.57643" lon="4.77642">
        <ele>250.2</ele>
        <time>2023-07-08T12:30:07Z</time>
      </trkpt>
      <trkpt lat="45.57633" lon="4.77705">
        <ele>251.8</ele>
        <time>2023-07-08T12:30:22Z</time>
      </trkpt>
      <trkpt lat="45.57616" lon="4.77768">
        <ele>254.4</ele>
        <time>2023-07-08T12:30:37Z</time>
      </trkpt>
      <trkpt lat="45.57604" lon="4.77814">
        <ele>254.8</ele>
        <time>2023-07-08T12:30:48Z</time>
      </trkpt>
      <trkpt lat="45.57585" lon="4.7791">
        <ele>254.6</ele>
        <time>2023-07-08T12:31:03Z</time>
      </trkpt>
      <trkpt lat="45.57563" lon="4.78004">
        <ele>252.2</ele>
        <time>2023-07-08T12:31:18Z</time>
      </trkpt>
      <trkpt lat="45.57534" lon="4.78052">
        <ele>255.2</ele>
        <time>2023-07-08T12:31:33Z</time>
      </trkpt>
      <trkpt lat="45.575" lon="4.781">
        <ele>258.4</ele>
        <time>2023-07-08T12:31:50Z</time>
      </trkpt>
      <trkpt lat="45.57466" lon="4.78138">
        <ele>261.4</ele>
        <time>2023-07-08T12:32:06Z</time>
      </trkpt>
      <trkpt lat="45.57421" lon="4.78171">
        <ele>264.4</ele>
        <time>2023-07-08T12:32:25Z</time>
      </trkpt>
      <trkpt lat="45.5739" lon="4.78193">
        <ele>265.6</ele>
        <time>2023-07-08T12:32:39Z</time>
      </trkpt>
      <trkpt lat="45.57361" lon="4.78217">
        <ele>268.2</ele>
        <time>2023-07-08T12:32:53Z</time>
      </trkpt>
      <trkpt lat="45.57328" lon="4.78245">
        <ele>270.4</ele>
        <time>2023-07-08T12:33:09Z</time>
      </trkpt>
      <trkpt lat="45.57299" lon="4.78272">
        <ele>273.2</ele>
        <time>2023-07-08T12:33:24Z</time>
      </trkpt>
      <trkpt lat="45.57297" lon="4.78272">
        <ele>273.4</ele>
        <time>2023-07-08T12:33:25Z</time>
      </trkpt>
      <trkpt lat="45.57295" lon="4.78273">
        <ele>273.6</ele>
        <time>2023-07-08T12:33:26Z</time>
      </trkpt>
      <trkpt lat="45.57293" lon="4.78275">
        <ele>273.8</ele>
        <time>2023-07-08T12:33:27Z</time>
      </trkpt>
      <trkpt lat="45.57291" lon="4.78276">
        <ele>274.2</ele>
        <time>2023-07-08T12:33:28Z</time>
      </trkpt>
      <trkpt lat="45.57289" lon="4.78277">
        <ele>274.4</ele>
        <time>2023-07-08T12:33:29Z</time>
      </trkpt>
      <trkpt lat="45.57287" lon="4.78279">
        <ele>274.6</ele>
        <time>2023-07-08T12:33:30Z</time>
      </trkpt>
      <trkpt lat="45.57258" lon="4.78298">
        <ele>276.4</ele>
        <time>2023-07-08T12:33:44Z</time>
      </trkpt>
      <trkpt lat="45.57227" lon="4.78313">
        <ele>278.4</ele>
        <time>2023-07-08T12:33:58Z</time>
      </trkpt>
      <trkpt lat="45.57205" lon="4.78321">
        <ele>280.2</ele>
        <time>2023-07-08T12:34:09Z</time>
      </trkpt>
      <trkpt lat="45.57171" lon="4.78333">
        <ele>282</ele>
        <time>2023-07-08T12:34:24Z</time>
      </trkpt>
      <trkpt lat="45.57129" lon="4.78345">
        <ele>285.2</ele>
        <time>2023-07-08T12:34:42Z</time>
      </trkpt>
      <trkpt lat="45.57093" lon="4.78343">
        <ele>287.6</ele>
        <time>2023-07-08T12:34:58Z</time>
      </trkpt>
      <trkpt lat="45.57062" lon="4.78348">
        <ele>289.2</ele>
        <time>2023-07-08T12:35:11Z</time>
      </trkpt>
      <trkpt lat="45.57041" lon="4.78365">
        <ele>290.2</ele>
        <time>2023-07-08T12:35:21Z</time>
      </trkpt>
      <trkpt lat="45.57006" lon="4.78376">
        <ele>293.4</ele>
        <time>2023-07-08T12:35:36Z</time>
      </trkpt>
      <trkpt lat="45.56967" lon="4.78374">
        <ele>296</ele>
        <time>2023-07-08T12:35:53Z</time>
      </trkpt>
      <trkpt lat="45.56922" lon="4.78371">
        <ele>298.6</ele>
        <time>2023-07-08T12:36:13Z</time>
      </trkpt>
      <trkpt lat="45.56905" lon="4.78367">
        <ele>299.2</ele>
        <time>2023-07-08T12:36:21Z</time>
      </trkpt>
      <trkpt lat="45.56902" lon="4.78366">
        <ele>299.4</ele>
        <time>2023-07-08T12:36:22Z</time>
      </trkpt>
      <trkpt lat="45.569" lon="4.78365">
        <ele>299.4</ele>
        <time>2023-07-08T12:36:23Z</time>
      </trkpt>
      <trkpt lat="45.56898" lon="4.78364">
        <ele>299.6</ele>
        <time>2023-07-08T12:36:24Z</time>
      </trkpt>
      <trkpt lat="45.56896" lon="4.78363">
        <ele>299.8</ele>
        <time>2023-07-08T12:36:25Z</time>
      </trkpt>
      <trkpt lat="45.56894" lon="4.78362">
        <ele>300</ele>
        <time>2023-07-08T12:36:26Z</time>
      </trkpt>
      <trkpt lat="45.56867" lon="4.78333">
        <ele>302.6</ele>
        <time>2023-07-08T12:36:40Z</time>
      </trkpt>
      <trkpt lat="45.56856" lon="4.78288">
        <ele>305</ele>
        <time>2023-07-08T12:36:53Z</time>
      </trkpt>
      <trkpt lat="45.56864" lon="4.78227">
        <ele>306.8</ele>
        <time>2023-07-08T12:37:09Z</time>
      </trkpt>
      <trkpt lat="45.56876" lon="4.78185">
        <ele>308.2</ele>
        <time>2023-07-08T12:37:21Z</time>
      </trkpt>
      <trkpt lat="45.56878" lon="4.78179">
        <ele>308.6</ele>
        <time>2023-07-08T12:37:23Z</time>
      </trkpt>
      <trkpt lat="45.5688" lon="4.78176">
        <ele>308.6</ele>
        <time>2023-07-08T12:37:24Z</time>
      </trkpt>
      <trkpt lat="45.56896" lon="4.78125">
        <ele>310.2</ele>
        <time>2023-07-08T12:37:39Z</time>
      </trkpt>
      <trkpt lat="45.56912" lon="4.78075">
        <ele>311.2</ele>
        <time>2023-07-08T12:37:53Z</time>
      </trkpt>
      <trkpt lat="45.56922" lon="4.78034">
        <ele>312</ele>
        <time>2023-07-08T12:38:05Z</time>
      </trkpt>
      <trkpt lat="45.56918" lon="4.77984">
        <ele>312.6</ele>
        <time>2023-07-08T12:38:17Z</time>
      </trkpt>
      <trkpt lat="45.569" lon="4.77942">
        <ele>313.2</ele>
        <time>2023-07-08T12:38:29Z</time>
      </trkpt>
      <trkpt lat="45.56875" lon="4.77901">
        <ele>314.8</ele>
        <time>2023-07-08T12:38:43Z</time>
      </trkpt>
      <trkpt lat="45.5685" lon="4.77865">
        <ele>316.8</ele>
        <time>2023-07-08T12:38:56Z</time>
      </trkpt>
      <trkpt lat="45.56845" lon="4.7786">
        <ele>317.2</ele>
        <time>2023-07-08T12:38:58Z</time>
      </trkpt>
      <trkpt lat="45.56843" lon="4.77858">
        <ele>317.4</ele>
        <time>2023-07-08T12:38:59Z</time>
      </trkpt>
      <trkpt lat="45.56841" lon="4.77856">
        <ele>317.6</ele>
        <time>2023-07-08T12:39:00Z</time>
      </trkpt>
      <trkpt lat="45.56839" lon="4.77854">
        <ele>317.6</ele>
        <time>2023-07-08T12:39:01Z</time>
      </trkpt>
      <trkpt lat="45.56836" lon="4.77852">
        <ele>317.6</ele>
        <time>2023-07-08T12:39:02Z</time>
      </trkpt>
      <trkpt lat="45.56834" lon="4.7785">
        <ele>317.8</ele>
        <time>2023-07-08T12:39:03Z</time>
      </trkpt>
      <trkpt lat="45.56832" lon="4.77848">
        <ele>317.8</ele>
        <time>2023-07-08T12:39:04Z</time>
      </trkpt>
      <trkpt lat="45.56829" lon="4.77846">
        <ele>317.8</ele>
        <time>2023-07-08T12:39:05Z</time>
      </trkpt>
      <trkpt lat="45.56824" lon="4.77842">
        <ele>318</ele>
        <time>2023-07-08T12:39:07Z</time>
      </trkpt>
      <trkpt lat="45.56822" lon="4.77841">
        <ele>318.2</ele>
        <time>2023-07-08T12:39:08Z</time>
      </trkpt>
      <trkpt lat="45.56819" lon="4.77839">
        <ele>318.4</ele>
        <time>2023-07-08T12:39:09Z</time>
      </trkpt>
      <trkpt lat="45.56817" lon="4.77837">
        <ele>318.6</ele>
        <time>2023-07-08T12:39:10Z</time>
      </trkpt>
      <trkpt lat="45.56815" lon="4.77836">
        <ele>318.8</ele>
        <time>2023-07-08T12:39:11Z</time>
      </trkpt>
      <trkpt lat="45.56813" lon="4.77835">
        <ele>318.8</ele>
        <time>2023-07-08T12:39:12Z</time>
      </trkpt>
      <trkpt lat="45.56811" lon="4.77832">
        <ele>319</ele>
        <time>2023-07-08T12:39:13Z</time>
      </trkpt>
      <trkpt lat="45.56808" lon="4.77831">
        <ele>319</ele>
        <time>2023-07-08T12:39:14Z</time>
      </trkpt>
      <trkpt lat="45.56806" lon="4.77829">
        <ele>319</ele>
        <time>2023-07-08T12:39:15Z</time>
      </trkpt>
      <trkpt lat="45.56804" lon="4.77827">
        <ele>319.2</ele>
        <time>2023-07-08T12:39:16Z</time>
      </trkpt>
      <trkpt lat="45.56802" lon="4.77825">
        <ele>319.4</ele>
        <time>2023-07-08T12:39:17Z</time>
      </trkpt>
      <trkpt lat="45.56799" lon="4.77824">
        <ele>319.6</ele>
        <time>2023-07-08T12:39:18Z</time>
      </trkpt>
      <trkpt lat="45.56756" lon="4.77789">
        <ele>321</ele>
        <time>2023-07-08T12:39:37Z</time>
      </trkpt>
      <trkpt lat="45.56719" lon="4.77752">
        <ele>322.8</ele>
        <time>2023-07-08T12:39:54Z</time>
      </trkpt>
      <trkpt lat="45.56698" lon="4.7773">
        <ele>323.8</ele>
        <time>2023-07-08T12:40:04Z</time>
      </trkpt>
      <trkpt lat="45.56695" lon="4.77728">
        <ele>324</ele>
        <time>2023-07-08T12:40:05Z</time>
      </trkpt>
      <trkpt lat="45.56693" lon="4.77726">
        <ele>324.2</ele>
        <time>2023-07-08T12:40:06Z</time>
      </trkpt>
      <trkpt lat="45.56679" lon="4.77714">
        <ele>324.8</ele>
        <time>2023-07-08T12:40:12Z</time>
      </trkpt>
      <trkpt lat="45.56677" lon="4.77711">
        <ele>325</ele>
        <time>2023-07-08T12:40:13Z</time>
      </trkpt>
      <trkpt lat="45.56675" lon="4.7771">
        <ele>325.2</ele>
        <time>2023-07-08T12:40:14Z</time>
      </trkpt>
      <trkpt lat="45.56673" lon="4.77707">
        <ele>325.4</ele>
        <time>2023-07-08T12:40:15Z</time>
      </trkpt>
      <trkpt lat="45.5667" lon="4.77706">
        <ele>325.4</ele>
        <time>2023-07-08T12:40:16Z</time>
      </trkpt>
      <trkpt lat="45.56668" lon="4.77704">
        <ele>325.6</ele>
        <time>2023-07-08T12:40:17Z</time>
      </trkpt>
      <trkpt lat="45.56665" lon="4.77702">
        <ele>325.6</ele>
        <time>2023-07-08T12:40:18Z</time>
      </trkpt>
      <trkpt lat="45.56663" lon="4.777">
        <ele>325.6</ele>
        <time>2023-07-08T12:40:19Z</time>
      </trkpt>
      <trkpt lat="45.56661" lon="4.77698">
        <ele>325.8</ele>
        <time>2023-07-08T12:40:20Z</time>
      </trkpt>
      <trkpt lat="45.56633" lon="4.77674">
        <ele>326.8</ele>
        <time>2023-07-08T12:40:33Z</time>
      </trkpt>
      <trkpt lat="45.56595" lon="4.77627">
        <ele>329.4</ele>
        <time>2023-07-08T12:40:51Z</time>
      </trkpt>
      <trkpt lat="45.56562" lon="4.77576">
        <ele>331.4</ele>
        <time>2023-07-08T12:41:08Z</time>
      </trkpt>
      <trkpt lat="45.56532" lon="4.77558">
        <ele>332.8</ele>
        <time>2023-07-08T12:41:20Z</time>
      </trkpt>
      <trkpt lat="45.56497" lon="4.77555">
        <ele>334.6</ele>
        <time>2023-07-08T12:41:33Z</time>
      </trkpt>
      <trkpt lat="45.56458" lon="4.77555">
        <ele>335.6</ele>
        <time>2023-07-08T12:41:48Z</time>
      </trkpt>
      <trkpt lat="45.56419" lon="4.77545">
        <ele>337.8</ele>
        <time>2023-07-08T12:42:04Z</time>
      </trkpt>
      <trkpt lat="45.56389" lon="4.77535">
        <ele>339.2</ele>
        <time>2023-07-08T12:42:16Z</time>
      </trkpt>
      <trkpt lat="45.56349" lon="4.77521">
        <ele>341.6</ele>
        <time>2023-07-08T12:42:32Z</time>
      </trkpt>
      <trkpt lat="45.56314" lon="4.77483">
        <ele>343.4</ele>
        <time>2023-07-08T12:42:48Z</time>
      </trkpt>
      <trkpt lat="45.56302" lon="4.77423">
        <ele>345.2</ele>
        <time>2023-07-08T12:43:03Z</time>
      </trkpt>
      <trkpt lat="45.56294" lon="4.77355">
        <ele>346.4</ele>
        <time>2023-07-08T12:43:18Z</time>
      </trkpt>
      <trkpt lat="45.56279" lon="4.77291">
        <ele>347.4</ele>
        <time>2023-07-08T12:43:32Z</time>
      </trkpt>
      <trkpt lat="45.56245" lon="4.77244">
        <ele>348</ele>
        <time>2023-07-08T12:43:45Z</time>
      </trkpt>
      <trkpt lat="45.56199" lon="4.77216">
        <ele>347.4</ele>
        <time>2023-07-08T12:44:00Z</time>
      </trkpt>
      <trkpt lat="45.56145" lon="4.77207">
        <ele>346.8</ele>
        <time>2023-07-08T12:44:15Z</time>
      </trkpt>
      <trkpt lat="45.56082" lon="4.77198">
        <ele>346.2</ele>
        <time>2023-07-08T12:44:33Z</time>
      </trkpt>
      <trkpt lat="45.56029" lon="4.7718">
        <ele>347</ele>
        <time>2023-07-08T12:44:48Z</time>
      </trkpt>
      <trkpt lat="45.55994" lon="4.77144">
        <ele>349.4</ele>
        <time>2023-07-08T12:45:02Z</time>
      </trkpt>
      <trkpt lat="45.55957" lon="4.7708">
        <ele>351.6</ele>
        <time>2023-07-08T12:45:20Z</time>
      </trkpt>
      <trkpt lat="45.55945" lon="4.77033">
        <ele>351.8</ele>
        <time>2023-07-08T12:45:31Z</time>
      </trkpt>
      <trkpt lat="45.5594" lon="4.76971">
        <ele>353.8</ele>
        <time>2023-07-08T12:45:46Z</time>
      </trkpt>
      <trkpt lat="45.55933" lon="4.76926">
        <ele>354.8</ele>
        <time>2023-07-08T12:45:57Z</time>
      </trkpt>
      <trkpt lat="45.55919" lon="4.76885">
        <ele>356.2</ele>
        <time>2023-07-08T12:46:08Z</time>
      </trkpt>
      <trkpt lat="45.55918" lon="4.76882">
        <ele>356.4</ele>
        <time>2023-07-08T12:46:09Z</time>
      </trkpt>
      <trkpt lat="45.55897" lon="4.7685">
        <ele>357.2</ele>
        <time>2023-07-08T12:46:20Z</time>
      </trkpt>
      <trkpt lat="45.55895" lon="4.76847">
        <ele>357.4</ele>
        <time>2023-07-08T12:46:21Z</time>
      </trkpt>
      <trkpt lat="45.55893" lon="4.76844">
        <ele>357.4</ele>
        <time>2023-07-08T12:46:22Z</time>
      </trkpt>
      <trkpt lat="45.55891" lon="4.76841">
        <ele>357.6</ele>
        <time>2023-07-08T12:46:23Z</time>
      </trkpt>
      <trkpt lat="45.55889" lon="4.76838">
        <ele>357.6</ele>
        <time>2023-07-08T12:46:24Z</time>
      </trkpt>
      <trkpt lat="45.55857" lon="4.768">
        <ele>359.2</ele>
        <time>2023-07-08T12:46:39Z</time>
      </trkpt>
      <trkpt lat="45.5582" lon="4.76766">
        <ele>361</ele>
        <time>2023-07-08T12:46:55Z</time>
      </trkpt>
      <trkpt lat="45.55778" lon="4.7673">
        <ele>361.2</ele>
        <time>2023-07-08T12:47:11Z</time>
      </trkpt>
      <trkpt lat="45.55736" lon="4.76692">
        <ele>360.8</ele>
        <time>2023-07-08T12:47:26Z</time>
      </trkpt>
      <trkpt lat="45.55705" lon="4.76645">
        <ele>360.8</ele>
        <time>2023-07-08T12:47:40Z</time>
      </trkpt>
      <trkpt lat="45.55677" lon="4.76589">
        <ele>361.4</ele>
        <time>2023-07-08T12:47:55Z</time>
      </trkpt>
      <trkpt lat="45.55651" lon="4.76514">
        <ele>363.4</ele>
        <time>2023-07-08T12:48:14Z</time>
      </trkpt>
      <trkpt lat="45.55638" lon="4.76469">
        <ele>365.4</ele>
        <time>2023-07-08T12:48:26Z</time>
      </trkpt>
      <trkpt lat="45.55624" lon="4.76425">
        <ele>366.6</ele>
        <time>2023-07-08T12:48:38Z</time>
      </trkpt>
      <trkpt lat="45.55602" lon="4.76372">
        <ele>369.4</ele>
        <time>2023-07-08T12:48:53Z</time>
      </trkpt>
      <trkpt lat="45.55579" lon="4.76322">
        <ele>370.8</ele>
        <time>2023-07-08T12:49:08Z</time>
      </trkpt>
      <trkpt lat="45.55556" lon="4.76274">
        <ele>372</ele>
        <time>2023-07-08T12:49:23Z</time>
      </trkpt>
      <trkpt lat="45.55524" lon="4.76209">
        <ele>372</ele>
        <time>2023-07-08T12:49:41Z</time>
      </trkpt>
      <trkpt lat="45.55484" lon="4.76131">
        <ele>370.4</ele>
        <time>2023-07-08T12:49:56Z</time>
      </trkpt>
      <trkpt lat="45.55421" lon="4.7604">
        <ele>367.4</ele>
        <time>2023-07-08T12:50:13Z</time>
      </trkpt>
      <trkpt lat="45.55389" lon="4.7599">
        <ele>369.4</ele>
        <time>2023-07-08T12:50:28Z</time>
      </trkpt>
      <trkpt lat="45.55355" lon="4.75976">
        <ele>371.2</ele>
        <time>2023-07-08T12:50:41Z</time>
      </trkpt>
      <trkpt lat="45.55346" lon="4.75977">
        <ele>371.6</ele>
        <time>2023-07-08T12:50:44Z</time>
      </trkpt>
      <trkpt lat="45.55343" lon="4.75978">
        <ele>372</ele>
        <time>2023-07-08T12:50:45Z</time>
      </trkpt>
      <trkpt lat="45.55306" lon="4.75987">
        <ele>373.6</ele>
        <time>2023-07-08T12:50:59Z</time>
      </trkpt>
      <trkpt lat="45.55268" lon="4.75985">
        <ele>375</ele>
        <time>2023-07-08T12:51:13Z</time>
      </trkpt>
      <trkpt lat="45.5523" lon="4.75963">
        <ele>378</ele>
        <time>2023-07-08T12:51:28Z</time>
      </trkpt>
      <trkpt lat="45.55196" lon="4.75917">
        <ele>381</ele>
        <time>2023-07-08T12:51:45Z</time>
      </trkpt>
      <trkpt lat="45.55168" lon="4.75877">
        <ele>383.2</ele>
        <time>2023-07-08T12:52:00Z</time>
      </trkpt>
      <trkpt lat="45.55164" lon="4.75873">
        <ele>383.6</ele>
        <time>2023-07-08T12:52:02Z</time>
      </trkpt>
      <trkpt lat="45.55162" lon="4.7587">
        <ele>383.6</ele>
        <time>2023-07-08T12:52:03Z</time>
      </trkpt>
      <trkpt lat="45.5516" lon="4.75868">
        <ele>383.6</ele>
        <time>2023-07-08T12:52:04Z</time>
      </trkpt>
      <trkpt lat="45.55158" lon="4.75866">
        <ele>383.8</ele>
        <time>2023-07-08T12:52:05Z</time>
      </trkpt>
      <trkpt lat="45.55156" lon="4.75864">
        <ele>384</ele>
        <time>2023-07-08T12:52:06Z</time>
      </trkpt>
      <trkpt lat="45.55154" lon="4.75862">
        <ele>384.2</ele>
        <time>2023-07-08T12:52:07Z</time>
      </trkpt>
      <trkpt lat="45.55152" lon="4.7586">
        <ele>384.4</ele>
        <time>2023-07-08T12:52:08Z</time>
      </trkpt>
      <trkpt lat="45.5515" lon="4.75859">
        <ele>384.4</ele>
        <time>2023-07-08T12:52:09Z</time>
      </trkpt>
      <trkpt lat="45.55147" lon="4.75857">
        <ele>384.4</ele>
        <time>2023-07-08T12:52:10Z</time>
      </trkpt>
      <trkpt lat="45.55145" lon="4.75855">
        <ele>384.4</ele>
        <time>2023-07-08T12:52:11Z</time>
      </trkpt>
      <trkpt lat="45.55143" lon="4.75853">
        <ele>384.6</ele>
        <time>2023-07-08T12:52:12Z</time>
      </trkpt>
      <trkpt lat="45.5514" lon="4.75851">
        <ele>384.6</ele>
        <time>2023-07-08T12:52:13Z</time>
      </trkpt>
      <trkpt lat="45.55138" lon="4.75849">
        <ele>384.6</ele>
        <time>2023-07-08T12:52:14Z</time>
      </trkpt>
      <trkpt lat="45.55136" lon="4.75847">
        <ele>384.8</ele>
        <time>2023-07-08T12:52:15Z</time>
      </trkpt>
      <trkpt lat="45.55134" lon="4.75846">
        <ele>385</ele>
        <time>2023-07-08T12:52:16Z</time>
      </trkpt>
      <trkpt lat="45.55105" lon="4.75821">
        <ele>386.8</ele>
        <time>2023-07-08T12:52:30Z</time>
      </trkpt>
      <trkpt lat="45.5508" lon="4.75777">
        <ele>388.6</ele>
        <time>2023-07-08T12:52:45Z</time>
      </trkpt>
      <trkpt lat="45.55064" lon="4.75716">
        <ele>391.8</ele>
        <time>2023-07-08T12:53:02Z</time>
      </trkpt>
      <trkpt lat="45.55061" lon="4.75676">
        <ele>393.6</ele>
        <time>2023-07-08T12:53:14Z</time>
      </trkpt>
      <trkpt lat="45.55056" lon="4.75639">
        <ele>395.2</ele>
        <time>2023-07-08T12:53:25Z</time>
      </trkpt>
      <trkpt lat="45.55054" lon="4.75625">
        <ele>395.6</ele>
        <time>2023-07-08T12:53:29Z</time>
      </trkpt>
      <trkpt lat="45.55052" lon="4.75618">
        <ele>395.8</ele>
        <time>2023-07-08T12:53:31Z</time>
      </trkpt>
      <trkpt lat="45.55052" lon="4.75614">
        <ele>395.8</ele>
        <time>2023-07-08T12:53:32Z</time>
      </trkpt>
      <trkpt lat="45.55051" lon="4.75611">
        <ele>396.2</ele>
        <time>2023-07-08T12:53:33Z</time>
      </trkpt>
      <trkpt lat="45.5505" lon="4.75607">
        <ele>396.4</ele>
        <time>2023-07-08T12:53:34Z</time>
      </trkpt>
      <trkpt lat="45.55049" lon="4.75604">
        <ele>396.6</ele>
        <time>2023-07-08T12:53:35Z</time>
      </trkpt>
      <trkpt lat="45.55048" lon="4.75601">
        <ele>396.6</ele>
        <time>2023-07-08T12:53:36Z</time>
      </trkpt>
      <trkpt lat="45.55048" lon="4.75598">
        <ele>396.8</ele>
        <time>2023-07-08T12:53:37Z</time>
      </trkpt>
      <trkpt lat="45.55037" lon="4.75543">
        <ele>399</ele>
        <time>2023-07-08T12:53:53Z</time>
      </trkpt>
      <trkpt lat="45.55042" lon="4.75493">
        <ele>401.2</ele>
        <time>2023-07-08T12:54:07Z</time>
      </trkpt>
      <trkpt lat="45.55043" lon="4.7549">
        <ele>401.4</ele>
        <time>2023-07-08T12:54:08Z</time>
      </trkpt>
      <trkpt lat="45.55043" lon="4.75486">
        <ele>401.4</ele>
        <time>2023-07-08T12:54:09Z</time>
      </trkpt>
      <trkpt lat="45.55044" lon="4.75483">
        <ele>401.4</ele>
        <time>2023-07-08T12:54:10Z</time>
      </trkpt>
      <trkpt lat="45.55045" lon="4.7548">
        <ele>401.6</ele>
        <time>2023-07-08T12:54:11Z</time>
      </trkpt>
      <trkpt lat="45.55045" lon="4.75476">
        <ele>401.6</ele>
        <time>2023-07-08T12:54:12Z</time>
      </trkpt>
      <trkpt lat="45.55045" lon="4.75473">
        <ele>401.8</ele>
        <time>2023-07-08T12:54:13Z</time>
      </trkpt>
      <trkpt lat="45.55045" lon="4.75469">
        <ele>402</ele>
        <time>2023-07-08T12:54:14Z</time>
      </trkpt>
      <trkpt lat="45.55046" lon="4.75466">
        <ele>402</ele>
        <time>2023-07-08T12:54:15Z</time>
      </trkpt>
      <trkpt lat="45.55046" lon="4.75462">
        <ele>402.2</ele>
        <time>2023-07-08T12:54:16Z</time>
      </trkpt>
      <trkpt lat="45.55047" lon="4.75459">
        <ele>402.4</ele>
        <time>2023-07-08T12:54:17Z</time>
      </trkpt>
      <trkpt lat="45.55047" lon="4.75455">
        <ele>402.6</ele>
        <time>2023-07-08T12:54:18Z</time>
      </trkpt>
      <trkpt lat="45.55047" lon="4.75452">
        <ele>402.8</ele>
        <time>2023-07-08T12:54:19Z</time>
      </trkpt>
      <trkpt lat="45.55041" lon="4.75412">
        <ele>404.4</ele>
        <time>2023-07-08T12:54:31Z</time>
      </trkpt>
      <trkpt lat="45.55027" lon="4.75379">
        <ele>406</ele>
        <time>2023-07-08T12:54:42Z</time>
      </trkpt>
      <trkpt lat="45.55003" lon="4.75351">
        <ele>407.4</ele>
        <time>2023-07-08T12:54:54Z</time>
      </trkpt>
      <trkpt lat="45.5497" lon="4.7533">
        <ele>408.6</ele>
        <time>2023-07-08T12:55:08Z</time>
      </trkpt>
      <trkpt lat="45.54921" lon="4.75322">
        <ele>409.8</ele>
        <time>2023-07-08T12:55:25Z</time>
      </trkpt>
      <trkpt lat="45.54871" lon="4.75321">
        <ele>412.4</ele>
        <time>2023-07-08T12:55:42Z</time>
      </trkpt>
      <trkpt lat="45.54829" lon="4.75319">
        <ele>412.6</ele>
        <time>2023-07-08T12:55:57Z</time>
      </trkpt>
      <trkpt lat="45.54776" lon="4.75302">
        <ele>413.8</ele>
        <time>2023-07-08T12:56:15Z</time>
      </trkpt>
      <trkpt lat="45.54737" lon="4.75268">
        <ele>414.8</ele>
        <time>2023-07-08T12:56:30Z</time>
      </trkpt>
      <trkpt lat="45.547" lon="4.75218">
        <ele>415.4</ele>
        <time>2023-07-08T12:56:46Z</time>
      </trkpt>
      <trkpt lat="45.54683" lon="4.7515">
        <ele>416.2</ele>
        <time>2023-07-08T12:57:01Z</time>
      </trkpt>
      <trkpt lat="45.5465" lon="4.75099">
        <ele>416.6</ele>
        <time>2023-07-08T12:57:14Z</time>
      </trkpt>
      <trkpt lat="45.54608" lon="4.75077">
        <ele>416.8</ele>
        <time>2023-07-08T12:57:27Z</time>
      </trkpt>
      <trkpt lat="45.54558" lon="4.75021">
        <ele>417.6</ele>
        <time>2023-07-08T12:57:44Z</time>
      </trkpt>
      <trkpt lat="45.54543" lon="4.7498">
        <ele>418.2</ele>
        <time>2023-07-08T12:57:55Z</time>
      </trkpt>
      <trkpt lat="45.54519" lon="4.74892">
        <ele>419.2</ele>
        <time>2023-07-08T12:58:12Z</time>
      </trkpt>
      <trkpt lat="45.54533" lon="4.74809">
        <ele>420</ele>
        <time>2023-07-08T12:58:27Z</time>
      </trkpt>
      <trkpt lat="45.54549" lon="4.74732">
        <ele>420.4</ele>
        <time>2023-07-08T12:58:42Z</time>
      </trkpt>
      <trkpt lat="45.54531" lon="4.74681">
        <ele>420.6</ele>
        <time>2023-07-08T12:58:53Z</time>
      </trkpt>
      <trkpt lat="45.54483" lon="4.74654">
        <ele>421.2</ele>
        <time>2023-07-08T12:59:06Z</time>
      </trkpt>
      <trkpt lat="45.54439" lon="4.74662">
        <ele>421.8</ele>
        <time>2023-07-08T12:59:19Z</time>
      </trkpt>
      <trkpt lat="45.5438" lon="4.74637">
        <ele>423</ele>
        <time>2023-07-08T12:59:36Z</time>
      </trkpt>
      <trkpt lat="45.54351" lon="4.7461">
        <ele>423.4</ele>
        <time>2023-07-08T12:59:47Z</time>
      </trkpt>
      <trkpt lat="45.54321" lon="4.74551">
        <ele>423.6</ele>
        <time>2023-07-08T13:00:01Z</time>
      </trkpt>
      <trkpt lat="45.5428" lon="4.74503">
        <ele>424</ele>
        <time>2023-07-08T13:00:15Z</time>
      </trkpt>
      <trkpt lat="45.54234" lon="4.7446">
        <ele>424.2</ele>
        <time>2023-07-08T13:00:30Z</time>
      </trkpt>
      <trkpt lat="45.54169" lon="4.74413">
        <ele>422.6</ele>
        <time>2023-07-08T13:00:46Z</time>
      </trkpt>
      <trkpt lat="45.54083" lon="4.74372">
        <ele>419.2</ele>
        <time>2023-07-08T13:01:01Z</time>
      </trkpt>
      <trkpt lat="45.53981" lon="4.74349">
        <ele>416.2</ele>
        <time>2023-07-08T13:01:18Z</time>
      </trkpt>
      <trkpt lat="45.53893" lon="4.74335">
        <ele>415.4</ele>
        <time>2023-07-08T13:01:35Z</time>
      </trkpt>
      <trkpt lat="45.53834" lon="4.7434">
        <ele>416</ele>
        <time>2023-07-08T13:01:51Z</time>
      </trkpt>
      <trkpt lat="45.53782" lon="4.74353">
        <ele>416.8</ele>
        <time>2023-07-08T13:02:06Z</time>
      </trkpt>
      <trkpt lat="45.53719" lon="4.7438">
        <ele>417.2</ele>
        <time>2023-07-08T13:02:26Z</time>
      </trkpt>
      <trkpt lat="45.53673" lon="4.74402">
        <ele>419.2</ele>
        <time>2023-07-08T13:02:43Z</time>
      </trkpt>
      <trkpt lat="45.53636" lon="4.74423">
        <ele>420.4</ele>
        <time>2023-07-08T13:02:58Z</time>
      </trkpt>
      <trkpt lat="45.53599" lon="4.74446">
        <ele>421.4</ele>
        <time>2023-07-08T13:03:14Z</time>
      </trkpt>
      <trkpt lat="45.53554" lon="4.74475">
        <ele>424</ele>
        <time>2023-07-08T13:03:33Z</time>
      </trkpt>
      <trkpt lat="45.53523" lon="4.7449">
        <ele>425</ele>
        <time>2023-07-08T13:03:45Z</time>
      </trkpt>
      <trkpt lat="45.53491" lon="4.74483">
        <ele>426.2</ele>
        <time>2023-07-08T13:03:58Z</time>
      </trkpt>
      <trkpt lat="45.53484" lon="4.74438">
        <ele>427.8</ele>
        <time>2023-07-08T13:04:11Z</time>
      </trkpt>
      <trkpt lat="45.53497" lon="4.74397">
        <ele>429.4</ele>
        <time>2023-07-08T13:04:23Z</time>
      </trkpt>
      <trkpt lat="45.53504" lon="4.74354">
        <ele>430.6</ele>
        <time>2023-07-08T13:04:35Z</time>
      </trkpt>
      <trkpt lat="45.53495" lon="4.74317">
        <ele>431.8</ele>
        <time>2023-07-08T13:04:45Z</time>
      </trkpt>
      <trkpt lat="45.5347" lon="4.74272">
        <ele>432.4</ele>
        <time>2023-07-08T13:05:00Z</time>
      </trkpt>
      <trkpt lat="45.53444" lon="4.7425">
        <ele>434.2</ele>
        <time>2023-07-08T13:05:12Z</time>
      </trkpt>
      <trkpt lat="45.53442" lon="4.74249">
        <ele>434.2</ele>
        <time>2023-07-08T13:05:13Z</time>
      </trkpt>
      <trkpt lat="45.5344" lon="4.74247">
        <ele>434.2</ele>
        <time>2023-07-08T13:05:14Z</time>
      </trkpt>
      <trkpt lat="45.53438" lon="4.74245">
        <ele>434.2</ele>
        <time>2023-07-08T13:05:15Z</time>
      </trkpt>
      <trkpt lat="45.53435" lon="4.74244">
        <ele>434.4</ele>
        <time>2023-07-08T13:05:16Z</time>
      </trkpt>
      <trkpt lat="45.53395" lon="4.74225">
        <ele>435.2</ele>
        <time>2023-07-08T13:05:33Z</time>
      </trkpt>
      <trkpt lat="45.53356" lon="4.74219">
        <ele>437</ele>
        <time>2023-07-08T13:05:49Z</time>
      </trkpt>
      <trkpt lat="45.53332" lon="4.7423">
        <ele>438.6</ele>
        <time>2023-07-08T13:05:59Z</time>
      </trkpt>
      <trkpt lat="45.53307" lon="4.74253">
        <ele>440.6</ele>
        <time>2023-07-08T13:06:12Z</time>
      </trkpt>
      <trkpt lat="45.53283" lon="4.74279">
        <ele>441.8</ele>
        <time>2023-07-08T13:06:26Z</time>
      </trkpt>
      <trkpt lat="45.5325" lon="4.74317">
        <ele>443.6</ele>
        <time>2023-07-08T13:06:43Z</time>
      </trkpt>
      <trkpt lat="45.53246" lon="4.74322">
        <ele>444</ele>
        <time>2023-07-08T13:06:46Z</time>
      </trkpt>
      <trkpt lat="45.5321" lon="4.74351">
        <ele>445.2</ele>
        <time>2023-07-08T13:07:01Z</time>
      </trkpt>
      <trkpt lat="45.5317" lon="4.74355">
        <ele>446.8</ele>
        <time>2023-07-08T13:07:15Z</time>
      </trkpt>
      <trkpt lat="45.53126" lon="4.74326">
        <ele>447.8</ele>
        <time>2023-07-08T13:07:30Z</time>
      </trkpt>
      <trkpt lat="45.53096" lon="4.74297">
        <ele>448.2</ele>
        <time>2023-07-08T13:07:42Z</time>
      </trkpt>
      <trkpt lat="45.53053" lon="4.74246">
        <ele>447.8</ele>
        <time>2023-07-08T13:07:57Z</time>
      </trkpt>
      <trkpt lat="45.53017" lon="4.74209">
        <ele>449.8</ele>
        <time>2023-07-08T13:08:11Z</time>
      </trkpt>
      <trkpt lat="45.52966" lon="4.74191">
        <ele>452.8</ele>
        <time>2023-07-08T13:08:28Z</time>
      </trkpt>
      <trkpt lat="45.52928" lon="4.74157">
        <ele>454.8</ele>
        <time>2023-07-08T13:08:45Z</time>
      </trkpt>
      <trkpt lat="45.52908" lon="4.74119">
        <ele>456.6</ele>
        <time>2023-07-08T13:08:58Z</time>
      </trkpt>
      <trkpt lat="45.52885" lon="4.74092">
        <ele>458.4</ele>
        <time>2023-07-08T13:09:10Z</time>
      </trkpt>
      <trkpt lat="45.52854" lon="4.74082">
        <ele>459.6</ele>
        <time>2023-07-08T13:09:22Z</time>
      </trkpt>
      <trkpt lat="45.52819" lon="4.74095">
        <ele>461.2</ele>
        <time>2023-07-08T13:09:36Z</time>
      </trkpt>
      <trkpt lat="45.52793" lon="4.74114">
        <ele>462.2</ele>
        <time>2023-07-08T13:09:46Z</time>
      </trkpt>
      <trkpt lat="45.52772" lon="4.74135">
        <ele>463.6</ele>
        <time>2023-07-08T13:09:56Z</time>
      </trkpt>
      <trkpt lat="45.52741" lon="4.74169">
        <ele>465.4</ele>
        <time>2023-07-08T13:10:11Z</time>
      </trkpt>
      <trkpt lat="45.52705" lon="4.74201">
        <ele>466.2</ele>
        <time>2023-07-08T13:10:25Z</time>
      </trkpt>
      <trkpt lat="45.52667" lon="4.74219">
        <ele>468.6</ele>
        <time>2023-07-08T13:10:38Z</time>
      </trkpt>
      <trkpt lat="45.52637" lon="4.74227">
        <ele>470.2</ele>
        <time>2023-07-08T13:10:51Z</time>
      </trkpt>
      <trkpt lat="45.52594" lon="4.74224">
        <ele>471.6</ele>
        <time>2023-07-08T13:11:06Z</time>
      </trkpt>
      <trkpt lat="45.52549" lon="4.7422">
        <ele>473.2</ele>
        <time>2023-07-08T13:11:21Z</time>
      </trkpt>
      <trkpt lat="45.52504" lon="4.74216">
        <ele>475</ele>
        <time>2023-07-08T13:11:37Z</time>
      </trkpt>
      <trkpt lat="45.52461" lon="4.74216">
        <ele>476.8</ele>
        <time>2023-07-08T13:11:52Z</time>
      </trkpt>
      <trkpt lat="45.5242" lon="4.74236">
        <ele>478.2</ele>
        <time>2023-07-08T13:12:08Z</time>
      </trkpt>
      <trkpt lat="45.52386" lon="4.74261">
        <ele>479.4</ele>
        <time>2023-07-08T13:12:22Z</time>
      </trkpt>
      <trkpt lat="45.52372" lon="4.74272">
        <ele>480.6</ele>
        <time>2023-07-08T13:12:28Z</time>
      </trkpt>
      <trkpt lat="45.5235" lon="4.74295">
        <ele>482</ele>
        <time>2023-07-08T13:12:38Z</time>
      </trkpt>
      <trkpt lat="45.52315" lon="4.74333">
        <ele>484.2</ele>
        <time>2023-07-08T13:12:53Z</time>
      </trkpt>
      <trkpt lat="45.52274" lon="4.74355">
        <ele>485.8</ele>
        <time>2023-07-08T13:13:08Z</time>
      </trkpt>
      <trkpt lat="45.52239" lon="4.74352">
        <ele>487</ele>
        <time>2023-07-08T13:13:20Z</time>
      </trkpt>
      <trkpt lat="45.52237" lon="4.7435">
        <ele>487.2</ele>
        <time>2023-07-08T13:13:21Z</time>
      </trkpt>
      <trkpt lat="45.52235" lon="4.74347">
        <ele>487.2</ele>
        <time>2023-07-08T13:13:22Z</time>
      </trkpt>
      <trkpt lat="45.52223" lon="4.74276">
        <ele>488.4</ele>
        <time>2023-07-08T13:13:33Z</time>
      </trkpt>
      <trkpt lat="45.52202" lon="4.74141">
        <ele>485.2</ele>
        <time>2023-07-08T13:13:46Z</time>
      </trkpt>
      <trkpt lat="45.52182" lon="4.74034">
        <ele>482</ele>
        <time>2023-07-08T13:13:55Z</time>
      </trkpt>
      <trkpt lat="45.52162" lon="4.73974">
        <ele>478.8</ele>
        <time>2023-07-08T13:14:00Z</time>
      </trkpt>
      <trkpt lat="45.52136" lon="4.73933">
        <ele>477.6</ele>
        <time>2023-07-08T13:14:04Z</time>
      </trkpt>
      <trkpt lat="45.52128" lon="4.73924">
        <ele>476.4</ele>
        <time>2023-07-08T13:14:05Z</time>
      </trkpt>
      <trkpt lat="45.52119" lon="4.73916">
        <ele>475.8</ele>
        <time>2023-07-08T13:14:06Z</time>
      </trkpt>
      <trkpt lat="45.5211" lon="4.7391">
        <ele>475</ele>
        <time>2023-07-08T13:14:07Z</time>
      </trkpt>
      <trkpt lat="45.52101" lon="4.73904">
        <ele>474.4</ele>
        <time>2023-07-08T13:14:08Z</time>
      </trkpt>
      <trkpt lat="45.52092" lon="4.739">
        <ele>474</ele>
        <time>2023-07-08T13:14:09Z</time>
      </trkpt>
      <trkpt lat="45.52082" lon="4.73897">
        <ele>473.8</ele>
        <time>2023-07-08T13:14:10Z</time>
      </trkpt>
      <trkpt lat="45.52072" lon="4.73895">
        <ele>473.2</ele>
        <time>2023-07-08T13:14:11Z</time>
      </trkpt>
      <trkpt lat="45.52001" lon="4.7388">
        <ele>470</ele>
        <time>2023-07-08T13:14:18Z</time>
      </trkpt>
      <trkpt lat="45.51944" lon="4.73863">
        <ele>467.8</ele>
        <time>2023-07-08T13:14:24Z</time>
      </trkpt>
      <trkpt lat="45.51935" lon="4.73857">
        <ele>467.2</ele>
        <time>2023-07-08T13:14:25Z</time>
      </trkpt>
      <trkpt lat="45.51927" lon="4.7385">
        <ele>466.6</ele>
        <time>2023-07-08T13:14:26Z</time>
      </trkpt>
      <trkpt lat="45.51919" lon="4.73841">
        <ele>465.8</ele>
        <time>2023-07-08T13:14:27Z</time>
      </trkpt>
      <trkpt lat="45.51912" lon="4.7383">
        <ele>465.8</ele>
        <time>2023-07-08T13:14:28Z</time>
      </trkpt>
      <trkpt lat="45.51907" lon="4.73818">
        <ele>465.4</ele>
        <time>2023-07-08T13:14:29Z</time>
      </trkpt>
      <trkpt lat="45.51905" lon="4.73804">
        <ele>465.2</ele>
        <time>2023-07-08T13:14:30Z</time>
      </trkpt>
      <trkpt lat="45.51909" lon="4.73789">
        <ele>465</ele>
        <time>2023-07-08T13:14:31Z</time>
      </trkpt>
      <trkpt lat="45.51915" lon="4.73776">
        <ele>464.8</ele>
        <time>2023-07-08T13:14:32Z</time>
      </trkpt>
      <trkpt lat="45.51921" lon="4.73763">
        <ele>464.6</ele>
        <time>2023-07-08T13:14:33Z</time>
      </trkpt>
      <trkpt lat="45.51924" lon="4.7375">
        <ele>464.4</ele>
        <time>2023-07-08T13:14:34Z</time>
      </trkpt>
      <trkpt lat="45.51926" lon="4.73736">
        <ele>464.2</ele>
        <time>2023-07-08T13:14:35Z</time>
      </trkpt>
      <trkpt lat="45.51926" lon="4.73722">
        <ele>464</ele>
        <time>2023-07-08T13:14:36Z</time>
      </trkpt>
      <trkpt lat="45.51924" lon="4.73708">
        <ele>463.6</ele>
        <time>2023-07-08T13:14:37Z</time>
      </trkpt>
      <trkpt lat="45.51922" lon="4.73694">
        <ele>463.2</ele>
        <time>2023-07-08T13:14:38Z</time>
      </trkpt>
      <trkpt lat="45.5192" lon="4.73632">
        <ele>461</ele>
        <time>2023-07-08T13:14:42Z</time>
      </trkpt>
      <trkpt lat="45.51922" lon="4.73616">
        <ele>460.6</ele>
        <time>2023-07-08T13:14:43Z</time>
      </trkpt>
      <trkpt lat="45.51927" lon="4.73569">
        <ele>458.6</ele>
        <time>2023-07-08T13:14:46Z</time>
      </trkpt>
      <trkpt lat="45.51927" lon="4.73552">
        <ele>457.8</ele>
        <time>2023-07-08T13:14:47Z</time>
      </trkpt>
      <trkpt lat="45.51924" lon="4.73537">
        <ele>457.2</ele>
        <time>2023-07-08T13:14:48Z</time>
      </trkpt>
      <trkpt lat="45.51919" lon="4.73522">
        <ele>456.6</ele>
        <time>2023-07-08T13:14:49Z</time>
      </trkpt>
      <trkpt lat="45.51913" lon="4.73509">
        <ele>456.2</ele>
        <time>2023-07-08T13:14:50Z</time>
      </trkpt>
      <trkpt lat="45.51906" lon="4.73496">
        <ele>455</ele>
        <time>2023-07-08T13:14:51Z</time>
      </trkpt>
      <trkpt lat="45.51898" lon="4.73486">
        <ele>455</ele>
        <time>2023-07-08T13:14:52Z</time>
      </trkpt>
      <trkpt lat="45.51889" lon="4.73476">
        <ele>454.8</ele>
        <time>2023-07-08T13:14:53Z</time>
      </trkpt>
      <trkpt lat="45.5188" lon="4.73466">
        <ele>454.4</ele>
        <time>2023-07-08T13:14:54Z</time>
      </trkpt>
      <trkpt lat="45.51871" lon="4.73458">
        <ele>453</ele>
        <time>2023-07-08T13:14:55Z</time>
      </trkpt>
      <trkpt lat="45.51835" lon="4.73425">
        <ele>449.2</ele>
        <time>2023-07-08T13:14:59Z</time>
      </trkpt>
      <trkpt lat="45.51792" lon="4.73386">
        <ele>445.4</ele>
        <time>2023-07-08T13:15:04Z</time>
      </trkpt>
      <trkpt lat="45.51758" lon="4.73357">
        <ele>443.6</ele>
        <time>2023-07-08T13:15:08Z</time>
      </trkpt>
      <trkpt lat="45.51711" lon="4.73312">
        <ele>440.4</ele>
        <time>2023-07-08T13:15:14Z</time>
      </trkpt>
      <trkpt lat="45.5164" lon="4.73246">
        <ele>438</ele>
        <time>2023-07-08T13:15:23Z</time>
      </trkpt>
      <trkpt lat="45.51633" lon="4.73235">
        <ele>437.6</ele>
        <time>2023-07-08T13:15:24Z</time>
      </trkpt>
      <trkpt lat="45.51628" lon="4.73223">
        <ele>437.2</ele>
        <time>2023-07-08T13:15:25Z</time>
      </trkpt>
      <trkpt lat="45.51624" lon="4.7321">
        <ele>436.8</ele>
        <time>2023-07-08T13:15:26Z</time>
      </trkpt>
      <trkpt lat="45.51622" lon="4.73196">
        <ele>436.6</ele>
        <time>2023-07-08T13:15:27Z</time>
      </trkpt>
      <trkpt lat="45.5162" lon="4.73181">
        <ele>436.2</ele>
        <time>2023-07-08T13:15:28Z</time>
      </trkpt>
      <trkpt lat="45.5162" lon="4.73166">
        <ele>435.6</ele>
        <time>2023-07-08T13:15:29Z</time>
      </trkpt>
      <trkpt lat="45.51621" lon="4.73151">
        <ele>435</ele>
        <time>2023-07-08T13:15:30Z</time>
      </trkpt>
      <trkpt lat="45.51621" lon="4.73136">
        <ele>434.6</ele>
        <time>2023-07-08T13:15:31Z</time>
      </trkpt>
      <trkpt lat="45.51627" lon="4.73028">
        <ele>431.6</ele>
        <time>2023-07-08T13:15:38Z</time>
      </trkpt>
      <trkpt lat="45.51632" lon="4.72903">
        <ele>428.2</ele>
        <time>2023-07-08T13:15:46Z</time>
      </trkpt>
      <trkpt lat="45.51635" lon="4.72826">
        <ele>424.8</ele>
        <time>2023-07-08T13:15:51Z</time>
      </trkpt>
      <trkpt lat="45.51639" lon="4.72692">
        <ele>421.8</ele>
        <time>2023-07-08T13:16:00Z</time>
      </trkpt>
      <trkpt lat="45.51639" lon="4.72637">
        <ele>420.6</ele>
        <time>2023-07-08T13:16:04Z</time>
      </trkpt>
      <trkpt lat="45.51638" lon="4.72624">
        <ele>420.4</ele>
        <time>2023-07-08T13:16:05Z</time>
      </trkpt>
      <trkpt lat="45.51635" lon="4.72611">
        <ele>420.2</ele>
        <time>2023-07-08T13:16:06Z</time>
      </trkpt>
      <trkpt lat="45.51631" lon="4.72599">
        <ele>420</ele>
        <time>2023-07-08T13:16:07Z</time>
      </trkpt>
      <trkpt lat="45.51626" lon="4.72589">
        <ele>419.4</ele>
        <time>2023-07-08T13:16:08Z</time>
      </trkpt>
      <trkpt lat="45.5162" lon="4.7258">
        <ele>419.2</ele>
        <time>2023-07-08T13:16:09Z</time>
      </trkpt>
      <trkpt lat="45.51613" lon="4.72572">
        <ele>419.2</ele>
        <time>2023-07-08T13:16:10Z</time>
      </trkpt>
      <trkpt lat="45.51605" lon="4.72565">
        <ele>419</ele>
        <time>2023-07-08T13:16:11Z</time>
      </trkpt>
      <trkpt lat="45.51597" lon="4.72559">
        <ele>419</ele>
        <time>2023-07-08T13:16:12Z</time>
      </trkpt>
      <trkpt lat="45.51589" lon="4.72555">
        <ele>418.8</ele>
        <time>2023-07-08T13:16:13Z</time>
      </trkpt>
      <trkpt lat="45.5158" lon="4.72552">
        <ele>418.6</ele>
        <time>2023-07-08T13:16:14Z</time>
      </trkpt>
      <trkpt lat="45.51538" lon="4.72532">
        <ele>416.6</ele>
        <time>2023-07-08T13:16:19Z</time>
      </trkpt>
      <trkpt lat="45.51532" lon="4.72524">
        <ele>416.2</ele>
        <time>2023-07-08T13:16:20Z</time>
      </trkpt>
      <trkpt lat="45.51527" lon="4.72514">
        <ele>415.8</ele>
        <time>2023-07-08T13:16:21Z</time>
      </trkpt>
      <trkpt lat="45.51524" lon="4.72502">
        <ele>415.4</ele>
        <time>2023-07-08T13:16:22Z</time>
      </trkpt>
      <trkpt lat="45.51522" lon="4.72489">
        <ele>414.8</ele>
        <time>2023-07-08T13:16:23Z</time>
      </trkpt>
      <trkpt lat="45.51523" lon="4.72476">
        <ele>414.2</ele>
        <time>2023-07-08T13:16:24Z</time>
      </trkpt>
      <trkpt lat="45.51525" lon="4.72462">
        <ele>413.8</ele>
        <time>2023-07-08T13:16:25Z</time>
      </trkpt>
      <trkpt lat="45.51528" lon="4.72449">
        <ele>413.6</ele>
        <time>2023-07-08T13:16:26Z</time>
      </trkpt>
      <trkpt lat="45.51532" lon="4.72436">
        <ele>413.4</ele>
        <time>2023-07-08T13:16:27Z</time>
      </trkpt>
      <trkpt lat="45.51537" lon="4.72423">
        <ele>413.2</ele>
        <time>2023-07-08T13:16:28Z</time>
      </trkpt>
      <trkpt lat="45.51543" lon="4.7241">
        <ele>413</ele>
        <time>2023-07-08T13:16:29Z</time>
      </trkpt>
      <trkpt lat="45.516" lon="4.72295">
        <ele>410.6</ele>
        <time>2023-07-08T13:16:38Z</time>
      </trkpt>
      <trkpt lat="45.51603" lon="4.72281">
        <ele>410</ele>
        <time>2023-07-08T13:16:39Z</time>
      </trkpt>
      <trkpt lat="45.51603" lon="4.72267">
        <ele>409.6</ele>
        <time>2023-07-08T13:16:40Z</time>
      </trkpt>
      <trkpt lat="45.51601" lon="4.72254">
        <ele>409</ele>
        <time>2023-07-08T13:16:41Z</time>
      </trkpt>
      <trkpt lat="45.51596" lon="4.72241">
        <ele>408.2</ele>
        <time>2023-07-08T13:16:42Z</time>
      </trkpt>
      <trkpt lat="45.5159" lon="4.7223">
        <ele>407.6</ele>
        <time>2023-07-08T13:16:43Z</time>
      </trkpt>
      <trkpt lat="45.51583" lon="4.7222">
        <ele>407.4</ele>
        <time>2023-07-08T13:16:44Z</time>
      </trkpt>
      <trkpt lat="45.51555" lon="4.72175">
        <ele>404.6</ele>
        <time>2023-07-08T13:16:50Z</time>
      </trkpt>
      <trkpt lat="45.51552" lon="4.7217">
        <ele>403.6</ele>
        <time>2023-07-08T13:16:51Z</time>
      </trkpt>
      <trkpt lat="45.51549" lon="4.72168">
        <ele>402.4</ele>
        <time>2023-07-08T13:16:52Z</time>
      </trkpt>
      <trkpt lat="45.51546" lon="4.72167">
        <ele>401.8</ele>
        <time>2023-07-08T13:16:53Z</time>
      </trkpt>
      <trkpt lat="45.51543" lon="4.72169">
        <ele>401.6</ele>
        <time>2023-07-08T13:16:54Z</time>
      </trkpt>
      <trkpt lat="45.5154" lon="4.72172">
        <ele>401.4</ele>
        <time>2023-07-08T13:16:55Z</time>
      </trkpt>
      <trkpt lat="45.51504" lon="4.72221">
        <ele>400.8</ele>
        <time>2023-07-08T13:17:08Z</time>
      </trkpt>
      <trkpt lat="45.51478" lon="4.72258">
        <ele>400</ele>
        <time>2023-07-08T13:17:15Z</time>
      </trkpt>
      <trkpt lat="45.51474" lon="4.72264">
        <ele>399.8</ele>
        <time>2023-07-08T13:17:16Z</time>
      </trkpt>
      <trkpt lat="45.5147" lon="4.7227">
        <ele>399.6</ele>
        <time>2023-07-08T13:17:17Z</time>
      </trkpt>
      <trkpt lat="45.51466" lon="4.72277">
        <ele>399.2</ele>
        <time>2023-07-08T13:17:18Z</time>
      </trkpt>
      <trkpt lat="45.51461" lon="4.72283">
        <ele>398.8</ele>
        <time>2023-07-08T13:17:19Z</time>
      </trkpt>
      <trkpt lat="45.51422" lon="4.72339">
        <ele>395.6</ele>
        <time>2023-07-08T13:17:27Z</time>
      </trkpt>
      <trkpt lat="45.51364" lon="4.72419">
        <ele>392.2</ele>
        <time>2023-07-08T13:17:37Z</time>
      </trkpt>
      <trkpt lat="45.51337" lon="4.72452">
        <ele>389</ele>
        <time>2023-07-08T13:17:41Z</time>
      </trkpt>
      <trkpt lat="45.51294" lon="4.72497">
        <ele>386.2</ele>
        <time>2023-07-08T13:17:47Z</time>
      </trkpt>
      <trkpt lat="45.51256" lon="4.72546">
        <ele>383</ele>
        <time>2023-07-08T13:17:53Z</time>
      </trkpt>
      <trkpt lat="45.51224" lon="4.72601">
        <ele>381</ele>
        <time>2023-07-08T13:17:59Z</time>
      </trkpt>
      <trkpt lat="45.51155" lon="4.7274">
        <ele>378.4</ele>
        <time>2023-07-08T13:18:16Z</time>
      </trkpt>
      <trkpt lat="45.51085" lon="4.7287">
        <ele>375.4</ele>
        <time>2023-07-08T13:18:35Z</time>
      </trkpt>
      <trkpt lat="45.50994" lon="4.72961">
        <ele>373</ele>
        <time>2023-07-08T13:18:52Z</time>
      </trkpt>
      <trkpt lat="45.5096" lon="4.72998">
        <ele>371</ele>
        <time>2023-07-08T13:18:58Z</time>
      </trkpt>
      <trkpt lat="45.50895" lon="4.73074">
        <ele>367.6</ele>
        <time>2023-07-08T13:19:09Z</time>
      </trkpt>
      <trkpt lat="45.50889" lon="4.73082">
        <ele>367.4</ele>
        <time>2023-07-08T13:19:10Z</time>
      </trkpt>
      <trkpt lat="45.50856" lon="4.73126">
        <ele>365.6</ele>
        <time>2023-07-08T13:19:16Z</time>
      </trkpt>
      <trkpt lat="45.50852" lon="4.73135">
        <ele>365.4</ele>
        <time>2023-07-08T13:19:17Z</time>
      </trkpt>
      <trkpt lat="45.50848" lon="4.73143">
        <ele>365.2</ele>
        <time>2023-07-08T13:19:18Z</time>
      </trkpt>
      <trkpt lat="45.50844" lon="4.73152">
        <ele>364.8</ele>
        <time>2023-07-08T13:19:19Z</time>
      </trkpt>
      <trkpt lat="45.50841" lon="4.73162">
        <ele>364.2</ele>
        <time>2023-07-08T13:19:20Z</time>
      </trkpt>
      <trkpt lat="45.50834" lon="4.73181">
        <ele>363.6</ele>
        <time>2023-07-08T13:19:22Z</time>
      </trkpt>
      <trkpt lat="45.50826" lon="4.73199">
        <ele>363.2</ele>
        <time>2023-07-08T13:19:24Z</time>
      </trkpt>
      <trkpt lat="45.5082" lon="4.73207">
        <ele>363.2</ele>
        <time>2023-07-08T13:19:25Z</time>
      </trkpt>
      <trkpt lat="45.50815" lon="4.73213">
        <ele>363</ele>
        <time>2023-07-08T13:19:26Z</time>
      </trkpt>
      <trkpt lat="45.50809" lon="4.73218">
        <ele>362.8</ele>
        <time>2023-07-08T13:19:27Z</time>
      </trkpt>
      <trkpt lat="45.50802" lon="4.73222">
        <ele>362.8</ele>
        <time>2023-07-08T13:19:28Z</time>
      </trkpt>
      <trkpt lat="45.50796" lon="4.73224">
        <ele>362.6</ele>
        <time>2023-07-08T13:19:29Z</time>
      </trkpt>
      <trkpt lat="45.5079" lon="4.73226">
        <ele>362.6</ele>
        <time>2023-07-08T13:19:30Z</time>
      </trkpt>
      <trkpt lat="45.50721" lon="4.73267">
        <ele>361.4</ele>
        <time>2023-07-08T13:19:41Z</time>
      </trkpt>
      <trkpt lat="45.50658" lon="4.73336">
        <ele>358.2</ele>
        <time>2023-07-08T13:19:51Z</time>
      </trkpt>
      <trkpt lat="45.50572" lon="4.7343">
        <ele>355</ele>
        <time>2023-07-08T13:20:04Z</time>
      </trkpt>
      <trkpt lat="45.50522" lon="4.735">
        <ele>351.2</ele>
        <time>2023-07-08T13:20:13Z</time>
      </trkpt>
      <trkpt lat="45.50468" lon="4.73599">
        <ele>348.2</ele>
        <time>2023-07-08T13:20:24Z</time>
      </trkpt>
      <trkpt lat="45.50441" lon="4.73636">
        <ele>347.2</ele>
        <time>2023-07-08T13:20:29Z</time>
      </trkpt>
      <trkpt lat="45.50434" lon="4.73641">
        <ele>347.2</ele>
        <time>2023-07-08T13:20:30Z</time>
      </trkpt>
      <trkpt lat="45.50358" lon="4.73699">
        <ele>343.4</ele>
        <time>2023-07-08T13:20:42Z</time>
      </trkpt>
      <trkpt lat="45.50312" lon="4.73742">
        <ele>341.6</ele>
        <time>2023-07-08T13:20:50Z</time>
      </trkpt>
      <trkpt lat="45.50306" lon="4.73748">
        <ele>341.4</ele>
        <time>2023-07-08T13:20:51Z</time>
      </trkpt>
      <trkpt lat="45.50275" lon="4.73786">
        <ele>340.6</ele>
        <time>2023-07-08T13:20:57Z</time>
      </trkpt>
      <trkpt lat="45.50236" lon="4.73872">
        <ele>338.4</ele>
        <time>2023-07-08T13:21:07Z</time>
      </trkpt>
      <trkpt lat="45.50231" lon="4.73881">
        <ele>338.2</ele>
        <time>2023-07-08T13:21:08Z</time>
      </trkpt>
      <trkpt lat="45.50226" lon="4.73889">
        <ele>338.2</ele>
        <time>2023-07-08T13:21:09Z</time>
      </trkpt>
      <trkpt lat="45.50149" lon="4.73998">
        <ele>335.6</ele>
        <time>2023-07-08T13:21:24Z</time>
      </trkpt>
      <trkpt lat="45.50111" lon="4.74113">
        <ele>334.4</ele>
        <time>2023-07-08T13:21:35Z</time>
      </trkpt>
      <trkpt lat="45.50097" lon="4.74204">
        <ele>331</ele>
        <time>2023-07-08T13:21:42Z</time>
      </trkpt>
      <trkpt lat="45.50091" lon="4.74257">
        <ele>327.8</ele>
        <time>2023-07-08T13:21:46Z</time>
      </trkpt>
      <trkpt lat="45.50089" lon="4.74282">
        <ele>327</ele>
        <time>2023-07-08T13:21:48Z</time>
      </trkpt>
      <trkpt lat="45.50089" lon="4.74294">
        <ele>327</ele>
        <time>2023-07-08T13:21:49Z</time>
      </trkpt>
      <trkpt lat="45.5009" lon="4.74306">
        <ele>326.8</ele>
        <time>2023-07-08T13:21:50Z</time>
      </trkpt>
      <trkpt lat="45.50091" lon="4.74317">
        <ele>326.6</ele>
        <time>2023-07-08T13:21:51Z</time>
      </trkpt>
      <trkpt lat="45.50093" lon="4.74329">
        <ele>326.2</ele>
        <time>2023-07-08T13:21:52Z</time>
      </trkpt>
      <trkpt lat="45.50095" lon="4.7434">
        <ele>326</ele>
        <time>2023-07-08T13:21:53Z</time>
      </trkpt>
      <trkpt lat="45.501" lon="4.74372">
        <ele>325.6</ele>
        <time>2023-07-08T13:21:56Z</time>
      </trkpt>
      <trkpt lat="45.501" lon="4.74383">
        <ele>325.6</ele>
        <time>2023-07-08T13:21:57Z</time>
      </trkpt>
      <trkpt lat="45.50099" lon="4.74394">
        <ele>325.4</ele>
        <time>2023-07-08T13:21:58Z</time>
      </trkpt>
      <trkpt lat="45.50099" lon="4.74404">
        <ele>325.4</ele>
        <time>2023-07-08T13:21:59Z</time>
      </trkpt>
      <trkpt lat="45.50098" lon="4.74414">
        <ele>325.2</ele>
        <time>2023-07-08T13:22:00Z</time>
      </trkpt>
      <trkpt lat="45.50102" lon="4.74536">
        <ele>323.2</ele>
        <time>2023-07-08T13:22:13Z</time>
      </trkpt>
      <trkpt lat="45.50101" lon="4.74562">
        <ele>323</ele>
        <time>2023-07-08T13:22:16Z</time>
      </trkpt>
      <trkpt lat="45.501" lon="4.74571">
        <ele>323</ele>
        <time>2023-07-08T13:22:17Z</time>
      </trkpt>
      <trkpt lat="45.50097" lon="4.7459">
        <ele>323</ele>
        <time>2023-07-08T13:22:19Z</time>
      </trkpt>
      <trkpt lat="45.50096" lon="4.74599">
        <ele>323</ele>
        <time>2023-07-08T13:22:20Z</time>
      </trkpt>
      <trkpt lat="45.50086" lon="4.74629">
        <ele>322.2</ele>
        <time>2023-07-08T13:22:24Z</time>
      </trkpt>
      <trkpt lat="45.50083" lon="4.74638">
        <ele>322</ele>
        <time>2023-07-08T13:22:25Z</time>
      </trkpt>
      <trkpt lat="45.50027" lon="4.74747">
        <ele>320.4</ele>
        <time>2023-07-08T13:22:38Z</time>
      </trkpt>
      <trkpt lat="45.49977" lon="4.74812">
        <ele>317.2</ele>
        <time>2023-07-08T13:22:46Z</time>
      </trkpt>
      <trkpt lat="45.49934" lon="4.74864">
        <ele>314</ele>
        <time>2023-07-08T13:22:53Z</time>
      </trkpt>
      <trkpt lat="45.49884" lon="4.74959">
        <ele>313</ele>
        <time>2023-07-08T13:23:05Z</time>
      </trkpt>
      <trkpt lat="45.49871" lon="4.7501">
        <ele>313.2</ele>
        <time>2023-07-08T13:23:11Z</time>
      </trkpt>
      <trkpt lat="45.49836" lon="4.75087">
        <ele>313.4</ele>
        <time>2023-07-08T13:23:21Z</time>
      </trkpt>
      <trkpt lat="45.49833" lon="4.75094">
        <ele>313.2</ele>
        <time>2023-07-08T13:23:22Z</time>
      </trkpt>
      <trkpt lat="45.49781" lon="4.75208">
        <ele>311.4</ele>
        <time>2023-07-08T13:23:39Z</time>
      </trkpt>
      <trkpt lat="45.49779" lon="4.75213">
        <ele>311.2</ele>
        <time>2023-07-08T13:23:40Z</time>
      </trkpt>
      <trkpt lat="45.4977" lon="4.75229">
        <ele>311</ele>
        <time>2023-07-08T13:23:43Z</time>
      </trkpt>
      <trkpt lat="45.49751" lon="4.75246">
        <ele>310.6</ele>
        <time>2023-07-08T13:23:48Z</time>
      </trkpt>
      <trkpt lat="45.49676" lon="4.75305">
        <ele>308.4</ele>
        <time>2023-07-08T13:24:03Z</time>
      </trkpt>
      <trkpt lat="45.49588" lon="4.75362">
        <ele>306.6</ele>
        <time>2023-07-08T13:24:17Z</time>
      </trkpt>
      <trkpt lat="45.4953" lon="4.75395">
        <ele>305.6</ele>
        <time>2023-07-08T13:24:28Z</time>
      </trkpt>
      <trkpt lat="45.49523" lon="4.75396">
        <ele>305.6</ele>
        <time>2023-07-08T13:24:29Z</time>
      </trkpt>
      <trkpt lat="45.49441" lon="4.75406">
        <ele>305.8</ele>
        <time>2023-07-08T13:24:44Z</time>
      </trkpt>
      <trkpt lat="45.49389" lon="4.75411">
        <ele>306.4</ele>
        <time>2023-07-08T13:24:55Z</time>
      </trkpt>
      <trkpt lat="45.49385" lon="4.75413">
        <ele>306.6</ele>
        <time>2023-07-08T13:24:56Z</time>
      </trkpt>
      <trkpt lat="45.4935" lon="4.75437">
        <ele>306.8</ele>
        <time>2023-07-08T13:25:04Z</time>
      </trkpt>
      <trkpt lat="45.49342" lon="4.75445">
        <ele>306.8</ele>
        <time>2023-07-08T13:25:06Z</time>
      </trkpt>
      <trkpt lat="45.49308" lon="4.75469">
        <ele>307.6</ele>
        <time>2023-07-08T13:25:15Z</time>
      </trkpt>
      <trkpt lat="45.49304" lon="4.75471">
        <ele>307.8</ele>
        <time>2023-07-08T13:25:16Z</time>
      </trkpt>
      <trkpt lat="45.49254" lon="4.75488">
        <ele>309</ele>
        <time>2023-07-08T13:25:28Z</time>
      </trkpt>
      <trkpt lat="45.4925" lon="4.7549">
        <ele>309</ele>
        <time>2023-07-08T13:25:29Z</time>
      </trkpt>
      <trkpt lat="45.49247" lon="4.75493">
        <ele>309</ele>
        <time>2023-07-08T13:25:30Z</time>
      </trkpt>
      <trkpt lat="45.49212" lon="4.7553">
        <ele>310.2</ele>
        <time>2023-07-08T13:25:44Z</time>
      </trkpt>
      <trkpt lat="45.49178" lon="4.7557">
        <ele>312.2</ele>
        <time>2023-07-08T13:25:57Z</time>
      </trkpt>
      <trkpt lat="45.49136" lon="4.75583">
        <ele>314.4</ele>
        <time>2023-07-08T13:26:11Z</time>
      </trkpt>
      <trkpt lat="45.49122" lon="4.75589">
        <ele>315.4</ele>
        <time>2023-07-08T13:26:17Z</time>
      </trkpt>
      <trkpt lat="45.4912" lon="4.75591">
        <ele>315.6</ele>
        <time>2023-07-08T13:26:18Z</time>
      </trkpt>
      <trkpt lat="45.49118" lon="4.75592">
        <ele>315.8</ele>
        <time>2023-07-08T13:26:19Z</time>
      </trkpt>
      <trkpt lat="45.49116" lon="4.75593">
        <ele>315.8</ele>
        <time>2023-07-08T13:26:20Z</time>
      </trkpt>
      <trkpt lat="45.49114" lon="4.75595">
        <ele>316</ele>
        <time>2023-07-08T13:26:21Z</time>
      </trkpt>
      <trkpt lat="45.49093" lon="4.75629">
        <ele>317.4</ele>
        <time>2023-07-08T13:26:33Z</time>
      </trkpt>
      <trkpt lat="45.49091" lon="4.75631">
        <ele>317.6</ele>
        <time>2023-07-08T13:26:34Z</time>
      </trkpt>
      <trkpt lat="45.4909" lon="4.75634">
        <ele>317.6</ele>
        <time>2023-07-08T13:26:35Z</time>
      </trkpt>
      <trkpt lat="45.49088" lon="4.75637">
        <ele>317.6</ele>
        <time>2023-07-08T13:26:36Z</time>
      </trkpt>
      <trkpt lat="45.49087" lon="4.7564">
        <ele>317.6</ele>
        <time>2023-07-08T13:26:37Z</time>
      </trkpt>
      <trkpt lat="45.49085" lon="4.75643">
        <ele>317.6</ele>
        <time>2023-07-08T13:26:38Z</time>
      </trkpt>
      <trkpt lat="45.49084" lon="4.75646">
        <ele>317.8</ele>
        <time>2023-07-08T13:26:39Z</time>
      </trkpt>
      <trkpt lat="45.49083" lon="4.75648">
        <ele>318</ele>
        <time>2023-07-08T13:26:40Z</time>
      </trkpt>
      <trkpt lat="45.49082" lon="4.75651">
        <ele>318.2</ele>
        <time>2023-07-08T13:26:41Z</time>
      </trkpt>
      <trkpt lat="45.4908" lon="4.75653">
        <ele>318.4</ele>
        <time>2023-07-08T13:26:42Z</time>
      </trkpt>
      <trkpt lat="45.49079" lon="4.75656">
        <ele>318.6</ele>
        <time>2023-07-08T13:26:43Z</time>
      </trkpt>
      <trkpt lat="45.49039" lon="4.75688">
        <ele>321.4</ele>
        <time>2023-07-08T13:27:01Z</time>
      </trkpt>
      <trkpt lat="45.49005" lon="4.75708">
        <ele>323.2</ele>
        <time>2023-07-08T13:27:16Z</time>
      </trkpt>
      <trkpt lat="45.48975" lon="4.75723">
        <ele>325</ele>
        <time>2023-07-08T13:27:29Z</time>
      </trkpt>
      <trkpt lat="45.48939" lon="4.7574">
        <ele>325.8</ele>
        <time>2023-07-08T13:27:44Z</time>
      </trkpt>
      <trkpt lat="45.48902" lon="4.75758">
        <ele>327.4</ele>
        <time>2023-07-08T13:27:58Z</time>
      </trkpt>
      <trkpt lat="45.48851" lon="4.75736">
        <ele>328.8</ele>
        <time>2023-07-08T13:28:15Z</time>
      </trkpt>
      <trkpt lat="45.48836" lon="4.75711">
        <ele>328.8</ele>
        <time>2023-07-08T13:28:20Z</time>
      </trkpt>
      <trkpt lat="45.48833" lon="4.75704">
        <ele>328.8</ele>
        <time>2023-07-08T13:28:21Z</time>
      </trkpt>
      <trkpt lat="45.48831" lon="4.75697">
        <ele>328.8</ele>
        <time>2023-07-08T13:28:22Z</time>
      </trkpt>
      <trkpt lat="45.48803" lon="4.75611">
        <ele>326.8</ele>
        <time>2023-07-08T13:28:32Z</time>
      </trkpt>
      <trkpt lat="45.48798" lon="4.75604">
        <ele>326.2</ele>
        <time>2023-07-08T13:28:33Z</time>
      </trkpt>
      <trkpt lat="45.48792" lon="4.75597">
        <ele>325.2</ele>
        <time>2023-07-08T13:28:34Z</time>
      </trkpt>
      <trkpt lat="45.48786" lon="4.75593">
        <ele>324.6</ele>
        <time>2023-07-08T13:28:35Z</time>
      </trkpt>
      <trkpt lat="45.48778" lon="4.75591">
        <ele>324.2</ele>
        <time>2023-07-08T13:28:36Z</time>
      </trkpt>
      <trkpt lat="45.48771" lon="4.75592">
        <ele>324</ele>
        <time>2023-07-08T13:28:37Z</time>
      </trkpt>
      <trkpt lat="45.48764" lon="4.75595">
        <ele>323.8</ele>
        <time>2023-07-08T13:28:38Z</time>
      </trkpt>
      <trkpt lat="45.48759" lon="4.756">
        <ele>323.6</ele>
        <time>2023-07-08T13:28:39Z</time>
      </trkpt>
      <trkpt lat="45.48754" lon="4.75606">
        <ele>323.6</ele>
        <time>2023-07-08T13:28:40Z</time>
      </trkpt>
      <trkpt lat="45.48751" lon="4.75612">
        <ele>323.6</ele>
        <time>2023-07-08T13:28:41Z</time>
      </trkpt>
      <trkpt lat="45.48748" lon="4.75618">
        <ele>323.6</ele>
        <time>2023-07-08T13:28:42Z</time>
      </trkpt>
      <trkpt lat="45.48746" lon="4.75625">
        <ele>323.4</ele>
        <time>2023-07-08T13:28:43Z</time>
      </trkpt>
      <trkpt lat="45.48745" lon="4.75631">
        <ele>323.4</ele>
        <time>2023-07-08T13:28:44Z</time>
      </trkpt>
      <trkpt lat="45.48744" lon="4.75637">
        <ele>323.4</ele>
        <time>2023-07-08T13:28:45Z</time>
      </trkpt>
      <trkpt lat="45.48743" lon="4.75644">
        <ele>323.6</ele>
        <time>2023-07-08T13:28:46Z</time>
      </trkpt>
      <trkpt lat="45.48737" lon="4.75724">
        <ele>326</ele>
        <time>2023-07-08T13:29:01Z</time>
      </trkpt>
      <trkpt lat="45.4872" lon="4.75795">
        <ele>327.2</ele>
        <time>2023-07-08T13:29:17Z</time>
      </trkpt>
      <trkpt lat="45.4867" lon="4.75833">
        <ele>329.2</ele>
        <time>2023-07-08T13:29:34Z</time>
      </trkpt>
      <trkpt lat="45.48633" lon="4.75808">
        <ele>331.8</ele>
        <time>2023-07-08T13:29:47Z</time>
      </trkpt>
      <trkpt lat="45.48584" lon="4.75769">
        <ele>333</ele>
        <time>2023-07-08T13:30:04Z</time>
      </trkpt>
      <trkpt lat="45.48536" lon="4.75764">
        <ele>333.4</ele>
        <time>2023-07-08T13:30:18Z</time>
      </trkpt>
      <trkpt lat="45.48523" lon="4.75769">
        <ele>333.4</ele>
        <time>2023-07-08T13:30:21Z</time>
      </trkpt>
      <trkpt lat="45.48431" lon="4.75826">
        <ele>331.6</ele>
        <time>2023-07-08T13:30:41Z</time>
      </trkpt>
      <trkpt lat="45.48364" lon="4.75864">
        <ele>328.6</ele>
        <time>2023-07-08T13:30:53Z</time>
      </trkpt>
      <trkpt lat="45.48295" lon="4.75902">
        <ele>327.8</ele>
        <time>2023-07-08T13:31:09Z</time>
      </trkpt>
      <trkpt lat="45.48244" lon="4.75931">
        <ele>329.6</ele>
        <time>2023-07-08T13:31:25Z</time>
      </trkpt>
      <trkpt lat="45.48182" lon="4.75946">
        <ele>331.4</ele>
        <time>2023-07-08T13:31:43Z</time>
      </trkpt>
      <trkpt lat="45.48128" lon="4.75922">
        <ele>332.4</ele>
        <time>2023-07-08T13:32:00Z</time>
      </trkpt>
      <trkpt lat="45.48084" lon="4.7591">
        <ele>332.6</ele>
        <time>2023-07-08T13:32:11Z</time>
      </trkpt>
      <trkpt lat="45.4808" lon="4.75911">
        <ele>332.6</ele>
        <time>2023-07-08T13:32:12Z</time>
      </trkpt>
      <trkpt lat="45.48025" lon="4.75933">
        <ele>333.2</ele>
        <time>2023-07-08T13:32:27Z</time>
      </trkpt>
      <trkpt lat="45.47976" lon="4.75955">
        <ele>333</ele>
        <time>2023-07-08T13:32:39Z</time>
      </trkpt>
      <trkpt lat="45.47972" lon="4.75957">
        <ele>332.8</ele>
        <time>2023-07-08T13:32:40Z</time>
      </trkpt>
      <trkpt lat="45.47914" lon="4.75982">
        <ele>332.4</ele>
        <time>2023-07-08T13:32:55Z</time>
      </trkpt>
      <trkpt lat="45.4786" lon="4.75992">
        <ele>332.8</ele>
        <time>2023-07-08T13:33:10Z</time>
      </trkpt>
      <trkpt lat="45.47798" lon="4.76001">
        <ele>330.8</ele>
        <time>2023-07-08T13:33:23Z</time>
      </trkpt>
      <trkpt lat="45.47765" lon="4.76004">
        <ele>329.8</ele>
        <time>2023-07-08T13:33:29Z</time>
      </trkpt>
      <trkpt lat="45.47759" lon="4.76002">
        <ele>329.6</ele>
        <time>2023-07-08T13:33:30Z</time>
      </trkpt>
      <trkpt lat="45.4775" lon="4.75997">
        <ele>329</ele>
        <time>2023-07-08T13:33:32Z</time>
      </trkpt>
      <trkpt lat="45.47745" lon="4.75997">
        <ele>329</ele>
        <time>2023-07-08T13:33:33Z</time>
      </trkpt>
      <trkpt lat="45.47741" lon="4.75999">
        <ele>328.6</ele>
        <time>2023-07-08T13:33:34Z</time>
      </trkpt>
      <trkpt lat="45.47737" lon="4.76004">
        <ele>328.2</ele>
        <time>2023-07-08T13:33:35Z</time>
      </trkpt>
      <trkpt lat="45.47734" lon="4.7601">
        <ele>327.8</ele>
        <time>2023-07-08T13:33:36Z</time>
      </trkpt>
      <trkpt lat="45.47731" lon="4.76017">
        <ele>327.6</ele>
        <time>2023-07-08T13:33:37Z</time>
      </trkpt>
      <trkpt lat="45.47728" lon="4.76024">
        <ele>327.4</ele>
        <time>2023-07-08T13:33:38Z</time>
      </trkpt>
      <trkpt lat="45.47725" lon="4.7603">
        <ele>327.2</ele>
        <time>2023-07-08T13:33:39Z</time>
      </trkpt>
      <trkpt lat="45.47664" lon="4.76133">
        <ele>325.6</ele>
        <time>2023-07-08T13:33:55Z</time>
      </trkpt>
      <trkpt lat="45.47644" lon="4.7616">
        <ele>325.4</ele>
        <time>2023-07-08T13:34:00Z</time>
      </trkpt>
      <trkpt lat="45.47586" lon="4.7622">
        <ele>326</ele>
        <time>2023-07-08T13:34:15Z</time>
      </trkpt>
      <trkpt lat="45.47528" lon="4.76259">
        <ele>326.2</ele>
        <time>2023-07-08T13:34:29Z</time>
      </trkpt>
      <trkpt lat="45.4744" lon="4.76319">
        <ele>323.6</ele>
        <time>2023-07-08T13:34:46Z</time>
      </trkpt>
      <trkpt lat="45.47368" lon="4.76351">
        <ele>319</ele>
        <time>2023-07-08T13:34:57Z</time>
      </trkpt>
      <trkpt lat="45.47304" lon="4.7637">
        <ele>316</ele>
        <time>2023-07-08T13:35:07Z</time>
      </trkpt>
      <trkpt lat="45.47221" lon="4.7642">
        <ele>314.2</ele>
        <time>2023-07-08T13:35:21Z</time>
      </trkpt>
      <trkpt lat="45.47152" lon="4.76473">
        <ele>311</ele>
        <time>2023-07-08T13:35:31Z</time>
      </trkpt>
      <trkpt lat="45.47116" lon="4.76507">
        <ele>309.8</ele>
        <time>2023-07-08T13:35:36Z</time>
      </trkpt>
      <trkpt lat="45.4711" lon="4.76516">
        <ele>309.4</ele>
        <time>2023-07-08T13:35:37Z</time>
      </trkpt>
      <trkpt lat="45.47104" lon="4.76526">
        <ele>309</ele>
        <time>2023-07-08T13:35:38Z</time>
      </trkpt>
      <trkpt lat="45.471" lon="4.76538">
        <ele>308.6</ele>
        <time>2023-07-08T13:35:39Z</time>
      </trkpt>
      <trkpt lat="45.47098" lon="4.76551">
        <ele>308.2</ele>
        <time>2023-07-08T13:35:40Z</time>
      </trkpt>
      <trkpt lat="45.47096" lon="4.76565">
        <ele>308</ele>
        <time>2023-07-08T13:35:41Z</time>
      </trkpt>
      <trkpt lat="45.47083" lon="4.76638">
        <ele>305</ele>
        <time>2023-07-08T13:35:46Z</time>
      </trkpt>
      <trkpt lat="45.47076" lon="4.76669">
        <ele>303.6</ele>
        <time>2023-07-08T13:35:48Z</time>
      </trkpt>
      <trkpt lat="45.4707" lon="4.76683">
        <ele>303.2</ele>
        <time>2023-07-08T13:35:49Z</time>
      </trkpt>
      <trkpt lat="45.47063" lon="4.76696">
        <ele>302.8</ele>
        <time>2023-07-08T13:35:50Z</time>
      </trkpt>
      <trkpt lat="45.47055" lon="4.76708">
        <ele>302.4</ele>
        <time>2023-07-08T13:35:51Z</time>
      </trkpt>
      <trkpt lat="45.47046" lon="4.76719">
        <ele>301.6</ele>
        <time>2023-07-08T13:35:52Z</time>
      </trkpt>
      <trkpt lat="45.47018" lon="4.76752">
        <ele>298.2</ele>
        <time>2023-07-08T13:35:56Z</time>
      </trkpt>
      <trkpt lat="45.47014" lon="4.76757">
        <ele>297.2</ele>
        <time>2023-07-08T13:35:57Z</time>
      </trkpt>
      <trkpt lat="45.47005" lon="4.76763">
        <ele>294.6</ele>
        <time>2023-07-08T13:36:05Z</time>
      </trkpt>
      <trkpt lat="45.47007" lon="4.76775">
        <ele>295.4</ele>
        <time>2023-07-08T13:37:12Z</time>
      </trkpt>
      <trkpt lat="45.47008" lon="4.76779">
        <ele>295.4</ele>
        <time>2023-07-08T13:37:13Z</time>
      </trkpt>
      <trkpt lat="45.47012" lon="4.76794">
        <ele>295.2</ele>
        <time>2023-07-08T13:37:16Z</time>
      </trkpt>
      <trkpt lat="45.47014" lon="4.768">
        <ele>295.2</ele>
        <time>2023-07-08T13:37:17Z</time>
      </trkpt>
      <trkpt lat="45.47018" lon="4.76805">
        <ele>295.2</ele>
        <time>2023-07-08T13:37:18Z</time>
      </trkpt>
      <trkpt lat="45.47022" lon="4.76811">
        <ele>295.2</ele>
        <time>2023-07-08T13:37:19Z</time>
      </trkpt>
      <trkpt lat="45.47027" lon="4.76816">
        <ele>295</ele>
        <time>2023-07-08T13:37:20Z</time>
      </trkpt>
      <trkpt lat="45.47033" lon="4.7682">
        <ele>295</ele>
        <time>2023-07-08T13:37:21Z</time>
      </trkpt>
      <trkpt lat="45.47093" lon="4.76866">
        <ele>292.2</ele>
        <time>2023-07-08T13:37:29Z</time>
      </trkpt>
      <trkpt lat="45.47109" lon="4.76883">
        <ele>291</ele>
        <time>2023-07-08T13:37:31Z</time>
      </trkpt>
      <trkpt lat="45.47118" lon="4.76891">
        <ele>290.2</ele>
        <time>2023-07-08T13:37:32Z</time>
      </trkpt>
      <trkpt lat="45.47129" lon="4.76896">
        <ele>289.4</ele>
        <time>2023-07-08T13:37:33Z</time>
      </trkpt>
      <trkpt lat="45.47139" lon="4.76898">
        <ele>288.8</ele>
        <time>2023-07-08T13:37:34Z</time>
      </trkpt>
      <trkpt lat="45.47151" lon="4.769">
        <ele>288.4</ele>
        <time>2023-07-08T13:37:35Z</time>
      </trkpt>
      <trkpt lat="45.47162" lon="4.76904">
        <ele>287.4</ele>
        <time>2023-07-08T13:37:36Z</time>
      </trkpt>
      <trkpt lat="45.47173" lon="4.76911">
        <ele>286.6</ele>
        <time>2023-07-08T13:37:37Z</time>
      </trkpt>
      <trkpt lat="45.47183" lon="4.76922">
        <ele>285.8</ele>
        <time>2023-07-08T13:37:38Z</time>
      </trkpt>
      <trkpt lat="45.47194" lon="4.76932">
        <ele>284.8</ele>
        <time>2023-07-08T13:37:39Z</time>
      </trkpt>
      <trkpt lat="45.47205" lon="4.76939">
        <ele>283.8</ele>
        <time>2023-07-08T13:37:40Z</time>
      </trkpt>
      <trkpt lat="45.47217" lon="4.76944">
        <ele>283</ele>
        <time>2023-07-08T13:37:41Z</time>
      </trkpt>
      <trkpt lat="45.47229" lon="4.76949">
        <ele>282.4</ele>
        <time>2023-07-08T13:37:42Z</time>
      </trkpt>
      <trkpt lat="45.47241" lon="4.76956">
        <ele>281.6</ele>
        <time>2023-07-08T13:37:43Z</time>
      </trkpt>
      <trkpt lat="45.47253" lon="4.76964">
        <ele>280.6</ele>
        <time>2023-07-08T13:37:44Z</time>
      </trkpt>
      <trkpt lat="45.47264" lon="4.76972">
        <ele>279.6</ele>
        <time>2023-07-08T13:37:45Z</time>
      </trkpt>
      <trkpt lat="45.47276" lon="4.76977">
        <ele>278.6</ele>
        <time>2023-07-08T13:37:46Z</time>
      </trkpt>
      <trkpt lat="45.47288" lon="4.76979">
        <ele>277.8</ele>
        <time>2023-07-08T13:37:47Z</time>
      </trkpt>
      <trkpt lat="45.473" lon="4.76977">
        <ele>276.8</ele>
        <time>2023-07-08T13:37:48Z</time>
      </trkpt>
      <trkpt lat="45.4731" lon="4.76973">
        <ele>274.8</ele>
        <time>2023-07-08T13:37:49Z</time>
      </trkpt>
      <trkpt lat="45.47318" lon="4.76967">
        <ele>273.6</ele>
        <time>2023-07-08T13:37:50Z</time>
      </trkpt>
      <trkpt lat="45.47325" lon="4.76961">
        <ele>272.4</ele>
        <time>2023-07-08T13:37:51Z</time>
      </trkpt>
      <trkpt lat="45.47336" lon="4.7695">
        <ele>270.6</ele>
        <time>2023-07-08T13:37:53Z</time>
      </trkpt>
      <trkpt lat="45.47341" lon="4.76948">
        <ele>269.8</ele>
        <time>2023-07-08T13:37:54Z</time>
      </trkpt>
      <trkpt lat="45.47346" lon="4.76951">
        <ele>269.4</ele>
        <time>2023-07-08T13:37:55Z</time>
      </trkpt>
      <trkpt lat="45.4735" lon="4.76957">
        <ele>269</ele>
        <time>2023-07-08T13:37:56Z</time>
      </trkpt>
      <trkpt lat="45.47351" lon="4.76966">
        <ele>268.8</ele>
        <time>2023-07-08T13:37:57Z</time>
      </trkpt>
      <trkpt lat="45.47352" lon="4.76976">
        <ele>268.8</ele>
        <time>2023-07-08T13:37:58Z</time>
      </trkpt>
      <trkpt lat="45.47351" lon="4.76987">
        <ele>268.6</ele>
        <time>2023-07-08T13:37:59Z</time>
      </trkpt>
      <trkpt lat="45.4735" lon="4.76999">
        <ele>268.6</ele>
        <time>2023-07-08T13:38:00Z</time>
      </trkpt>
      <trkpt lat="45.47348" lon="4.77011">
        <ele>268.4</ele>
        <time>2023-07-08T13:38:01Z</time>
      </trkpt>
      <trkpt lat="45.47341" lon="4.77079">
        <ele>266</ele>
        <time>2023-07-08T13:38:06Z</time>
      </trkpt>
      <trkpt lat="45.47342" lon="4.77092">
        <ele>265.2</ele>
        <time>2023-07-08T13:38:07Z</time>
      </trkpt>
      <trkpt lat="45.47347" lon="4.77104">
        <ele>264.4</ele>
        <time>2023-07-08T13:38:08Z</time>
      </trkpt>
      <trkpt lat="45.47354" lon="4.77113">
        <ele>263.4</ele>
        <time>2023-07-08T13:38:09Z</time>
      </trkpt>
      <trkpt lat="45.47362" lon="4.77118">
        <ele>262.2</ele>
        <time>2023-07-08T13:38:10Z</time>
      </trkpt>
      <trkpt lat="45.47371" lon="4.77119">
        <ele>261.4</ele>
        <time>2023-07-08T13:38:11Z</time>
      </trkpt>
      <trkpt lat="45.47379" lon="4.77117">
        <ele>260.6</ele>
        <time>2023-07-08T13:38:12Z</time>
      </trkpt>
      <trkpt lat="45.47386" lon="4.77115">
        <ele>258.6</ele>
        <time>2023-07-08T13:38:13Z</time>
      </trkpt>
      <trkpt lat="45.47393" lon="4.77115">
        <ele>257.6</ele>
        <time>2023-07-08T13:38:14Z</time>
      </trkpt>
      <trkpt lat="45.47398" lon="4.77119">
        <ele>256.8</ele>
        <time>2023-07-08T13:38:15Z</time>
      </trkpt>
      <trkpt lat="45.474" lon="4.77125">
        <ele>256</ele>
        <time>2023-07-08T13:38:16Z</time>
      </trkpt>
      <trkpt lat="45.47398" lon="4.77131">
        <ele>255.4</ele>
        <time>2023-07-08T13:38:17Z</time>
      </trkpt>
      <trkpt lat="45.47393" lon="4.77134">
        <ele>254.8</ele>
        <time>2023-07-08T13:38:18Z</time>
      </trkpt>
      <trkpt lat="45.47387" lon="4.77135">
        <ele>254.4</ele>
        <time>2023-07-08T13:38:19Z</time>
      </trkpt>
      <trkpt lat="45.4738" lon="4.77135">
        <ele>254</ele>
        <time>2023-07-08T13:38:20Z</time>
      </trkpt>
      <trkpt lat="45.47343" lon="4.77131">
        <ele>253</ele>
        <time>2023-07-08T13:38:25Z</time>
      </trkpt>
      <trkpt lat="45.47335" lon="4.77127">
        <ele>252.4</ele>
        <time>2023-07-08T13:38:26Z</time>
      </trkpt>
      <trkpt lat="45.47328" lon="4.7712">
        <ele>251.6</ele>
        <time>2023-07-08T13:38:27Z</time>
      </trkpt>
      <trkpt lat="45.47322" lon="4.7711">
        <ele>250.8</ele>
        <time>2023-07-08T13:38:28Z</time>
      </trkpt>
      <trkpt lat="45.47319" lon="4.77099">
        <ele>250.2</ele>
        <time>2023-07-08T13:38:29Z</time>
      </trkpt>
      <trkpt lat="45.47316" lon="4.77087">
        <ele>249.4</ele>
        <time>2023-07-08T13:38:30Z</time>
      </trkpt>
      <trkpt lat="45.47314" lon="4.77076">
        <ele>249</ele>
        <time>2023-07-08T13:38:31Z</time>
      </trkpt>
      <trkpt lat="45.4731" lon="4.77068">
        <ele>248.6</ele>
        <time>2023-07-08T13:38:32Z</time>
      </trkpt>
      <trkpt lat="45.47305" lon="4.77063">
        <ele>248</ele>
        <time>2023-07-08T13:38:33Z</time>
      </trkpt>
      <trkpt lat="45.47299" lon="4.77063">
        <ele>247.4</ele>
        <time>2023-07-08T13:38:34Z</time>
      </trkpt>
      <trkpt lat="45.47294" lon="4.77069">
        <ele>246.8</ele>
        <time>2023-07-08T13:38:35Z</time>
      </trkpt>
      <trkpt lat="45.4729" lon="4.77078">
        <ele>246.2</ele>
        <time>2023-07-08T13:38:36Z</time>
      </trkpt>
      <trkpt lat="45.47286" lon="4.77088">
        <ele>245.2</ele>
        <time>2023-07-08T13:38:37Z</time>
      </trkpt>
      <trkpt lat="45.47266" lon="4.77173">
        <ele>242.6</ele>
        <time>2023-07-08T13:38:44Z</time>
      </trkpt>
      <trkpt lat="45.47261" lon="4.77183">
        <ele>242</ele>
        <time>2023-07-08T13:38:45Z</time>
      </trkpt>
      <trkpt lat="45.47254" lon="4.77191">
        <ele>241.2</ele>
        <time>2023-07-08T13:38:46Z</time>
      </trkpt>
      <trkpt lat="45.47246" lon="4.77196">
        <ele>240.6</ele>
        <time>2023-07-08T13:38:47Z</time>
      </trkpt>
      <trkpt lat="45.47238" lon="4.772">
        <ele>239.8</ele>
        <time>2023-07-08T13:38:48Z</time>
      </trkpt>
      <trkpt lat="45.4723" lon="4.77204">
        <ele>238.4</ele>
        <time>2023-07-08T13:38:49Z</time>
      </trkpt>
      <trkpt lat="45.4722" lon="4.77205">
        <ele>237.2</ele>
        <time>2023-07-08T13:38:50Z</time>
      </trkpt>
      <trkpt lat="45.47211" lon="4.77204">
        <ele>236.2</ele>
        <time>2023-07-08T13:38:51Z</time>
      </trkpt>
      <trkpt lat="45.47201" lon="4.77201">
        <ele>235.6</ele>
        <time>2023-07-08T13:38:52Z</time>
      </trkpt>
      <trkpt lat="45.47191" lon="4.77198">
        <ele>234.8</ele>
        <time>2023-07-08T13:38:53Z</time>
      </trkpt>
      <trkpt lat="45.47151" lon="4.77181">
        <ele>231.8</ele>
        <time>2023-07-08T13:38:57Z</time>
      </trkpt>
      <trkpt lat="45.47133" lon="4.7717">
        <ele>230.2</ele>
        <time>2023-07-08T13:38:59Z</time>
      </trkpt>
      <trkpt lat="45.47125" lon="4.77162">
        <ele>229.4</ele>
        <time>2023-07-08T13:39:00Z</time>
      </trkpt>
      <trkpt lat="45.47119" lon="4.77152">
        <ele>228.4</ele>
        <time>2023-07-08T13:39:01Z</time>
      </trkpt>
      <trkpt lat="45.47115" lon="4.7714">
        <ele>226.6</ele>
        <time>2023-07-08T13:39:02Z</time>
      </trkpt>
      <trkpt lat="45.47113" lon="4.77128">
        <ele>225.6</ele>
        <time>2023-07-08T13:39:03Z</time>
      </trkpt>
      <trkpt lat="45.47112" lon="4.77116">
        <ele>225</ele>
        <time>2023-07-08T13:39:04Z</time>
      </trkpt>
      <trkpt lat="45.4711" lon="4.77104">
        <ele>224</ele>
        <time>2023-07-08T13:39:05Z</time>
      </trkpt>
      <trkpt lat="45.47104" lon="4.77095">
        <ele>223</ele>
        <time>2023-07-08T13:39:06Z</time>
      </trkpt>
      <trkpt lat="45.47097" lon="4.77091">
        <ele>222.4</ele>
        <time>2023-07-08T13:39:07Z</time>
      </trkpt>
      <trkpt lat="45.47088" lon="4.77091">
        <ele>222</ele>
        <time>2023-07-08T13:39:08Z</time>
      </trkpt>
      <trkpt lat="45.47079" lon="4.77095">
        <ele>221.6</ele>
        <time>2023-07-08T13:39:09Z</time>
      </trkpt>
      <trkpt lat="45.4707" lon="4.77101">
        <ele>221.2</ele>
        <time>2023-07-08T13:39:10Z</time>
      </trkpt>
      <trkpt lat="45.47062" lon="4.77108">
        <ele>220.8</ele>
        <time>2023-07-08T13:39:11Z</time>
      </trkpt>
      <trkpt lat="45.47055" lon="4.77117">
        <ele>220.6</ele>
        <time>2023-07-08T13:39:12Z</time>
      </trkpt>
      <trkpt lat="45.47049" lon="4.77125">
        <ele>220</ele>
        <time>2023-07-08T13:39:13Z</time>
      </trkpt>
      <trkpt lat="45.47043" lon="4.77133">
        <ele>219.6</ele>
        <time>2023-07-08T13:39:14Z</time>
      </trkpt>
      <trkpt lat="45.47036" lon="4.77138">
        <ele>219.4</ele>
        <time>2023-07-08T13:39:15Z</time>
      </trkpt>
      <trkpt lat="45.47027" lon="4.7714">
        <ele>219</ele>
        <time>2023-07-08T13:39:16Z</time>
      </trkpt>
      <trkpt lat="45.47019" lon="4.77138">
        <ele>218</ele>
        <time>2023-07-08T13:39:17Z</time>
      </trkpt>
      <trkpt lat="45.47011" lon="4.77133">
        <ele>217</ele>
        <time>2023-07-08T13:39:18Z</time>
      </trkpt>
      <trkpt lat="45.47004" lon="4.77125">
        <ele>216</ele>
        <time>2023-07-08T13:39:19Z</time>
      </trkpt>
      <trkpt lat="45.46997" lon="4.77116">
        <ele>214.8</ele>
        <time>2023-07-08T13:39:20Z</time>
      </trkpt>
      <trkpt lat="45.46992" lon="4.77105">
        <ele>214.2</ele>
        <time>2023-07-08T13:39:21Z</time>
      </trkpt>
      <trkpt lat="45.46989" lon="4.77093">
        <ele>213.8</ele>
        <time>2023-07-08T13:39:22Z</time>
      </trkpt>
      <trkpt lat="45.46985" lon="4.77082">
        <ele>213.6</ele>
        <time>2023-07-08T13:39:23Z</time>
      </trkpt>
      <trkpt lat="45.46979" lon="4.77074">
        <ele>213</ele>
        <time>2023-07-08T13:39:24Z</time>
      </trkpt>
      <trkpt lat="45.46972" lon="4.77071">
        <ele>212.4</ele>
        <time>2023-07-08T13:39:25Z</time>
      </trkpt>
      <trkpt lat="45.46963" lon="4.77072">
        <ele>211.6</ele>
        <time>2023-07-08T13:39:26Z</time>
      </trkpt>
      <trkpt lat="45.46954" lon="4.77076">
        <ele>210.8</ele>
        <time>2023-07-08T13:39:27Z</time>
      </trkpt>
      <trkpt lat="45.46945" lon="4.77082">
        <ele>210.2</ele>
        <time>2023-07-08T13:39:28Z</time>
      </trkpt>
      <trkpt lat="45.46936" lon="4.77088">
        <ele>209.6</ele>
        <time>2023-07-08T13:39:29Z</time>
      </trkpt>
      <trkpt lat="45.46927" lon="4.77093">
        <ele>208.8</ele>
        <time>2023-07-08T13:39:30Z</time>
      </trkpt>
      <trkpt lat="45.46918" lon="4.77095">
        <ele>208.4</ele>
        <time>2023-07-08T13:39:31Z</time>
      </trkpt>
      <trkpt lat="45.46908" lon="4.77094">
        <ele>208.2</ele>
        <time>2023-07-08T13:39:32Z</time>
      </trkpt>
      <trkpt lat="45.46899" lon="4.77091">
        <ele>208</ele>
        <time>2023-07-08T13:39:33Z</time>
      </trkpt>
      <trkpt lat="45.4689" lon="4.77085">
        <ele>207.2</ele>
        <time>2023-07-08T13:39:34Z</time>
      </trkpt>
      <trkpt lat="45.46881" lon="4.77078">
        <ele>206.2</ele>
        <time>2023-07-08T13:39:35Z</time>
      </trkpt>
      <trkpt lat="45.46872" lon="4.77073">
        <ele>204.8</ele>
        <time>2023-07-08T13:39:36Z</time>
      </trkpt>
      <trkpt lat="45.46861" lon="4.77069">
        <ele>203.2</ele>
        <time>2023-07-08T13:39:37Z</time>
      </trkpt>
      <trkpt lat="45.4685" lon="4.77069">
        <ele>201.8</ele>
        <time>2023-07-08T13:39:38Z</time>
      </trkpt>
      <trkpt lat="45.4684" lon="4.77072">
        <ele>201</ele>
        <time>2023-07-08T13:39:39Z</time>
      </trkpt>
      <trkpt lat="45.46829" lon="4.77076">
        <ele>200</ele>
        <time>2023-07-08T13:39:40Z</time>
      </trkpt>
      <trkpt lat="45.46808" lon="4.77083">
        <ele>198</ele>
        <time>2023-07-08T13:39:42Z</time>
      </trkpt>
      <trkpt lat="45.46797" lon="4.77082">
        <ele>197.2</ele>
        <time>2023-07-08T13:39:43Z</time>
      </trkpt>
      <trkpt lat="45.46787" lon="4.77079">
        <ele>196.4</ele>
        <time>2023-07-08T13:39:44Z</time>
      </trkpt>
      <trkpt lat="45.46726" lon="4.7704">
        <ele>193</ele>
        <time>2023-07-08T13:39:50Z</time>
      </trkpt>
      <trkpt lat="45.46686" lon="4.77004">
        <ele>189</ele>
        <time>2023-07-08T13:39:54Z</time>
      </trkpt>
      <trkpt lat="45.46659" lon="4.76973">
        <ele>185.6</ele>
        <time>2023-07-08T13:39:57Z</time>
      </trkpt>
      <trkpt lat="45.46635" lon="4.76944">
        <ele>183.6</ele>
        <time>2023-07-08T13:40:00Z</time>
      </trkpt>
      <trkpt lat="45.46629" lon="4.76932">
        <ele>182.4</ele>
        <time>2023-07-08T13:40:01Z</time>
      </trkpt>
      <trkpt lat="45.46624" lon="4.7692">
        <ele>181.8</ele>
        <time>2023-07-08T13:40:02Z</time>
      </trkpt>
      <trkpt lat="45.4662" lon="4.76907">
        <ele>181.4</ele>
        <time>2023-07-08T13:40:03Z</time>
      </trkpt>
      <trkpt lat="45.46618" lon="4.76892">
        <ele>180.8</ele>
        <time>2023-07-08T13:40:04Z</time>
      </trkpt>
      <trkpt lat="45.46617" lon="4.76878">
        <ele>180.6</ele>
        <time>2023-07-08T13:40:05Z</time>
      </trkpt>
      <trkpt lat="45.46618" lon="4.76863">
        <ele>180.2</ele>
        <time>2023-07-08T13:40:06Z</time>
      </trkpt>
      <trkpt lat="45.46618" lon="4.76847">
        <ele>179.6</ele>
        <time>2023-07-08T13:40:07Z</time>
      </trkpt>
      <trkpt lat="45.46617" lon="4.76833">
        <ele>178.8</ele>
        <time>2023-07-08T13:40:08Z</time>
      </trkpt>
      <trkpt lat="45.46612" lon="4.76819">
        <ele>178.4</ele>
        <time>2023-07-08T13:40:09Z</time>
      </trkpt>
      <trkpt lat="45.46606" lon="4.76809">
        <ele>178</ele>
        <time>2023-07-08T13:40:10Z</time>
      </trkpt>
      <trkpt lat="45.46597" lon="4.76802">
        <ele>177.4</ele>
        <time>2023-07-08T13:40:11Z</time>
      </trkpt>
      <trkpt lat="45.46588" lon="4.76798">
        <ele>177</ele>
        <time>2023-07-08T13:40:12Z</time>
      </trkpt>
      <trkpt lat="45.46578" lon="4.76795">
        <ele>176</ele>
        <time>2023-07-08T13:40:13Z</time>
      </trkpt>
      <trkpt lat="45.46569" lon="4.76793">
        <ele>175</ele>
        <time>2023-07-08T13:40:14Z</time>
      </trkpt>
      <trkpt lat="45.46541" lon="4.76788">
        <ele>171.6</ele>
        <time>2023-07-08T13:40:17Z</time>
      </trkpt>
      <trkpt lat="45.46513" lon="4.76781">
        <ele>170.6</ele>
        <time>2023-07-08T13:40:20Z</time>
      </trkpt>
      <trkpt lat="45.46504" lon="4.76777">
        <ele>170</ele>
        <time>2023-07-08T13:40:21Z</time>
      </trkpt>
      <trkpt lat="45.46495" lon="4.76771">
        <ele>169.2</ele>
        <time>2023-07-08T13:40:22Z</time>
      </trkpt>
      <trkpt lat="45.46486" lon="4.76764">
        <ele>168.4</ele>
        <time>2023-07-08T13:40:23Z</time>
      </trkpt>
      <trkpt lat="45.46479" lon="4.76757">
        <ele>167.8</ele>
        <time>2023-07-08T13:40:24Z</time>
      </trkpt>
      <trkpt lat="45.46472" lon="4.7675">
        <ele>167.6</ele>
        <time>2023-07-08T13:40:25Z</time>
      </trkpt>
      <trkpt lat="45.4646" lon="4.76741">
        <ele>166.4</ele>
        <time>2023-07-08T13:40:27Z</time>
      </trkpt>
      <trkpt lat="45.46445" lon="4.76732">
        <ele>164.6</ele>
        <time>2023-07-08T13:40:30Z</time>
      </trkpt>
      <trkpt lat="45.4641" lon="4.76723">
        <ele>164</ele>
        <time>2023-07-08T13:40:37Z</time>
      </trkpt>
      <trkpt lat="45.46405" lon="4.76725">
        <ele>164</ele>
        <time>2023-07-08T13:40:38Z</time>
      </trkpt>
      <trkpt lat="45.46399" lon="4.76729">
        <ele>164</ele>
        <time>2023-07-08T13:40:39Z</time>
      </trkpt>
      <trkpt lat="45.46393" lon="4.76736">
        <ele>164</ele>
        <time>2023-07-08T13:40:40Z</time>
      </trkpt>
      <trkpt lat="45.46389" lon="4.76744">
        <ele>163.6</ele>
        <time>2023-07-08T13:40:41Z</time>
      </trkpt>
      <trkpt lat="45.46384" lon="4.76753">
        <ele>163.2</ele>
        <time>2023-07-08T13:40:42Z</time>
      </trkpt>
      <trkpt lat="45.46353" lon="4.76819">
        <ele>160</ele>
        <time>2023-07-08T13:40:49Z</time>
      </trkpt>
      <trkpt lat="45.4635" lon="4.76829">
        <ele>159.4</ele>
        <time>2023-07-08T13:40:50Z</time>
      </trkpt>
      <trkpt lat="45.46349" lon="4.7684">
        <ele>159</ele>
        <time>2023-07-08T13:40:51Z</time>
      </trkpt>
      <trkpt lat="45.46349" lon="4.76851">
        <ele>158.6</ele>
        <time>2023-07-08T13:40:52Z</time>
      </trkpt>
      <trkpt lat="45.46349" lon="4.76861">
        <ele>158.2</ele>
        <time>2023-07-08T13:40:53Z</time>
      </trkpt>
      <trkpt lat="45.46348" lon="4.76871">
        <ele>157.8</ele>
        <time>2023-07-08T13:40:54Z</time>
      </trkpt>
      <trkpt lat="45.46345" lon="4.7688">
        <ele>157.2</ele>
        <time>2023-07-08T13:40:55Z</time>
      </trkpt>
      <trkpt lat="45.46341" lon="4.76888">
        <ele>156.6</ele>
        <time>2023-07-08T13:40:56Z</time>
      </trkpt>
      <trkpt lat="45.46321" lon="4.76929">
        <ele>154.8</ele>
        <time>2023-07-08T13:41:02Z</time>
      </trkpt>
      <trkpt lat="45.46319" lon="4.76934">
        <ele>154.6</ele>
        <time>2023-07-08T13:41:03Z</time>
      </trkpt>
      <trkpt lat="45.46317" lon="4.76938">
        <ele>154.6</ele>
        <time>2023-07-08T13:41:04Z</time>
      </trkpt>
      <trkpt lat="45.4631" lon="4.76962">
        <ele>154.4</ele>
        <time>2023-07-08T13:41:11Z</time>
      </trkpt>
      <trkpt lat="45.46312" lon="4.76966">
        <ele>154.4</ele>
        <time>2023-07-08T13:41:12Z</time>
      </trkpt>
      <trkpt lat="45.4636" lon="4.77019">
        <ele>154.6</ele>
        <time>2023-07-08T13:41:26Z</time>
      </trkpt>
      <trkpt lat="45.46427" lon="4.77086">
        <ele>154.8</ele>
        <time>2023-07-08T13:41:42Z</time>
      </trkpt>
      <trkpt lat="45.46442" lon="4.77101">
        <ele>154.8</ele>
        <time>2023-07-08T13:41:46Z</time>
      </trkpt>
      <trkpt lat="45.46445" lon="4.77104">
        <ele>154.8</ele>
        <time>2023-07-08T13:41:47Z</time>
      </trkpt>
      <trkpt lat="45.46447" lon="4.77109">
        <ele>154.8</ele>
        <time>2023-07-08T13:41:48Z</time>
      </trkpt>
      <trkpt lat="45.46447" lon="4.77114">
        <ele>154.8</ele>
        <time>2023-07-08T13:41:49Z</time>
      </trkpt>
      <trkpt lat="45.46446" lon="4.77118">
        <ele>154.8</ele>
        <time>2023-07-08T13:41:50Z</time>
      </trkpt>
      <trkpt lat="45.46445" lon="4.77122">
        <ele>154.8</ele>
        <time>2023-07-08T13:41:51Z</time>
      </trkpt>
      <trkpt lat="45.46413" lon="4.7716">
        <ele>154.6</ele>
        <time>2023-07-08T13:42:02Z</time>
      </trkpt>
      <trkpt lat="45.46378" lon="4.7719">
        <ele>153.6</ele>
        <time>2023-07-08T13:42:12Z</time>
      </trkpt>
      <trkpt lat="45.46374" lon="4.77192">
        <ele>153.6</ele>
        <time>2023-07-08T13:42:13Z</time>
      </trkpt>
      <trkpt lat="45.46371" lon="4.77196">
        <ele>153.6</ele>
        <time>2023-07-08T13:42:14Z</time>
      </trkpt>
      <trkpt lat="45.46367" lon="4.77201">
        <ele>153.6</ele>
        <time>2023-07-08T13:42:15Z</time>
      </trkpt>
      <trkpt lat="45.46333" lon="4.77251">
        <ele>153</ele>
        <time>2023-07-08T13:42:25Z</time>
      </trkpt>
      <trkpt lat="45.46286" lon="4.77329">
        <ele>153</ele>
        <time>2023-07-08T13:42:39Z</time>
      </trkpt>
      <trkpt lat="45.46236" lon="4.77409">
        <ele>152.6</ele>
        <time>2023-07-08T13:42:54Z</time>
      </trkpt>
      <trkpt lat="45.46222" lon="4.77431">
        <ele>152.6</ele>
        <time>2023-07-08T13:42:58Z</time>
      </trkpt>
      <trkpt lat="45.4619" lon="4.77482">
        <ele>152.8</ele>
        <time>2023-07-08T13:43:11Z</time>
      </trkpt>
      <trkpt lat="45.46166" lon="4.77525">
        <ele>153.4</ele>
        <time>2023-07-08T13:43:22Z</time>
      </trkpt>
      <trkpt lat="45.46144" lon="4.77561">
        <ele>153.2</ele>
        <time>2023-07-08T13:43:30Z</time>
      </trkpt>
      <trkpt lat="45.4613" lon="4.77582">
        <ele>153.4</ele>
        <time>2023-07-08T13:43:40Z</time>
      </trkpt>
      <trkpt lat="45.46129" lon="4.77582">
        <ele>153.6</ele>
        <time>2023-07-08T13:43:41Z</time>
      </trkpt>
      <trkpt lat="45.46129" lon="4.77583">
        <ele>154.4</ele>
        <time>2023-07-08T13:44:01Z</time>
      </trkpt>
      <trkpt lat="45.46128" lon="4.77585">
        <ele>154.4</ele>
        <time>2023-07-08T13:44:02Z</time>
      </trkpt>
      <trkpt lat="45.46127" lon="4.77588">
        <ele>154.4</ele>
        <time>2023-07-08T13:44:03Z</time>
      </trkpt>
      <trkpt lat="45.46098" lon="4.77634">
        <ele>154.2</ele>
        <time>2023-07-08T13:44:16Z</time>
      </trkpt>
      <trkpt lat="45.46076" lon="4.77674">
        <ele>153.8</ele>
        <time>2023-07-08T13:44:25Z</time>
      </trkpt>
      <trkpt lat="45.46077" lon="4.77679">
        <ele>153.8</ele>
        <time>2023-07-08T13:44:26Z</time>
      </trkpt>
      <trkpt lat="45.4608" lon="4.77682">
        <ele>153.8</ele>
        <time>2023-07-08T13:44:27Z</time>
      </trkpt>
      <trkpt lat="45.46083" lon="4.77685">
        <ele>153.8</ele>
        <time>2023-07-08T13:44:28Z</time>
      </trkpt>
      <trkpt lat="45.46086" lon="4.77687">
        <ele>153.6</ele>
        <time>2023-07-08T13:44:29Z</time>
      </trkpt>
      <trkpt lat="45.46127" lon="4.77715">
        <ele>153.4</ele>
        <time>2023-07-08T13:44:40Z</time>
      </trkpt>
      <trkpt lat="45.46135" lon="4.77721">
        <ele>153.4</ele>
        <time>2023-07-08T13:44:42Z</time>
      </trkpt>
      <trkpt lat="45.46209" lon="4.77793">
        <ele>153.2</ele>
        <time>2023-07-08T13:45:00Z</time>
      </trkpt>
      <trkpt lat="45.46254" lon="4.77838">
        <ele>153.8</ele>
        <time>2023-07-08T13:45:14Z</time>
      </trkpt>
      <trkpt lat="45.46261" lon="4.77845">
        <ele>154</ele>
        <time>2023-07-08T13:45:16Z</time>
      </trkpt>
      <trkpt lat="45.46268" lon="4.77853">
        <ele>154</ele>
        <time>2023-07-08T13:45:18Z</time>
      </trkpt>
      <trkpt lat="45.46272" lon="4.77857">
        <ele>154</ele>
        <time>2023-07-08T13:45:19Z</time>
      </trkpt>
      <trkpt lat="45.46285" lon="4.77867">
        <ele>154</ele>
        <time>2023-07-08T13:45:22Z</time>
      </trkpt>
      <trkpt lat="45.4629" lon="4.7787">
        <ele>154</ele>
        <time>2023-07-08T13:45:23Z</time>
      </trkpt>
      <trkpt lat="45.46375" lon="4.77917">
        <ele>153.8</ele>
        <time>2023-07-08T13:45:40Z</time>
      </trkpt>
      <trkpt lat="45.46447" lon="4.77939">
        <ele>153.6</ele>
        <time>2023-07-08T13:45:53Z</time>
      </trkpt>
      <trkpt lat="45.46482" lon="4.77944">
        <ele>153.4</ele>
        <time>2023-07-08T13:46:00Z</time>
      </trkpt>
      <trkpt lat="45.46486" lon="4.77941">
        <ele>153.6</ele>
        <time>2023-07-08T13:46:01Z</time>
      </trkpt>
      <trkpt lat="45.4649" lon="4.77937">
        <ele>153.6</ele>
        <time>2023-07-08T13:46:02Z</time>
      </trkpt>
      <trkpt lat="45.46493" lon="4.7793">
        <ele>153.4</ele>
        <time>2023-07-08T13:46:03Z</time>
      </trkpt>
      <trkpt lat="45.46494" lon="4.77924">
        <ele>153.4</ele>
        <time>2023-07-08T13:46:04Z</time>
      </trkpt>
      <trkpt lat="45.46495" lon="4.77917">
        <ele>153.4</ele>
        <time>2023-07-08T13:46:05Z</time>
      </trkpt>
      <trkpt lat="45.46496" lon="4.77911">
        <ele>153.4</ele>
        <time>2023-07-08T13:46:06Z</time>
      </trkpt>
      <trkpt lat="45.46498" lon="4.77876">
        <ele>153.8</ele>
        <time>2023-07-08T13:46:11Z</time>
      </trkpt>
      <trkpt lat="45.465" lon="4.77869">
        <ele>153.8</ele>
        <time>2023-07-08T13:46:12Z</time>
      </trkpt>
      <trkpt lat="45.46502" lon="4.77863">
        <ele>153.8</ele>
        <time>2023-07-08T13:46:13Z</time>
      </trkpt>
      <trkpt lat="45.46505" lon="4.77857">
        <ele>153.8</ele>
        <time>2023-07-08T13:46:14Z</time>
      </trkpt>
      <trkpt lat="45.46508" lon="4.77851">
        <ele>153.8</ele>
        <time>2023-07-08T13:46:15Z</time>
      </trkpt>
      <trkpt lat="45.46572" lon="4.77758">
        <ele>153.2</ele>
        <time>2023-07-08T13:46:31Z</time>
      </trkpt>
      <trkpt lat="45.46584" lon="4.7774">
        <ele>153.2</ele>
        <time>2023-07-08T13:46:34Z</time>
      </trkpt>
      <trkpt lat="45.46591" lon="4.7773">
        <ele>153.2</ele>
        <time>2023-07-08T13:46:36Z</time>
      </trkpt>
      <trkpt lat="45.46599" lon="4.77719">
        <ele>153.2</ele>
        <time>2023-07-08T13:46:38Z</time>
      </trkpt>
      <trkpt lat="45.46603" lon="4.77717">
        <ele>153.4</ele>
        <time>2023-07-08T13:46:39Z</time>
      </trkpt>
      <trkpt lat="45.46607" lon="4.77718">
        <ele>153.4</ele>
        <time>2023-07-08T13:46:40Z</time>
      </trkpt>
      <trkpt lat="45.46612" lon="4.77722">
        <ele>153.4</ele>
        <time>2023-07-08T13:46:41Z</time>
      </trkpt>
      <trkpt lat="45.46616" lon="4.77725">
        <ele>153.4</ele>
        <time>2023-07-08T13:46:42Z</time>
      </trkpt>
      <trkpt lat="45.46619" lon="4.77729">
        <ele>153.4</ele>
        <time>2023-07-08T13:46:43Z</time>
      </trkpt>
      <trkpt lat="45.46629" lon="4.77741">
        <ele>153.4</ele>
        <time>2023-07-08T13:46:46Z</time>
      </trkpt>
      <trkpt lat="45.46636" lon="4.77749">
        <ele>153.4</ele>
        <time>2023-07-08T13:46:48Z</time>
      </trkpt>
      <trkpt lat="45.46639" lon="4.77754">
        <ele>153.4</ele>
        <time>2023-07-08T13:46:49Z</time>
      </trkpt>
      <trkpt lat="45.46642" lon="4.77758">
        <ele>153.4</ele>
        <time>2023-07-08T13:46:50Z</time>
      </trkpt>
      <trkpt lat="45.46646" lon="4.77763">
        <ele>153.4</ele>
        <time>2023-07-08T13:46:51Z</time>
      </trkpt>
      <trkpt lat="45.4665" lon="4.77767">
        <ele>153.4</ele>
        <time>2023-07-08T13:46:52Z</time>
      </trkpt>
      <trkpt lat="45.4667" lon="4.77797">
        <ele>153.4</ele>
        <time>2023-07-08T13:46:58Z</time>
      </trkpt>
      <trkpt lat="45.46673" lon="4.77802">
        <ele>153.4</ele>
        <time>2023-07-08T13:46:59Z</time>
      </trkpt>
      <trkpt lat="45.46676" lon="4.77808">
        <ele>153.4</ele>
        <time>2023-07-08T13:47:00Z</time>
      </trkpt>
      <trkpt lat="45.4672" lon="4.7787">
        <ele>153.4</ele>
        <time>2023-07-08T13:47:14Z</time>
      </trkpt>
      <trkpt lat="45.46724" lon="4.77873">
        <ele>153.4</ele>
        <time>2023-07-08T13:47:15Z</time>
      </trkpt>
      <trkpt lat="45.46748" lon="4.77896">
        <ele>153.4</ele>
        <time>2023-07-08T13:47:23Z</time>
      </trkpt>
      <trkpt lat="45.46751" lon="4.77898">
        <ele>153.4</ele>
        <time>2023-07-08T13:47:24Z</time>
      </trkpt>
      <trkpt lat="45.46754" lon="4.77898">
        <ele>153.4</ele>
        <time>2023-07-08T13:47:25Z</time>
      </trkpt>
      <trkpt lat="45.46758" lon="4.77898">
        <ele>153.6</ele>
        <time>2023-07-08T13:47:26Z</time>
      </trkpt>
      <trkpt lat="45.46763" lon="4.77897">
        <ele>153.6</ele>
        <time>2023-07-08T13:47:27Z</time>
      </trkpt>
      <trkpt lat="45.46781" lon="4.77896">
        <ele>153.6</ele>
        <time>2023-07-08T13:47:31Z</time>
      </trkpt>
      <trkpt lat="45.46794" lon="4.77892">
        <ele>154.2</ele>
        <time>2023-07-08T13:47:34Z</time>
      </trkpt>
      <trkpt lat="45.46798" lon="4.77891">
        <ele>154.2</ele>
        <time>2023-07-08T13:47:35Z</time>
      </trkpt>
      <trkpt lat="45.46803" lon="4.77891">
        <ele>154.4</ele>
        <time>2023-07-08T13:47:36Z</time>
      </trkpt>
      <trkpt lat="45.46864" lon="4.77882">
        <ele>154.4</ele>
        <time>2023-07-08T13:47:50Z</time>
      </trkpt>
      <trkpt lat="45.46913" lon="4.77874">
        <ele>154.2</ele>
        <time>2023-07-08T13:48:01Z</time>
      </trkpt>
      <trkpt lat="45.46922" lon="4.77872">
        <ele>154</ele>
        <time>2023-07-08T13:48:03Z</time>
      </trkpt>
      <trkpt lat="45.46959" lon="4.77866">
        <ele>154</ele>
        <time>2023-07-08T13:48:12Z</time>
      </trkpt>
      <trkpt lat="45.46979" lon="4.7786">
        <ele>154.2</ele>
        <time>2023-07-08T13:48:17Z</time>
      </trkpt>
      <trkpt lat="45.46983" lon="4.77857">
        <ele>154.2</ele>
        <time>2023-07-08T13:48:18Z</time>
      </trkpt>
      <trkpt lat="45.46986" lon="4.77853">
        <ele>154.2</ele>
        <time>2023-07-08T13:48:19Z</time>
      </trkpt>
      <trkpt lat="45.46992" lon="4.77844">
        <ele>154.2</ele>
        <time>2023-07-08T13:48:21Z</time>
      </trkpt>
      <trkpt lat="45.47019" lon="4.77809">
        <ele>154.6</ele>
        <time>2023-07-08T13:48:31Z</time>
      </trkpt>
      <trkpt lat="45.47023" lon="4.77805">
        <ele>154.8</ele>
        <time>2023-07-08T13:48:32Z</time>
      </trkpt>
      <trkpt lat="45.47026" lon="4.77801">
        <ele>154.8</ele>
        <time>2023-07-08T13:48:33Z</time>
      </trkpt>
      <trkpt lat="45.4703" lon="4.77795">
        <ele>154.8</ele>
        <time>2023-07-08T13:48:34Z</time>
      </trkpt>
      <trkpt lat="45.47034" lon="4.77791">
        <ele>154.8</ele>
        <time>2023-07-08T13:48:35Z</time>
      </trkpt>
      <trkpt lat="45.47038" lon="4.77787">
        <ele>155</ele>
        <time>2023-07-08T13:48:36Z</time>
      </trkpt>
      <trkpt lat="45.47042" lon="4.77783">
        <ele>155</ele>
        <time>2023-07-08T13:48:37Z</time>
      </trkpt>
      <trkpt lat="45.47043" lon="4.77778">
        <ele>155</ele>
        <time>2023-07-08T13:48:38Z</time>
      </trkpt>
      <trkpt lat="45.47046" lon="4.77774">
        <ele>155</ele>
        <time>2023-07-08T13:48:39Z</time>
      </trkpt>
      <trkpt lat="45.4705" lon="4.77771">
        <ele>155</ele>
        <time>2023-07-08T13:48:40Z</time>
      </trkpt>
      <trkpt lat="45.47068" lon="4.7775">
        <ele>155</ele>
        <time>2023-07-08T13:48:47Z</time>
      </trkpt>
      <trkpt lat="45.4707" lon="4.7775">
        <ele>155</ele>
        <time>2023-07-08T13:48:48Z</time>
      </trkpt>
      <trkpt lat="45.47071" lon="4.77753">
        <ele>155.2</ele>
        <time>2023-07-08T13:48:49Z</time>
      </trkpt>
      <trkpt lat="45.47072" lon="4.77756">
        <ele>155.2</ele>
        <time>2023-07-08T13:48:50Z</time>
      </trkpt>
      <trkpt lat="45.47073" lon="4.77759">
        <ele>155.4</ele>
        <time>2023-07-08T13:48:51Z</time>
      </trkpt>
      <trkpt lat="45.47086" lon="4.77776">
        <ele>156</ele>
        <time>2023-07-08T13:48:57Z</time>
      </trkpt>
      <trkpt lat="45.4709" lon="4.77775">
        <ele>156</ele>
        <time>2023-07-08T13:48:58Z</time>
      </trkpt>
      <trkpt lat="45.47093" lon="4.77772">
        <ele>156</ele>
        <time>2023-07-08T13:48:59Z</time>
      </trkpt>
      <trkpt lat="45.47098" lon="4.77769">
        <ele>156</ele>
        <time>2023-07-08T13:49:00Z</time>
      </trkpt>
      <trkpt lat="45.47102" lon="4.77767">
        <ele>156</ele>
        <time>2023-07-08T13:49:01Z</time>
      </trkpt>
      <trkpt lat="45.47143" lon="4.77754">
        <ele>156</ele>
        <time>2023-07-08T13:49:12Z</time>
      </trkpt>
      <trkpt lat="45.47166" lon="4.7777">
        <ele>156.6</ele>
        <time>2023-07-08T13:49:19Z</time>
      </trkpt>
      <trkpt lat="45.4717" lon="4.77773">
        <ele>156.6</ele>
        <time>2023-07-08T13:49:20Z</time>
      </trkpt>
      <trkpt lat="45.47184" lon="4.77783">
        <ele>156.8</ele>
        <time>2023-07-08T13:49:25Z</time>
      </trkpt>
      <trkpt lat="45.47186" lon="4.77785">
        <ele>156.8</ele>
        <time>2023-07-08T13:49:26Z</time>
      </trkpt>
      <trkpt lat="45.47189" lon="4.77787">
        <ele>156.8</ele>
        <time>2023-07-08T13:49:27Z</time>
      </trkpt>
      <trkpt lat="45.47236" lon="4.77822">
        <ele>156.2</ele>
        <time>2023-07-08T13:49:38Z</time>
      </trkpt>
      <trkpt lat="45.47251" lon="4.77832">
        <ele>155.4</ele>
        <time>2023-07-08T13:49:41Z</time>
      </trkpt>
      <trkpt lat="45.47255" lon="4.77835">
        <ele>155</ele>
        <time>2023-07-08T13:49:42Z</time>
      </trkpt>
      <trkpt lat="45.47284" lon="4.77854">
        <ele>153.6</ele>
        <time>2023-07-08T13:49:52Z</time>
      </trkpt>
      <trkpt lat="45.47315" lon="4.77874">
        <ele>153.6</ele>
        <time>2023-07-08T13:50:03Z</time>
      </trkpt>
      <trkpt lat="45.47351" lon="4.77887">
        <ele>154</ele>
        <time>2023-07-08T13:50:14Z</time>
      </trkpt>
      <trkpt lat="45.4738" lon="4.77898">
        <ele>154.2</ele>
        <time>2023-07-08T13:50:24Z</time>
      </trkpt>
      <trkpt lat="45.47412" lon="4.77919">
        <ele>154</ele>
        <time>2023-07-08T13:50:32Z</time>
      </trkpt>
      <trkpt lat="45.47415" lon="4.77922">
        <ele>154</ele>
        <time>2023-07-08T13:50:33Z</time>
      </trkpt>
      <trkpt lat="45.47419" lon="4.77923">
        <ele>154</ele>
        <time>2023-07-08T13:50:34Z</time>
      </trkpt>
      <trkpt lat="45.47424" lon="4.77925">
        <ele>154</ele>
        <time>2023-07-08T13:50:35Z</time>
      </trkpt>
      <trkpt lat="45.47427" lon="4.77927">
        <ele>154</ele>
        <time>2023-07-08T13:50:36Z</time>
      </trkpt>
      <trkpt lat="45.4743" lon="4.77928">
        <ele>154</ele>
        <time>2023-07-08T13:50:37Z</time>
      </trkpt>
      <trkpt lat="45.4744" lon="4.77932">
        <ele>154</ele>
        <time>2023-07-08T13:50:39Z</time>
      </trkpt>
      <trkpt lat="45.47454" lon="4.7794">
        <ele>154</ele>
        <time>2023-07-08T13:50:44Z</time>
      </trkpt>
      <trkpt lat="45.47456" lon="4.77943">
        <ele>154</ele>
        <time>2023-07-08T13:50:45Z</time>
      </trkpt>
      <trkpt lat="45.47457" lon="4.77945">
        <ele>154</ele>
        <time>2023-07-08T13:50:46Z</time>
      </trkpt>
      <trkpt lat="45.47458" lon="4.77946">
        <ele>154</ele>
        <time>2023-07-08T13:50:47Z</time>
      </trkpt>
      <trkpt lat="45.47459" lon="4.77948">
        <ele>154</ele>
        <time>2023-07-08T13:50:48Z</time>
      </trkpt>
      <trkpt lat="45.47462" lon="4.7795">
        <ele>153.8</ele>
        <time>2023-07-08T13:50:49Z</time>
      </trkpt>
      <trkpt lat="45.47464" lon="4.77951">
        <ele>153.8</ele>
        <time>2023-07-08T13:50:50Z</time>
      </trkpt>
      <trkpt lat="45.4749" lon="4.77971">
        <ele>153.8</ele>
        <time>2023-07-08T13:51:00Z</time>
      </trkpt>
      <trkpt lat="45.47522" lon="4.77993">
        <ele>154</ele>
        <time>2023-07-08T13:51:12Z</time>
      </trkpt>
      <trkpt lat="45.47549" lon="4.78017">
        <ele>154</ele>
        <time>2023-07-08T13:51:20Z</time>
      </trkpt>
      <trkpt lat="45.47552" lon="4.78018">
        <ele>154</ele>
        <time>2023-07-08T13:51:21Z</time>
      </trkpt>
      <trkpt lat="45.47556" lon="4.78021">
        <ele>153.8</ele>
        <time>2023-07-08T13:51:22Z</time>
      </trkpt>
      <trkpt lat="45.47582" lon="4.78038">
        <ele>154</ele>
        <time>2023-07-08T13:51:31Z</time>
      </trkpt>
      <trkpt lat="45.47587" lon="4.7804">
        <ele>154</ele>
        <time>2023-07-08T13:51:32Z</time>
      </trkpt>
      <trkpt lat="45.47612" lon="4.78057">
        <ele>154</ele>
        <time>2023-07-08T13:51:37Z</time>
      </trkpt>
      <trkpt lat="45.47616" lon="4.7806">
        <ele>154</ele>
        <time>2023-07-08T13:51:38Z</time>
      </trkpt>
      <trkpt lat="45.4762" lon="4.78062">
        <ele>154</ele>
        <time>2023-07-08T13:51:39Z</time>
      </trkpt>
      <trkpt lat="45.47616" lon="4.78063">
        <ele>154</ele>
        <time>2023-07-08T13:51:40Z</time>
      </trkpt>
      <trkpt lat="45.47619" lon="4.78065">
        <ele>153.8</ele>
        <time>2023-07-08T13:51:41Z</time>
      </trkpt>
      <trkpt lat="45.47642" lon="4.78081">
        <ele>153.4</ele>
        <time>2023-07-08T13:51:51Z</time>
      </trkpt>
      <trkpt lat="45.47656" lon="4.78091">
        <ele>153.4</ele>
        <time>2023-07-08T13:51:55Z</time>
      </trkpt>
      <trkpt lat="45.47661" lon="4.78097">
        <ele>153.6</ele>
        <time>2023-07-08T13:51:56Z</time>
      </trkpt>
      <trkpt lat="45.47666" lon="4.78104">
        <ele>153.8</ele>
        <time>2023-07-08T13:51:57Z</time>
      </trkpt>
      <trkpt lat="45.47669" lon="4.78111">
        <ele>153.8</ele>
        <time>2023-07-08T13:51:58Z</time>
      </trkpt>
      <trkpt lat="45.4767" lon="4.78118">
        <ele>153.8</ele>
        <time>2023-07-08T13:51:59Z</time>
      </trkpt>
      <trkpt lat="45.4767" lon="4.78125">
        <ele>153.8</ele>
        <time>2023-07-08T13:52:00Z</time>
      </trkpt>
      <trkpt lat="45.47669" lon="4.78132">
        <ele>153.8</ele>
        <time>2023-07-08T13:52:01Z</time>
      </trkpt>
      <trkpt lat="45.47668" lon="4.78139">
        <ele>153.8</ele>
        <time>2023-07-08T13:52:02Z</time>
      </trkpt>
      <trkpt lat="45.47667" lon="4.78145">
        <ele>153.8</ele>
        <time>2023-07-08T13:52:03Z</time>
      </trkpt>
      <trkpt lat="45.47666" lon="4.78151">
        <ele>153.8</ele>
        <time>2023-07-08T13:52:04Z</time>
      </trkpt>
      <trkpt lat="45.47665" lon="4.78157">
        <ele>153.8</ele>
        <time>2023-07-08T13:52:05Z</time>
      </trkpt>
      <trkpt lat="45.47664" lon="4.78173">
        <ele>153.8</ele>
        <time>2023-07-08T13:52:08Z</time>
      </trkpt>
      <trkpt lat="45.47665" lon="4.78179">
        <ele>153.8</ele>
        <time>2023-07-08T13:52:09Z</time>
      </trkpt>
      <trkpt lat="45.47667" lon="4.78184">
        <ele>153.6</ele>
        <time>2023-07-08T13:52:10Z</time>
      </trkpt>
      <trkpt lat="45.4767" lon="4.78188">
        <ele>153.6</ele>
        <time>2023-07-08T13:52:11Z</time>
      </trkpt>
      <trkpt lat="45.47675" lon="4.78191">
        <ele>153.6</ele>
        <time>2023-07-08T13:52:12Z</time>
      </trkpt>
      <trkpt lat="45.4768" lon="4.78192">
        <ele>153.6</ele>
        <time>2023-07-08T13:52:13Z</time>
      </trkpt>
      <trkpt lat="45.47683" lon="4.78194">
        <ele>153.6</ele>
        <time>2023-07-08T13:52:14Z</time>
      </trkpt>
      <trkpt lat="45.47698" lon="4.78198">
        <ele>153.6</ele>
        <time>2023-07-08T13:52:17Z</time>
      </trkpt>
      <trkpt lat="45.47723" lon="4.78198">
        <ele>153.8</ele>
        <time>2023-07-08T13:52:24Z</time>
      </trkpt>
      <trkpt lat="45.47727" lon="4.782">
        <ele>153.8</ele>
        <time>2023-07-08T13:52:25Z</time>
      </trkpt>
      <trkpt lat="45.47764" lon="4.78214">
        <ele>153.8</ele>
        <time>2023-07-08T13:52:36Z</time>
      </trkpt>
      <trkpt lat="45.47811" lon="4.7823">
        <ele>153.6</ele>
        <time>2023-07-08T13:52:45Z</time>
      </trkpt>
      <trkpt lat="45.47815" lon="4.78232">
        <ele>153.6</ele>
        <time>2023-07-08T13:52:46Z</time>
      </trkpt>
      <trkpt lat="45.47819" lon="4.78234">
        <ele>153.4</ele>
        <time>2023-07-08T13:52:47Z</time>
      </trkpt>
      <trkpt lat="45.47823" lon="4.78235">
        <ele>153.4</ele>
        <time>2023-07-08T13:52:48Z</time>
      </trkpt>
      <trkpt lat="45.47828" lon="4.78235">
        <ele>153.4</ele>
        <time>2023-07-08T13:52:49Z</time>
      </trkpt>
      <trkpt lat="45.47833" lon="4.78235">
        <ele>153.4</ele>
        <time>2023-07-08T13:52:50Z</time>
      </trkpt>
      <trkpt lat="45.47838" lon="4.78235">
        <ele>153.4</ele>
        <time>2023-07-08T13:52:51Z</time>
      </trkpt>
      <trkpt lat="45.47842" lon="4.78236">
        <ele>153.4</ele>
        <time>2023-07-08T13:52:52Z</time>
      </trkpt>
      <trkpt lat="45.47846" lon="4.78237">
        <ele>153.6</ele>
        <time>2023-07-08T13:52:53Z</time>
      </trkpt>
      <trkpt lat="45.47851" lon="4.78239">
        <ele>153.6</ele>
        <time>2023-07-08T13:52:54Z</time>
      </trkpt>
      <trkpt lat="45.47855" lon="4.78241">
        <ele>153.8</ele>
        <time>2023-07-08T13:52:55Z</time>
      </trkpt>
      <trkpt lat="45.47859" lon="4.78244">
        <ele>153.8</ele>
        <time>2023-07-08T13:52:56Z</time>
      </trkpt>
      <trkpt lat="45.47862" lon="4.78247">
        <ele>153.8</ele>
        <time>2023-07-08T13:52:57Z</time>
      </trkpt>
      <trkpt lat="45.47873" lon="4.7826">
        <ele>154</ele>
        <time>2023-07-08T13:53:01Z</time>
      </trkpt>
      <trkpt lat="45.47893" lon="4.7828">
        <ele>154</ele>
        <time>2023-07-08T13:53:07Z</time>
      </trkpt>
      <trkpt lat="45.47897" lon="4.78282">
        <ele>154</ele>
        <time>2023-07-08T13:53:08Z</time>
      </trkpt>
      <trkpt lat="45.47923" lon="4.78296">
        <ele>153.8</ele>
        <time>2023-07-08T13:53:13Z</time>
      </trkpt>
      <trkpt lat="45.47927" lon="4.78298">
        <ele>153.6</ele>
        <time>2023-07-08T13:53:14Z</time>
      </trkpt>
      <trkpt lat="45.47931" lon="4.78303">
        <ele>153.6</ele>
        <time>2023-07-08T13:53:15Z</time>
      </trkpt>
      <trkpt lat="45.47934" lon="4.78308">
        <ele>153.4</ele>
        <time>2023-07-08T13:53:16Z</time>
      </trkpt>
      <trkpt lat="45.47937" lon="4.78312">
        <ele>153.4</ele>
        <time>2023-07-08T13:53:17Z</time>
      </trkpt>
      <trkpt lat="45.47941" lon="4.7832">
        <ele>153.4</ele>
        <time>2023-07-08T13:53:18Z</time>
      </trkpt>
      <trkpt lat="45.47942" lon="4.78325">
        <ele>153.2</ele>
        <time>2023-07-08T13:53:19Z</time>
      </trkpt>
      <trkpt lat="45.47947" lon="4.78335">
        <ele>153.2</ele>
        <time>2023-07-08T13:53:21Z</time>
      </trkpt>
      <trkpt lat="45.47957" lon="4.78354">
        <ele>153.2</ele>
        <time>2023-07-08T13:53:24Z</time>
      </trkpt>
      <trkpt lat="45.47962" lon="4.78368">
        <ele>153.2</ele>
        <time>2023-07-08T13:53:26Z</time>
      </trkpt>
      <trkpt lat="45.47962" lon="4.78374">
        <ele>153.2</ele>
        <time>2023-07-08T13:53:27Z</time>
      </trkpt>
      <trkpt lat="45.47949" lon="4.78414">
        <ele>154.4</ele>
        <time>2023-07-08T13:53:37Z</time>
      </trkpt>
      <trkpt lat="45.47944" lon="4.78427">
        <ele>155</ele>
        <time>2023-07-08T13:53:40Z</time>
      </trkpt>
      <trkpt lat="45.47945" lon="4.78431">
        <ele>155</ele>
        <time>2023-07-08T13:53:41Z</time>
      </trkpt>
      <trkpt lat="45.47947" lon="4.78436">
        <ele>155</ele>
        <time>2023-07-08T13:53:42Z</time>
      </trkpt>
      <trkpt lat="45.47951" lon="4.7844">
        <ele>155.2</ele>
        <time>2023-07-08T13:53:43Z</time>
      </trkpt>
      <trkpt lat="45.47957" lon="4.78444">
        <ele>155.2</ele>
        <time>2023-07-08T13:53:44Z</time>
      </trkpt>
      <trkpt lat="45.47968" lon="4.78454">
        <ele>155.2</ele>
        <time>2023-07-08T13:53:46Z</time>
      </trkpt>
      <trkpt lat="45.47972" lon="4.78458">
        <ele>155.2</ele>
        <time>2023-07-08T13:53:47Z</time>
      </trkpt>
      <trkpt lat="45.48016" lon="4.78527">
        <ele>153.6</ele>
        <time>2023-07-08T13:54:01Z</time>
      </trkpt>
      <trkpt lat="45.48035" lon="4.78555">
        <ele>153.8</ele>
        <time>2023-07-08T13:54:07Z</time>
      </trkpt>
      <trkpt lat="45.4805" lon="4.7858">
        <ele>154</ele>
        <time>2023-07-08T13:54:13Z</time>
      </trkpt>
      <trkpt lat="45.48052" lon="4.78585">
        <ele>154</ele>
        <time>2023-07-08T13:54:14Z</time>
      </trkpt>
      <trkpt lat="45.48057" lon="4.78602">
        <ele>154</ele>
        <time>2023-07-08T13:54:17Z</time>
      </trkpt>
      <trkpt lat="45.48061" lon="4.78614">
        <ele>154</ele>
        <time>2023-07-08T13:54:19Z</time>
      </trkpt>
      <trkpt lat="45.48063" lon="4.78619">
        <ele>154</ele>
        <time>2023-07-08T13:54:20Z</time>
      </trkpt>
      <trkpt lat="45.48077" lon="4.78682">
        <ele>154.2</ele>
        <time>2023-07-08T13:54:33Z</time>
      </trkpt>
      <trkpt lat="45.48078" lon="4.78688">
        <ele>154.2</ele>
        <time>2023-07-08T13:54:34Z</time>
      </trkpt>
      <trkpt lat="45.48079" lon="4.78714">
        <ele>154.2</ele>
        <time>2023-07-08T13:54:38Z</time>
      </trkpt>
      <trkpt lat="45.48075" lon="4.7876">
        <ele>154.2</ele>
        <time>2023-07-08T13:54:45Z</time>
      </trkpt>
      <trkpt lat="45.48062" lon="4.78831">
        <ele>154.6</ele>
        <time>2023-07-08T13:54:58Z</time>
      </trkpt>
      <trkpt lat="45.48065" lon="4.78835">
        <ele>154.6</ele>
        <time>2023-07-08T13:54:59Z</time>
      </trkpt>
      <trkpt lat="45.48069" lon="4.78836">
        <ele>154.6</ele>
        <time>2023-07-08T13:55:00Z</time>
      </trkpt>
      <trkpt lat="45.48154" lon="4.78857">
        <ele>154.6</ele>
        <time>2023-07-08T13:55:17Z</time>
      </trkpt>
      <trkpt lat="45.48226" lon="4.78865">
        <ele>154.6</ele>
        <time>2023-07-08T13:55:32Z</time>
      </trkpt>
      <trkpt lat="45.48264" lon="4.78869">
        <ele>157.8</ele>
        <time>2023-07-08T13:55:43Z</time>
      </trkpt>
      <trkpt lat="45.48278" lon="4.78875">
        <ele>159</ele>
        <time>2023-07-08T13:55:48Z</time>
      </trkpt>
      <trkpt lat="45.4828" lon="4.78878">
        <ele>159</ele>
        <time>2023-07-08T13:55:49Z</time>
      </trkpt>
      <trkpt lat="45.4828" lon="4.7888">
        <ele>159</ele>
        <time>2023-07-08T13:55:50Z</time>
      </trkpt>
      <trkpt lat="45.48281" lon="4.7889">
        <ele>159.2</ele>
        <time>2023-07-08T13:55:59Z</time>
      </trkpt>
      <trkpt lat="45.48285" lon="4.78899">
        <ele>159</ele>
        <time>2023-07-08T13:56:04Z</time>
      </trkpt>
      <trkpt lat="45.48285" lon="4.78901">
        <ele>159</ele>
        <time>2023-07-08T13:56:05Z</time>
      </trkpt>
      <trkpt lat="45.48287" lon="4.78905">
        <ele>159</ele>
        <time>2023-07-08T13:56:06Z</time>
      </trkpt>
      <trkpt lat="45.48288" lon="4.78908">
        <ele>159</ele>
        <time>2023-07-08T13:56:07Z</time>
      </trkpt>
      <trkpt lat="45.4829" lon="4.78911">
        <ele>159</ele>
        <time>2023-07-08T13:56:08Z</time>
      </trkpt>
      <trkpt lat="45.48291" lon="4.78915">
        <ele>159</ele>
        <time>2023-07-08T13:56:09Z</time>
      </trkpt>
      <trkpt lat="45.48292" lon="4.78919">
        <ele>158.8</ele>
        <time>2023-07-08T13:56:10Z</time>
      </trkpt>
      <trkpt lat="45.48294" lon="4.78922">
        <ele>158.8</ele>
        <time>2023-07-08T13:56:11Z</time>
      </trkpt>
      <trkpt lat="45.48295" lon="4.78926">
        <ele>158.6</ele>
        <time>2023-07-08T13:56:12Z</time>
      </trkpt>
      <trkpt lat="45.48296" lon="4.7893">
        <ele>158.6</ele>
        <time>2023-07-08T13:56:13Z</time>
      </trkpt>
      <trkpt lat="45.48297" lon="4.78934">
        <ele>158.6</ele>
        <time>2023-07-08T13:56:14Z</time>
      </trkpt>
      <trkpt lat="45.48298" lon="4.78939">
        <ele>158.6</ele>
        <time>2023-07-08T13:56:15Z</time>
      </trkpt>
      <trkpt lat="45.48299" lon="4.78943">
        <ele>158.4</ele>
        <time>2023-07-08T13:56:16Z</time>
      </trkpt>
      <trkpt lat="45.483" lon="4.78948">
        <ele>158.4</ele>
        <time>2023-07-08T13:56:17Z</time>
      </trkpt>
      <trkpt lat="45.48307" lon="4.79011">
        <ele>157.8</ele>
        <time>2023-07-08T13:56:30Z</time>
      </trkpt>
      <trkpt lat="45.48316" lon="4.79097">
        <ele>157.6</ele>
        <time>2023-07-08T13:56:44Z</time>
      </trkpt>
      <trkpt lat="45.4833" lon="4.79235">
        <ele>157.8</ele>
        <time>2023-07-08T13:57:05Z</time>
      </trkpt>
      <trkpt lat="45.48352" lon="4.79348">
        <ele>156.8</ele>
        <time>2023-07-08T13:57:21Z</time>
      </trkpt>
      <trkpt lat="45.48375" lon="4.7945">
        <ele>156.4</ele>
        <time>2023-07-08T13:57:35Z</time>
      </trkpt>
      <trkpt lat="45.48378" lon="4.79473">
        <ele>156.6</ele>
        <time>2023-07-08T13:57:38Z</time>
      </trkpt>
      <trkpt lat="45.48378" lon="4.79481">
        <ele>156.6</ele>
        <time>2023-07-08T13:57:39Z</time>
      </trkpt>
      <trkpt lat="45.48377" lon="4.7949">
        <ele>156.8</ele>
        <time>2023-07-08T13:57:40Z</time>
      </trkpt>
      <trkpt lat="45.48376" lon="4.79498">
        <ele>156.8</ele>
        <time>2023-07-08T13:57:41Z</time>
      </trkpt>
      <trkpt lat="45.48375" lon="4.79506">
        <ele>156.8</ele>
        <time>2023-07-08T13:57:42Z</time>
      </trkpt>
      <trkpt lat="45.48373" lon="4.79514">
        <ele>156.8</ele>
        <time>2023-07-08T13:57:43Z</time>
      </trkpt>
      <trkpt lat="45.48371" lon="4.79522">
        <ele>156.8</ele>
        <time>2023-07-08T13:57:44Z</time>
      </trkpt>
      <trkpt lat="45.48344" lon="4.79657">
        <ele>154.4</ele>
        <time>2023-07-08T13:58:00Z</time>
      </trkpt>
      <trkpt lat="45.48342" lon="4.79681">
        <ele>154.4</ele>
        <time>2023-07-08T13:58:03Z</time>
      </trkpt>
      <trkpt lat="45.48341" lon="4.79689">
        <ele>154.4</ele>
        <time>2023-07-08T13:58:04Z</time>
      </trkpt>
      <trkpt lat="45.48339" lon="4.79713">
        <ele>154.4</ele>
        <time>2023-07-08T13:58:07Z</time>
      </trkpt>
      <trkpt lat="45.48328" lon="4.7984">
        <ele>153.8</ele>
        <time>2023-07-08T13:58:22Z</time>
      </trkpt>
      <trkpt lat="45.48328" lon="4.79848">
        <ele>153.8</ele>
        <time>2023-07-08T13:58:23Z</time>
      </trkpt>
      <trkpt lat="45.4833" lon="4.79857">
        <ele>153.8</ele>
        <time>2023-07-08T13:58:24Z</time>
      </trkpt>
      <trkpt lat="45.48332" lon="4.79865">
        <ele>153.8</ele>
        <time>2023-07-08T13:58:25Z</time>
      </trkpt>
      <trkpt lat="45.48334" lon="4.79873">
        <ele>153.8</ele>
        <time>2023-07-08T13:58:26Z</time>
      </trkpt>
      <trkpt lat="45.48337" lon="4.79881">
        <ele>153.8</ele>
        <time>2023-07-08T13:58:27Z</time>
      </trkpt>
      <trkpt lat="45.48341" lon="4.79888">
        <ele>153.8</ele>
        <time>2023-07-08T13:58:28Z</time>
      </trkpt>
      <trkpt lat="45.48403" lon="4.80003">
        <ele>154.4</ele>
        <time>2023-07-08T13:58:45Z</time>
      </trkpt>
      <trkpt lat="45.48442" lon="4.80088">
        <ele>154.2</ele>
        <time>2023-07-08T13:58:59Z</time>
      </trkpt>
      <trkpt lat="45.48476" lon="4.80187">
        <ele>154.2</ele>
        <time>2023-07-08T13:59:14Z</time>
      </trkpt>
      <trkpt lat="45.48508" lon="4.80297">
        <ele>154.4</ele>
        <time>2023-07-08T13:59:29Z</time>
      </trkpt>
      <trkpt lat="45.48536" lon="4.80377">
        <ele>154.4</ele>
        <time>2023-07-08T13:59:40Z</time>
      </trkpt>
      <trkpt lat="45.48539" lon="4.80384">
        <ele>154.4</ele>
        <time>2023-07-08T13:59:41Z</time>
      </trkpt>
      <trkpt lat="45.48572" lon="4.80462">
        <ele>154.8</ele>
        <time>2023-07-08T13:59:55Z</time>
      </trkpt>
      <trkpt lat="45.4858" lon="4.80486">
        <ele>155</ele>
        <time>2023-07-08T13:59:59Z</time>
      </trkpt>
      <trkpt lat="45.48603" lon="4.80547">
        <ele>155</ele>
        <time>2023-07-08T14:00:09Z</time>
      </trkpt>
      <trkpt lat="45.4864" lon="4.80671">
        <ele>155</ele>
        <time>2023-07-08T14:00:28Z</time>
      </trkpt>
      <trkpt lat="45.48647" lon="4.8071">
        <ele>155.4</ele>
        <time>2023-07-08T14:00:34Z</time>
      </trkpt>
      <trkpt lat="45.48653" lon="4.80769">
        <ele>156.4</ele>
        <time>2023-07-08T14:00:45Z</time>
      </trkpt>
      <trkpt lat="45.48652" lon="4.80786">
        <ele>156.4</ele>
        <time>2023-07-08T14:00:48Z</time>
      </trkpt>
      <trkpt lat="45.4865" lon="4.80798">
        <ele>156.4</ele>
        <time>2023-07-08T14:00:50Z</time>
      </trkpt>
      <trkpt lat="45.48649" lon="4.80817">
        <ele>156.4</ele>
        <time>2023-07-08T14:00:53Z</time>
      </trkpt>
      <trkpt lat="45.48646" lon="4.80852">
        <ele>156.2</ele>
        <time>2023-07-08T14:00:58Z</time>
      </trkpt>
      <trkpt lat="45.48646" lon="4.80859">
        <ele>156.2</ele>
        <time>2023-07-08T14:00:59Z</time>
      </trkpt>
      <trkpt lat="45.48645" lon="4.80866">
        <ele>156.2</ele>
        <time>2023-07-08T14:01:00Z</time>
      </trkpt>
      <trkpt lat="45.48641" lon="4.80896">
        <ele>156.2</ele>
        <time>2023-07-08T14:01:05Z</time>
      </trkpt>
      <trkpt lat="45.4864" lon="4.80902">
        <ele>156.2</ele>
        <time>2023-07-08T14:01:06Z</time>
      </trkpt>
      <trkpt lat="45.48639" lon="4.80907">
        <ele>156.2</ele>
        <time>2023-07-08T14:01:07Z</time>
      </trkpt>
      <trkpt lat="45.48638" lon="4.80912">
        <ele>156.4</ele>
        <time>2023-07-08T14:01:08Z</time>
      </trkpt>
      <trkpt lat="45.48638" lon="4.80918">
        <ele>156.4</ele>
        <time>2023-07-08T14:01:09Z</time>
      </trkpt>
      <trkpt lat="45.48637" lon="4.80923">
        <ele>156.4</ele>
        <time>2023-07-08T14:01:10Z</time>
      </trkpt>
      <trkpt lat="45.48637" lon="4.80929">
        <ele>156.4</ele>
        <time>2023-07-08T14:01:11Z</time>
      </trkpt>
      <trkpt lat="45.48632" lon="4.81009">
        <ele>156.4</ele>
        <time>2023-07-08T14:01:24Z</time>
      </trkpt>
      <trkpt lat="45.48637" lon="4.81054">
        <ele>156</ele>
        <time>2023-07-08T14:01:32Z</time>
      </trkpt>
      <trkpt lat="45.48639" lon="4.81059">
        <ele>156</ele>
        <time>2023-07-08T14:01:33Z</time>
      </trkpt>
      <trkpt lat="45.48642" lon="4.81064">
        <ele>156</ele>
        <time>2023-07-08T14:01:34Z</time>
      </trkpt>
      <trkpt lat="45.48646" lon="4.81074">
        <ele>156</ele>
        <time>2023-07-08T14:01:36Z</time>
      </trkpt>
      <trkpt lat="45.48653" lon="4.8109">
        <ele>156</ele>
        <time>2023-07-08T14:01:39Z</time>
      </trkpt>
      <trkpt lat="45.48656" lon="4.81095">
        <ele>156</ele>
        <time>2023-07-08T14:01:40Z</time>
      </trkpt>
      <trkpt lat="45.48669" lon="4.81121">
        <ele>156.2</ele>
        <time>2023-07-08T14:01:45Z</time>
      </trkpt>
      <trkpt lat="45.48674" lon="4.8113">
        <ele>156.4</ele>
        <time>2023-07-08T14:01:47Z</time>
      </trkpt>
      <trkpt lat="45.48676" lon="4.81135">
        <ele>156.4</ele>
        <time>2023-07-08T14:01:48Z</time>
      </trkpt>
      <trkpt lat="45.48671" lon="4.81167">
        <ele>157.2</ele>
        <time>2023-07-08T14:01:55Z</time>
      </trkpt>
      <trkpt lat="45.48668" lon="4.8117">
        <ele>157.2</ele>
        <time>2023-07-08T14:01:56Z</time>
      </trkpt>
      <trkpt lat="45.48665" lon="4.81174">
        <ele>157.2</ele>
        <time>2023-07-08T14:01:57Z</time>
      </trkpt>
      <trkpt lat="45.48661" lon="4.81177">
        <ele>157.2</ele>
        <time>2023-07-08T14:01:58Z</time>
      </trkpt>
      <trkpt lat="45.48657" lon="4.81181">
        <ele>157.2</ele>
        <time>2023-07-08T14:01:59Z</time>
      </trkpt>
      <trkpt lat="45.48653" lon="4.81185">
        <ele>157.2</ele>
        <time>2023-07-08T14:02:00Z</time>
      </trkpt>
      <trkpt lat="45.48595" lon="4.81243">
        <ele>156.6</ele>
        <time>2023-07-08T14:02:16Z</time>
      </trkpt>
      <trkpt lat="45.48593" lon="4.81248">
        <ele>156.6</ele>
        <time>2023-07-08T14:02:17Z</time>
      </trkpt>
      <trkpt lat="45.48593" lon="4.81253">
        <ele>156.6</ele>
        <time>2023-07-08T14:02:18Z</time>
      </trkpt>
      <trkpt lat="45.48594" lon="4.81259">
        <ele>156.6</ele>
        <time>2023-07-08T14:02:19Z</time>
      </trkpt>
      <trkpt lat="45.48596" lon="4.81265">
        <ele>156.6</ele>
        <time>2023-07-08T14:02:20Z</time>
      </trkpt>
      <trkpt lat="45.48599" lon="4.81271">
        <ele>156.8</ele>
        <time>2023-07-08T14:02:21Z</time>
      </trkpt>
      <trkpt lat="45.48642" lon="4.81362">
        <ele>156.8</ele>
        <time>2023-07-08T14:02:36Z</time>
      </trkpt>
      <trkpt lat="45.48678" lon="4.81436">
        <ele>156.2</ele>
        <time>2023-07-08T14:02:49Z</time>
      </trkpt>
      <trkpt lat="45.48697" lon="4.81471">
        <ele>156.2</ele>
        <time>2023-07-08T14:02:56Z</time>
      </trkpt>
      <trkpt lat="45.487" lon="4.81474">
        <ele>156.2</ele>
        <time>2023-07-08T14:02:57Z</time>
      </trkpt>
      <trkpt lat="45.48704" lon="4.81478">
        <ele>156.2</ele>
        <time>2023-07-08T14:02:58Z</time>
      </trkpt>
      <trkpt lat="45.48707" lon="4.81482">
        <ele>156.2</ele>
        <time>2023-07-08T14:02:59Z</time>
      </trkpt>
      <trkpt lat="45.48711" lon="4.81487">
        <ele>156.2</ele>
        <time>2023-07-08T14:03:00Z</time>
      </trkpt>
      <trkpt lat="45.48719" lon="4.81495">
        <ele>156</ele>
        <time>2023-07-08T14:03:02Z</time>
      </trkpt>
      <trkpt lat="45.48724" lon="4.81498">
        <ele>156</ele>
        <time>2023-07-08T14:03:03Z</time>
      </trkpt>
      <trkpt lat="45.48732" lon="4.81502">
        <ele>156</ele>
        <time>2023-07-08T14:03:05Z</time>
      </trkpt>
      <trkpt lat="45.48736" lon="4.81505">
        <ele>156</ele>
        <time>2023-07-08T14:03:06Z</time>
      </trkpt>
      <trkpt lat="45.4874" lon="4.81506">
        <ele>156</ele>
        <time>2023-07-08T14:03:07Z</time>
      </trkpt>
      <trkpt lat="45.48771" lon="4.81526">
        <ele>156.4</ele>
        <time>2023-07-08T14:03:20Z</time>
      </trkpt>
      <trkpt lat="45.48771" lon="4.81537">
        <ele>157.2</ele>
        <time>2023-07-08T14:03:33Z</time>
      </trkpt>
      <trkpt lat="45.48779" lon="4.81534">
        <ele>155.4</ele>
        <time>2023-07-08T14:08:19Z</time>
      </trkpt>
      <trkpt lat="45.48779" lon="4.81531">
        <ele>155.4</ele>
        <time>2023-07-08T14:08:22Z</time>
      </trkpt>
      <trkpt lat="45.48789" lon="4.81535">
        <ele>156.6</ele>
        <time>2023-07-08T14:09:16Z</time>
      </trkpt>
      <trkpt lat="45.48821" lon="4.81563">
        <ele>156.4</ele>
        <time>2023-07-08T14:09:29Z</time>
      </trkpt>
      <trkpt lat="45.48838" lon="4.8158">
        <ele>156.4</ele>
        <time>2023-07-08T14:09:34Z</time>
      </trkpt>
      <trkpt lat="45.48842" lon="4.81583">
        <ele>156.4</ele>
        <time>2023-07-08T14:09:35Z</time>
      </trkpt>
      <trkpt lat="45.48845" lon="4.81587">
        <ele>156.4</ele>
        <time>2023-07-08T14:09:36Z</time>
      </trkpt>
      <trkpt lat="45.48851" lon="4.81594">
        <ele>156.4</ele>
        <time>2023-07-08T14:09:38Z</time>
      </trkpt>
      <trkpt lat="45.48883" lon="4.81625">
        <ele>156.2</ele>
        <time>2023-07-08T14:09:50Z</time>
      </trkpt>
      <trkpt lat="45.48921" lon="4.81659">
        <ele>156.4</ele>
        <time>2023-07-08T14:10:00Z</time>
      </trkpt>
      <trkpt lat="45.48981" lon="4.81718">
        <ele>156.4</ele>
        <time>2023-07-08T14:10:15Z</time>
      </trkpt>
      <trkpt lat="45.49037" lon="4.81763">
        <ele>156.4</ele>
        <time>2023-07-08T14:10:27Z</time>
      </trkpt>
      <trkpt lat="45.49042" lon="4.81767">
        <ele>156.4</ele>
        <time>2023-07-08T14:10:28Z</time>
      </trkpt>
      <trkpt lat="45.49106" lon="4.81819">
        <ele>155.4</ele>
        <time>2023-07-08T14:10:42Z</time>
      </trkpt>
      <trkpt lat="45.49121" lon="4.81828">
        <ele>155.4</ele>
        <time>2023-07-08T14:10:45Z</time>
      </trkpt>
      <trkpt lat="45.49163" lon="4.81847">
        <ele>155.2</ele>
        <time>2023-07-08T14:10:53Z</time>
      </trkpt>
      <trkpt lat="45.49238" lon="4.81909">
        <ele>155.2</ele>
        <time>2023-07-08T14:11:08Z</time>
      </trkpt>
      <trkpt lat="45.49274" lon="4.81945">
        <ele>155</ele>
        <time>2023-07-08T14:11:17Z</time>
      </trkpt>
      <trkpt lat="45.49278" lon="4.81949">
        <ele>154.8</ele>
        <time>2023-07-08T14:11:18Z</time>
      </trkpt>
      <trkpt lat="45.49289" lon="4.81959">
        <ele>154.8</ele>
        <time>2023-07-08T14:11:21Z</time>
      </trkpt>
      <trkpt lat="45.49296" lon="4.81968">
        <ele>154.8</ele>
        <time>2023-07-08T14:11:23Z</time>
      </trkpt>
      <trkpt lat="45.49299" lon="4.81973">
        <ele>154.8</ele>
        <time>2023-07-08T14:11:24Z</time>
      </trkpt>
      <trkpt lat="45.49308" lon="4.81994">
        <ele>154.8</ele>
        <time>2023-07-08T14:11:28Z</time>
      </trkpt>
      <trkpt lat="45.49309" lon="4.81999">
        <ele>154.8</ele>
        <time>2023-07-08T14:11:29Z</time>
      </trkpt>
      <trkpt lat="45.49312" lon="4.82002">
        <ele>154.8</ele>
        <time>2023-07-08T14:11:30Z</time>
      </trkpt>
      <trkpt lat="45.49315" lon="4.82003">
        <ele>154.8</ele>
        <time>2023-07-08T14:11:31Z</time>
      </trkpt>
      <trkpt lat="45.49318" lon="4.82005">
        <ele>154.8</ele>
        <time>2023-07-08T14:11:32Z</time>
      </trkpt>
      <trkpt lat="45.4933" lon="4.82015">
        <ele>154.8</ele>
        <time>2023-07-08T14:11:36Z</time>
      </trkpt>
      <trkpt lat="45.49358" lon="4.82045">
        <ele>155.2</ele>
        <time>2023-07-08T14:11:45Z</time>
      </trkpt>
      <trkpt lat="45.49362" lon="4.82048">
        <ele>155.4</ele>
        <time>2023-07-08T14:11:46Z</time>
      </trkpt>
      <trkpt lat="45.49369" lon="4.82054">
        <ele>155.4</ele>
        <time>2023-07-08T14:11:48Z</time>
      </trkpt>
      <trkpt lat="45.49428" lon="4.82113">
        <ele>155.6</ele>
        <time>2023-07-08T14:12:04Z</time>
      </trkpt>
      <trkpt lat="45.49432" lon="4.82116">
        <ele>155.6</ele>
        <time>2023-07-08T14:12:05Z</time>
      </trkpt>
      <trkpt lat="45.49497" lon="4.82154">
        <ele>155.8</ele>
        <time>2023-07-08T14:12:20Z</time>
      </trkpt>
      <trkpt lat="45.49559" lon="4.82202">
        <ele>156</ele>
        <time>2023-07-08T14:12:34Z</time>
      </trkpt>
      <trkpt lat="45.49587" lon="4.82221">
        <ele>156</ele>
        <time>2023-07-08T14:12:40Z</time>
      </trkpt>
      <trkpt lat="45.49611" lon="4.82244">
        <ele>156</ele>
        <time>2023-07-08T14:12:46Z</time>
      </trkpt>
      <trkpt lat="45.49615" lon="4.82246">
        <ele>156</ele>
        <time>2023-07-08T14:12:47Z</time>
      </trkpt>
      <trkpt lat="45.49619" lon="4.82245">
        <ele>156</ele>
        <time>2023-07-08T14:12:48Z</time>
      </trkpt>
      <trkpt lat="45.49624" lon="4.82244">
        <ele>156</ele>
        <time>2023-07-08T14:12:49Z</time>
      </trkpt>
      <trkpt lat="45.49628" lon="4.82241">
        <ele>156</ele>
        <time>2023-07-08T14:12:50Z</time>
      </trkpt>
      <trkpt lat="45.49631" lon="4.8224">
        <ele>156</ele>
        <time>2023-07-08T14:12:51Z</time>
      </trkpt>
      <trkpt lat="45.49634" lon="4.82242">
        <ele>156</ele>
        <time>2023-07-08T14:12:52Z</time>
      </trkpt>
      <trkpt lat="45.49636" lon="4.82246">
        <ele>156</ele>
        <time>2023-07-08T14:12:53Z</time>
      </trkpt>
      <trkpt lat="45.49675" lon="4.82307">
        <ele>156.8</ele>
        <time>2023-07-08T14:13:07Z</time>
      </trkpt>
      <trkpt lat="45.49693" lon="4.82335">
        <ele>157.4</ele>
        <time>2023-07-08T14:13:13Z</time>
      </trkpt>
      <trkpt lat="45.497" lon="4.82345">
        <ele>157.8</ele>
        <time>2023-07-08T14:13:15Z</time>
      </trkpt>
      <trkpt lat="45.49743" lon="4.82431">
        <ele>159</ele>
        <time>2023-07-08T14:13:29Z</time>
      </trkpt>
      <trkpt lat="45.49758" lon="4.82461">
        <ele>158.4</ele>
        <time>2023-07-08T14:13:35Z</time>
      </trkpt>
      <trkpt lat="45.49759" lon="4.82467">
        <ele>158.4</ele>
        <time>2023-07-08T14:13:36Z</time>
      </trkpt>
      <trkpt lat="45.49758" lon="4.82473">
        <ele>158.4</ele>
        <time>2023-07-08T14:13:37Z</time>
      </trkpt>
      <trkpt lat="45.49757" lon="4.82478">
        <ele>158.4</ele>
        <time>2023-07-08T14:13:38Z</time>
      </trkpt>
      <trkpt lat="45.49754" lon="4.82483">
        <ele>158.2</ele>
        <time>2023-07-08T14:13:39Z</time>
      </trkpt>
      <trkpt lat="45.4975" lon="4.82487">
        <ele>158.2</ele>
        <time>2023-07-08T14:13:40Z</time>
      </trkpt>
      <trkpt lat="45.49685" lon="4.82564">
        <ele>157.6</ele>
        <time>2023-07-08T14:13:58Z</time>
      </trkpt>
      <trkpt lat="45.49678" lon="4.82573">
        <ele>157.4</ele>
        <time>2023-07-08T14:14:00Z</time>
      </trkpt>
      <trkpt lat="45.49674" lon="4.82576">
        <ele>157.2</ele>
        <time>2023-07-08T14:14:01Z</time>
      </trkpt>
      <trkpt lat="45.4967" lon="4.82581">
        <ele>157.2</ele>
        <time>2023-07-08T14:14:02Z</time>
      </trkpt>
      <trkpt lat="45.49668" lon="4.82586">
        <ele>157.2</ele>
        <time>2023-07-08T14:14:03Z</time>
      </trkpt>
      <trkpt lat="45.49669" lon="4.82592">
        <ele>157.2</ele>
        <time>2023-07-08T14:14:04Z</time>
      </trkpt>
      <trkpt lat="45.49671" lon="4.82598">
        <ele>157.2</ele>
        <time>2023-07-08T14:14:05Z</time>
      </trkpt>
      <trkpt lat="45.49673" lon="4.82604">
        <ele>157</ele>
        <time>2023-07-08T14:14:06Z</time>
      </trkpt>
      <trkpt lat="45.49676" lon="4.8261">
        <ele>157</ele>
        <time>2023-07-08T14:14:07Z</time>
      </trkpt>
      <trkpt lat="45.49679" lon="4.82616">
        <ele>157</ele>
        <time>2023-07-08T14:14:08Z</time>
      </trkpt>
      <trkpt lat="45.49682" lon="4.82622">
        <ele>157</ele>
        <time>2023-07-08T14:14:09Z</time>
      </trkpt>
      <trkpt lat="45.49747" lon="4.82728">
        <ele>157</ele>
        <time>2023-07-08T14:14:25Z</time>
      </trkpt>
      <trkpt lat="45.49811" lon="4.82834">
        <ele>156.2</ele>
        <time>2023-07-08T14:14:41Z</time>
      </trkpt>
      <trkpt lat="45.49887" lon="4.82959">
        <ele>156.4</ele>
        <time>2023-07-08T14:15:00Z</time>
      </trkpt>
      <trkpt lat="45.49959" lon="4.8308">
        <ele>156.8</ele>
        <time>2023-07-08T14:15:18Z</time>
      </trkpt>
      <trkpt lat="45.50007" lon="4.83194">
        <ele>155.6</ele>
        <time>2023-07-08T14:15:33Z</time>
      </trkpt>
      <trkpt lat="45.50053" lon="4.8335">
        <ele>155.8</ele>
        <time>2023-07-08T14:15:52Z</time>
      </trkpt>
      <trkpt lat="45.50086" lon="4.83491">
        <ele>156.4</ele>
        <time>2023-07-08T14:16:09Z</time>
      </trkpt>
      <trkpt lat="45.50123" lon="4.83634">
        <ele>156.4</ele>
        <time>2023-07-08T14:16:27Z</time>
      </trkpt>
      <trkpt lat="45.50126" lon="4.83642">
        <ele>156.2</ele>
        <time>2023-07-08T14:16:28Z</time>
      </trkpt>
      <trkpt lat="45.50128" lon="4.8365">
        <ele>156.2</ele>
        <time>2023-07-08T14:16:29Z</time>
      </trkpt>
      <trkpt lat="45.50162" lon="4.83763">
        <ele>156.4</ele>
        <time>2023-07-08T14:16:44Z</time>
      </trkpt>
      <trkpt lat="45.50173" lon="4.8379">
        <ele>156.8</ele>
        <time>2023-07-08T14:16:48Z</time>
      </trkpt>
      <trkpt lat="45.50188" lon="4.83829">
        <ele>157.2</ele>
        <time>2023-07-08T14:16:55Z</time>
      </trkpt>
      <trkpt lat="45.50188" lon="4.83834">
        <ele>157.4</ele>
        <time>2023-07-08T14:16:56Z</time>
      </trkpt>
      <trkpt lat="45.50187" lon="4.8384">
        <ele>157.6</ele>
        <time>2023-07-08T14:16:57Z</time>
      </trkpt>
      <trkpt lat="45.50185" lon="4.83845">
        <ele>157.8</ele>
        <time>2023-07-08T14:16:58Z</time>
      </trkpt>
      <trkpt lat="45.50182" lon="4.8385">
        <ele>158.2</ele>
        <time>2023-07-08T14:16:59Z</time>
      </trkpt>
      <trkpt lat="45.5018" lon="4.83855">
        <ele>158.2</ele>
        <time>2023-07-08T14:17:00Z</time>
      </trkpt>
      <trkpt lat="45.50176" lon="4.83859">
        <ele>158.4</ele>
        <time>2023-07-08T14:17:01Z</time>
      </trkpt>
      <trkpt lat="45.50172" lon="4.83862">
        <ele>158.4</ele>
        <time>2023-07-08T14:17:02Z</time>
      </trkpt>
      <trkpt lat="45.50167" lon="4.83865">
        <ele>158.4</ele>
        <time>2023-07-08T14:17:03Z</time>
      </trkpt>
      <trkpt lat="45.50163" lon="4.83868">
        <ele>158.4</ele>
        <time>2023-07-08T14:17:04Z</time>
      </trkpt>
      <trkpt lat="45.5016" lon="4.83873">
        <ele>158.4</ele>
        <time>2023-07-08T14:17:05Z</time>
      </trkpt>
      <trkpt lat="45.50157" lon="4.83878">
        <ele>158.6</ele>
        <time>2023-07-08T14:17:06Z</time>
      </trkpt>
      <trkpt lat="45.50156" lon="4.83884">
        <ele>158.6</ele>
        <time>2023-07-08T14:17:07Z</time>
      </trkpt>
      <trkpt lat="45.50155" lon="4.8389">
        <ele>158.6</ele>
        <time>2023-07-08T14:17:08Z</time>
      </trkpt>
      <trkpt lat="45.50155" lon="4.83896">
        <ele>158.6</ele>
        <time>2023-07-08T14:17:09Z</time>
      </trkpt>
      <trkpt lat="45.50157" lon="4.83902">
        <ele>158.6</ele>
        <time>2023-07-08T14:17:10Z</time>
      </trkpt>
      <trkpt lat="45.50159" lon="4.83908">
        <ele>158.8</ele>
        <time>2023-07-08T14:17:11Z</time>
      </trkpt>
      <trkpt lat="45.50161" lon="4.83914">
        <ele>158.8</ele>
        <time>2023-07-08T14:17:12Z</time>
      </trkpt>
      <trkpt lat="45.50166" lon="4.83927">
        <ele>158.8</ele>
        <time>2023-07-08T14:17:14Z</time>
      </trkpt>
      <trkpt lat="45.50217" lon="4.84018">
        <ele>160.2</ele>
        <time>2023-07-08T14:17:29Z</time>
      </trkpt>
      <trkpt lat="45.50289" lon="4.8412">
        <ele>159.6</ele>
        <time>2023-07-08T14:17:46Z</time>
      </trkpt>
      <trkpt lat="45.5036" lon="4.84203">
        <ele>159.4</ele>
        <time>2023-07-08T14:18:03Z</time>
      </trkpt>
      <trkpt lat="45.50394" lon="4.84242">
        <ele>159.4</ele>
        <time>2023-07-08T14:18:11Z</time>
      </trkpt>
      <trkpt lat="45.50452" lon="4.8431">
        <ele>159.8</ele>
        <time>2023-07-08T14:18:27Z</time>
      </trkpt>
      <trkpt lat="45.50525" lon="4.84397">
        <ele>159.2</ele>
        <time>2023-07-08T14:18:44Z</time>
      </trkpt>
      <trkpt lat="45.50603" lon="4.84502">
        <ele>159.2</ele>
        <time>2023-07-08T14:19:03Z</time>
      </trkpt>
      <trkpt lat="45.50672" lon="4.84594">
        <ele>159</ele>
        <time>2023-07-08T14:19:19Z</time>
      </trkpt>
      <trkpt lat="45.50723" lon="4.84665">
        <ele>159.4</ele>
        <time>2023-07-08T14:19:32Z</time>
      </trkpt>
      <trkpt lat="45.50797" lon="4.84766">
        <ele>159.6</ele>
        <time>2023-07-08T14:19:49Z</time>
      </trkpt>
      <trkpt lat="45.50871" lon="4.84868">
        <ele>159.6</ele>
        <time>2023-07-08T14:20:07Z</time>
      </trkpt>
      <trkpt lat="45.50887" lon="4.8489">
        <ele>159.8</ele>
        <time>2023-07-08T14:20:11Z</time>
      </trkpt>
      <trkpt lat="45.50961" lon="4.84988">
        <ele>159.6</ele>
        <time>2023-07-08T14:20:28Z</time>
      </trkpt>
      <trkpt lat="45.51028" lon="4.85075">
        <ele>159.2</ele>
        <time>2023-07-08T14:20:44Z</time>
      </trkpt>
      <trkpt lat="45.51077" lon="4.85141">
        <ele>160</ele>
        <time>2023-07-08T14:20:58Z</time>
      </trkpt>
      <trkpt lat="45.51152" lon="4.8524">
        <ele>159.4</ele>
        <time>2023-07-08T14:21:15Z</time>
      </trkpt>
      <trkpt lat="45.51193" lon="4.85289">
        <ele>159.4</ele>
        <time>2023-07-08T14:21:25Z</time>
      </trkpt>
      <trkpt lat="45.51196" lon="4.85294">
        <ele>159.4</ele>
        <time>2023-07-08T14:21:26Z</time>
      </trkpt>
      <trkpt lat="45.51198" lon="4.85299">
        <ele>159.6</ele>
        <time>2023-07-08T14:21:27Z</time>
      </trkpt>
      <trkpt lat="45.51201" lon="4.85305">
        <ele>159.8</ele>
        <time>2023-07-08T14:21:28Z</time>
      </trkpt>
      <trkpt lat="45.51205" lon="4.85309">
        <ele>159.8</ele>
        <time>2023-07-08T14:21:29Z</time>
      </trkpt>
      <trkpt lat="45.51209" lon="4.85313">
        <ele>160</ele>
        <time>2023-07-08T14:21:30Z</time>
      </trkpt>
      <trkpt lat="45.51214" lon="4.85317">
        <ele>160</ele>
        <time>2023-07-08T14:21:31Z</time>
      </trkpt>
      <trkpt lat="45.5123" lon="4.85332">
        <ele>160.2</ele>
        <time>2023-07-08T14:21:35Z</time>
      </trkpt>
      <trkpt lat="45.51233" lon="4.85337">
        <ele>160.2</ele>
        <time>2023-07-08T14:21:36Z</time>
      </trkpt>
      <trkpt lat="45.5124" lon="4.85348">
        <ele>160.4</ele>
        <time>2023-07-08T14:21:38Z</time>
      </trkpt>
      <trkpt lat="45.51246" lon="4.8535">
        <ele>160.4</ele>
        <time>2023-07-08T14:21:39Z</time>
      </trkpt>
      <trkpt lat="45.51252" lon="4.8535">
        <ele>160.4</ele>
        <time>2023-07-08T14:21:40Z</time>
      </trkpt>
      <trkpt lat="45.51257" lon="4.85347">
        <ele>160.4</ele>
        <time>2023-07-08T14:21:41Z</time>
      </trkpt>
      <trkpt lat="45.51262" lon="4.85343">
        <ele>160.4</ele>
        <time>2023-07-08T14:21:42Z</time>
      </trkpt>
      <trkpt lat="45.51277" lon="4.85332">
        <ele>160.2</ele>
        <time>2023-07-08T14:21:45Z</time>
      </trkpt>
      <trkpt lat="45.51282" lon="4.85331">
        <ele>160.2</ele>
        <time>2023-07-08T14:21:46Z</time>
      </trkpt>
      <trkpt lat="45.51287" lon="4.8533">
        <ele>159.8</ele>
        <time>2023-07-08T14:21:47Z</time>
      </trkpt>
      <trkpt lat="45.51291" lon="4.85332">
        <ele>159.8</ele>
        <time>2023-07-08T14:21:48Z</time>
      </trkpt>
      <trkpt lat="45.51296" lon="4.85336">
        <ele>159.6</ele>
        <time>2023-07-08T14:21:49Z</time>
      </trkpt>
      <trkpt lat="45.513" lon="4.85342">
        <ele>159.6</ele>
        <time>2023-07-08T14:21:50Z</time>
      </trkpt>
      <trkpt lat="45.51303" lon="4.85348">
        <ele>159.6</ele>
        <time>2023-07-08T14:21:51Z</time>
      </trkpt>
      <trkpt lat="45.51352" lon="4.85454">
        <ele>159</ele>
        <time>2023-07-08T14:22:06Z</time>
      </trkpt>
      <trkpt lat="45.5139" lon="4.85545">
        <ele>158.6</ele>
        <time>2023-07-08T14:22:20Z</time>
      </trkpt>
      <trkpt lat="45.51444" lon="4.85645">
        <ele>158</ele>
        <time>2023-07-08T14:22:35Z</time>
      </trkpt>
      <trkpt lat="45.51505" lon="4.85726">
        <ele>157.8</ele>
        <time>2023-07-08T14:22:49Z</time>
      </trkpt>
      <trkpt lat="45.51604" lon="4.85851">
        <ele>158.2</ele>
        <time>2023-07-08T14:23:10Z</time>
      </trkpt>
      <trkpt lat="45.51696" lon="4.85966">
        <ele>158.8</ele>
        <time>2023-07-08T14:23:29Z</time>
      </trkpt>
      <trkpt lat="45.51775" lon="4.86063">
        <ele>158.8</ele>
        <time>2023-07-08T14:23:46Z</time>
      </trkpt>
      <trkpt lat="45.51795" lon="4.86086">
        <ele>158.8</ele>
        <time>2023-07-08T14:23:50Z</time>
      </trkpt>
      <trkpt lat="45.51867" lon="4.86164">
        <ele>158.6</ele>
        <time>2023-07-08T14:24:06Z</time>
      </trkpt>
      <trkpt lat="45.51917" lon="4.86216">
        <ele>158.4</ele>
        <time>2023-07-08T14:24:17Z</time>
      </trkpt>
      <trkpt lat="45.51921" lon="4.86221">
        <ele>158.4</ele>
        <time>2023-07-08T14:24:18Z</time>
      </trkpt>
      <trkpt lat="45.51925" lon="4.86227">
        <ele>158.4</ele>
        <time>2023-07-08T14:24:19Z</time>
      </trkpt>
      <trkpt lat="45.51995" lon="4.86303">
        <ele>158.4</ele>
        <time>2023-07-08T14:24:34Z</time>
      </trkpt>
      <trkpt lat="45.52007" lon="4.86316">
        <ele>158.4</ele>
        <time>2023-07-08T14:24:37Z</time>
      </trkpt>
      <trkpt lat="45.5201" lon="4.86321">
        <ele>158.6</ele>
        <time>2023-07-08T14:24:38Z</time>
      </trkpt>
      <trkpt lat="45.52043" lon="4.86356">
        <ele>158.8</ele>
        <time>2023-07-08T14:24:47Z</time>
      </trkpt>
      <trkpt lat="45.52102" lon="4.86422">
        <ele>158.8</ele>
        <time>2023-07-08T14:25:01Z</time>
      </trkpt>
      <trkpt lat="45.52164" lon="4.8649">
        <ele>158.6</ele>
        <time>2023-07-08T14:25:16Z</time>
      </trkpt>
      <trkpt lat="45.5222" lon="4.86555">
        <ele>158.8</ele>
        <time>2023-07-08T14:25:29Z</time>
      </trkpt>
      <trkpt lat="45.52251" lon="4.86592">
        <ele>158.8</ele>
        <time>2023-07-08T14:25:38Z</time>
      </trkpt>
      <trkpt lat="45.52254" lon="4.86596">
        <ele>158.8</ele>
        <time>2023-07-08T14:25:39Z</time>
      </trkpt>
      <trkpt lat="45.52285" lon="4.86634">
        <ele>159.4</ele>
        <time>2023-07-08T14:25:49Z</time>
      </trkpt>
      <trkpt lat="45.5234" lon="4.86715">
        <ele>159.4</ele>
        <time>2023-07-08T14:26:04Z</time>
      </trkpt>
      <trkpt lat="45.52398" lon="4.86791">
        <ele>159.4</ele>
        <time>2023-07-08T14:26:19Z</time>
      </trkpt>
      <trkpt lat="45.52417" lon="4.86811">
        <ele>159.4</ele>
        <time>2023-07-08T14:26:24Z</time>
      </trkpt>
      <trkpt lat="45.52439" lon="4.86827">
        <ele>159.4</ele>
        <time>2023-07-08T14:26:29Z</time>
      </trkpt>
      <trkpt lat="45.52443" lon="4.86831">
        <ele>159.4</ele>
        <time>2023-07-08T14:26:30Z</time>
      </trkpt>
      <trkpt lat="45.52452" lon="4.8684">
        <ele>159.4</ele>
        <time>2023-07-08T14:26:32Z</time>
      </trkpt>
      <trkpt lat="45.52489" lon="4.86869">
        <ele>159.6</ele>
        <time>2023-07-08T14:26:40Z</time>
      </trkpt>
      <trkpt lat="45.52549" lon="4.86914">
        <ele>159.4</ele>
        <time>2023-07-08T14:26:53Z</time>
      </trkpt>
      <trkpt lat="45.52553" lon="4.86918">
        <ele>159.4</ele>
        <time>2023-07-08T14:26:54Z</time>
      </trkpt>
      <trkpt lat="45.52557" lon="4.86921">
        <ele>159.4</ele>
        <time>2023-07-08T14:26:55Z</time>
      </trkpt>
      <trkpt lat="45.52627" lon="4.86968">
        <ele>159.6</ele>
        <time>2023-07-08T14:27:09Z</time>
      </trkpt>
      <trkpt lat="45.52673" lon="4.87005">
        <ele>159.2</ele>
        <time>2023-07-08T14:27:18Z</time>
      </trkpt>
      <trkpt lat="45.52678" lon="4.87009">
        <ele>159.2</ele>
        <time>2023-07-08T14:27:19Z</time>
      </trkpt>
      <trkpt lat="45.52683" lon="4.87012">
        <ele>159.2</ele>
        <time>2023-07-08T14:27:20Z</time>
      </trkpt>
      <trkpt lat="45.52722" lon="4.87034">
        <ele>159.4</ele>
        <time>2023-07-08T14:27:27Z</time>
      </trkpt>
      <trkpt lat="45.52742" lon="4.8705">
        <ele>159.4</ele>
        <time>2023-07-08T14:27:31Z</time>
      </trkpt>
      <trkpt lat="45.52757" lon="4.87059">
        <ele>159.4</ele>
        <time>2023-07-08T14:27:34Z</time>
      </trkpt>
      <trkpt lat="45.52762" lon="4.87061">
        <ele>159.4</ele>
        <time>2023-07-08T14:27:35Z</time>
      </trkpt>
      <trkpt lat="45.52767" lon="4.87063">
        <ele>159.4</ele>
        <time>2023-07-08T14:27:36Z</time>
      </trkpt>
      <trkpt lat="45.52771" lon="4.87065">
        <ele>159.4</ele>
        <time>2023-07-08T14:27:37Z</time>
      </trkpt>
      <trkpt lat="45.52776" lon="4.87068">
        <ele>159.4</ele>
        <time>2023-07-08T14:27:38Z</time>
      </trkpt>
      <trkpt lat="45.5278" lon="4.87072">
        <ele>159.4</ele>
        <time>2023-07-08T14:27:39Z</time>
      </trkpt>
      <trkpt lat="45.52785" lon="4.87075">
        <ele>159.4</ele>
        <time>2023-07-08T14:27:40Z</time>
      </trkpt>
      <trkpt lat="45.5279" lon="4.87078">
        <ele>159.4</ele>
        <time>2023-07-08T14:27:41Z</time>
      </trkpt>
      <trkpt lat="45.52799" lon="4.87085">
        <ele>159.4</ele>
        <time>2023-07-08T14:27:43Z</time>
      </trkpt>
      <trkpt lat="45.52844" lon="4.8712">
        <ele>159.2</ele>
        <time>2023-07-08T14:27:55Z</time>
      </trkpt>
      <trkpt lat="45.52852" lon="4.87123">
        <ele>159.2</ele>
        <time>2023-07-08T14:27:57Z</time>
      </trkpt>
      <trkpt lat="45.52856" lon="4.87124">
        <ele>159.2</ele>
        <time>2023-07-08T14:27:58Z</time>
      </trkpt>
      <trkpt lat="45.52866" lon="4.87126">
        <ele>159.2</ele>
        <time>2023-07-08T14:28:00Z</time>
      </trkpt>
      <trkpt lat="45.5287" lon="4.87129">
        <ele>159.2</ele>
        <time>2023-07-08T14:28:01Z</time>
      </trkpt>
      <trkpt lat="45.52875" lon="4.8713">
        <ele>159.2</ele>
        <time>2023-07-08T14:28:02Z</time>
      </trkpt>
      <trkpt lat="45.52884" lon="4.87133">
        <ele>159.4</ele>
        <time>2023-07-08T14:28:04Z</time>
      </trkpt>
      <trkpt lat="45.52895" lon="4.87135">
        <ele>159.6</ele>
        <time>2023-07-08T14:28:06Z</time>
      </trkpt>
      <trkpt lat="45.52941" lon="4.87146">
        <ele>159.8</ele>
        <time>2023-07-08T14:28:14Z</time>
      </trkpt>
      <trkpt lat="45.52954" lon="4.87146">
        <ele>159.6</ele>
        <time>2023-07-08T14:28:16Z</time>
      </trkpt>
      <trkpt lat="45.53003" lon="4.8716">
        <ele>159</ele>
        <time>2023-07-08T14:28:25Z</time>
      </trkpt>
      <trkpt lat="45.53008" lon="4.87162">
        <ele>159</ele>
        <time>2023-07-08T14:28:26Z</time>
      </trkpt>
      <trkpt lat="45.53013" lon="4.87163">
        <ele>159</ele>
        <time>2023-07-08T14:28:27Z</time>
      </trkpt>
      <trkpt lat="45.53022" lon="4.87165">
        <ele>159</ele>
        <time>2023-07-08T14:28:29Z</time>
      </trkpt>
      <trkpt lat="45.53026" lon="4.87165">
        <ele>159</ele>
        <time>2023-07-08T14:28:30Z</time>
      </trkpt>
      <trkpt lat="45.5303" lon="4.87165">
        <ele>159</ele>
        <time>2023-07-08T14:28:31Z</time>
      </trkpt>
      <trkpt lat="45.53039" lon="4.87166">
        <ele>159.2</ele>
        <time>2023-07-08T14:28:33Z</time>
      </trkpt>
      <trkpt lat="45.53048" lon="4.87169">
        <ele>159.2</ele>
        <time>2023-07-08T14:28:35Z</time>
      </trkpt>
      <trkpt lat="45.53068" lon="4.87174">
        <ele>159.4</ele>
        <time>2023-07-08T14:28:40Z</time>
      </trkpt>
      <trkpt lat="45.53073" lon="4.87174">
        <ele>159.6</ele>
        <time>2023-07-08T14:28:41Z</time>
      </trkpt>
      <trkpt lat="45.53078" lon="4.87174">
        <ele>159.6</ele>
        <time>2023-07-08T14:28:42Z</time>
      </trkpt>
      <trkpt lat="45.53101" lon="4.87172">
        <ele>159.6</ele>
        <time>2023-07-08T14:28:46Z</time>
      </trkpt>
      <trkpt lat="45.53107" lon="4.8717">
        <ele>159.6</ele>
        <time>2023-07-08T14:28:47Z</time>
      </trkpt>
      <trkpt lat="45.53113" lon="4.87168">
        <ele>159.6</ele>
        <time>2023-07-08T14:28:48Z</time>
      </trkpt>
      <trkpt lat="45.53137" lon="4.87158">
        <ele>159.4</ele>
        <time>2023-07-08T14:28:52Z</time>
      </trkpt>
      <trkpt lat="45.53173" lon="4.8714">
        <ele>159.2</ele>
        <time>2023-07-08T14:28:58Z</time>
      </trkpt>
      <trkpt lat="45.53207" lon="4.87114">
        <ele>159.2</ele>
        <time>2023-07-08T14:29:05Z</time>
      </trkpt>
      <trkpt lat="45.53211" lon="4.8711">
        <ele>159.2</ele>
        <time>2023-07-08T14:29:06Z</time>
      </trkpt>
      <trkpt lat="45.53252" lon="4.87076">
        <ele>159.2</ele>
        <time>2023-07-08T14:29:15Z</time>
      </trkpt>
      <trkpt lat="45.53256" lon="4.87071">
        <ele>159.2</ele>
        <time>2023-07-08T14:29:16Z</time>
      </trkpt>
      <trkpt lat="45.53261" lon="4.87067">
        <ele>159.2</ele>
        <time>2023-07-08T14:29:17Z</time>
      </trkpt>
      <trkpt lat="45.53314" lon="4.87019">
        <ele>159.4</ele>
        <time>2023-07-08T14:29:30Z</time>
      </trkpt>
      <trkpt lat="45.53329" lon="4.87004">
        <ele>159.6</ele>
        <time>2023-07-08T14:29:34Z</time>
      </trkpt>
      <trkpt lat="45.53334" lon="4.87">
        <ele>159.6</ele>
        <time>2023-07-08T14:29:35Z</time>
      </trkpt>
      <trkpt lat="45.53337" lon="4.86995">
        <ele>159.6</ele>
        <time>2023-07-08T14:29:36Z</time>
      </trkpt>
      <trkpt lat="45.53365" lon="4.8696">
        <ele>159.8</ele>
        <time>2023-07-08T14:29:43Z</time>
      </trkpt>
      <trkpt lat="45.53369" lon="4.86956">
        <ele>159.8</ele>
        <time>2023-07-08T14:29:44Z</time>
      </trkpt>
      <trkpt lat="45.53372" lon="4.86951">
        <ele>159.8</ele>
        <time>2023-07-08T14:29:45Z</time>
      </trkpt>
      <trkpt lat="45.53438" lon="4.86853">
        <ele>159.8</ele>
        <time>2023-07-08T14:30:02Z</time>
      </trkpt>
      <trkpt lat="45.53449" lon="4.86839">
        <ele>159.8</ele>
        <time>2023-07-08T14:30:05Z</time>
      </trkpt>
      <trkpt lat="45.53461" lon="4.86819">
        <ele>159.6</ele>
        <time>2023-07-08T14:30:09Z</time>
      </trkpt>
      <trkpt lat="45.53491" lon="4.86776">
        <ele>159.6</ele>
        <time>2023-07-08T14:30:17Z</time>
      </trkpt>
      <trkpt lat="45.53494" lon="4.8677">
        <ele>159.6</ele>
        <time>2023-07-08T14:30:18Z</time>
      </trkpt>
      <trkpt lat="45.53498" lon="4.86763">
        <ele>159.6</ele>
        <time>2023-07-08T14:30:19Z</time>
      </trkpt>
      <trkpt lat="45.5354" lon="4.86668">
        <ele>159.4</ele>
        <time>2023-07-08T14:30:33Z</time>
      </trkpt>
      <trkpt lat="45.5355" lon="4.86647">
        <ele>159.2</ele>
        <time>2023-07-08T14:30:36Z</time>
      </trkpt>
      <trkpt lat="45.53553" lon="4.8664">
        <ele>159.2</ele>
        <time>2023-07-08T14:30:37Z</time>
      </trkpt>
      <trkpt lat="45.53593" lon="4.86543">
        <ele>159.2</ele>
        <time>2023-07-08T14:30:51Z</time>
      </trkpt>
      <trkpt lat="45.53605" lon="4.86515">
        <ele>159.2</ele>
        <time>2023-07-08T14:30:55Z</time>
      </trkpt>
      <trkpt lat="45.53607" lon="4.86507">
        <ele>159.2</ele>
        <time>2023-07-08T14:30:56Z</time>
      </trkpt>
      <trkpt lat="45.53609" lon="4.865">
        <ele>159.2</ele>
        <time>2023-07-08T14:30:57Z</time>
      </trkpt>
      <trkpt lat="45.53612" lon="4.86493">
        <ele>159.2</ele>
        <time>2023-07-08T14:30:58Z</time>
      </trkpt>
      <trkpt lat="45.53614" lon="4.86485">
        <ele>159.2</ele>
        <time>2023-07-08T14:30:59Z</time>
      </trkpt>
      <trkpt lat="45.53634" lon="4.86411">
        <ele>158.8</ele>
        <time>2023-07-08T14:31:09Z</time>
      </trkpt>
      <trkpt lat="45.53649" lon="4.8636">
        <ele>159.6</ele>
        <time>2023-07-08T14:31:17Z</time>
      </trkpt>
      <trkpt lat="45.53656" lon="4.86341">
        <ele>159.6</ele>
        <time>2023-07-08T14:31:20Z</time>
      </trkpt>
      <trkpt lat="45.53699" lon="4.86224">
        <ele>159.4</ele>
        <time>2023-07-08T14:31:37Z</time>
      </trkpt>
      <trkpt lat="45.53736" lon="4.86115">
        <ele>159.6</ele>
        <time>2023-07-08T14:31:52Z</time>
      </trkpt>
      <trkpt lat="45.53748" lon="4.86066">
        <ele>159.6</ele>
        <time>2023-07-08T14:31:59Z</time>
      </trkpt>
      <trkpt lat="45.53761" lon="4.85971">
        <ele>159.8</ele>
        <time>2023-07-08T14:32:14Z</time>
      </trkpt>
      <trkpt lat="45.53773" lon="4.85886">
        <ele>159.6</ele>
        <time>2023-07-08T14:32:27Z</time>
      </trkpt>
      <trkpt lat="45.53774" lon="4.8588">
        <ele>159.8</ele>
        <time>2023-07-08T14:32:28Z</time>
      </trkpt>
      <trkpt lat="45.53775" lon="4.85874">
        <ele>159.8</ele>
        <time>2023-07-08T14:32:29Z</time>
      </trkpt>
      <trkpt lat="45.53776" lon="4.85868">
        <ele>159.8</ele>
        <time>2023-07-08T14:32:30Z</time>
      </trkpt>
      <trkpt lat="45.53776" lon="4.85862">
        <ele>159.8</ele>
        <time>2023-07-08T14:32:31Z</time>
      </trkpt>
      <trkpt lat="45.53777" lon="4.85856">
        <ele>159.8</ele>
        <time>2023-07-08T14:32:32Z</time>
      </trkpt>
      <trkpt lat="45.53778" lon="4.8585">
        <ele>159.8</ele>
        <time>2023-07-08T14:32:33Z</time>
      </trkpt>
      <trkpt lat="45.5378" lon="4.85833">
        <ele>159.8</ele>
        <time>2023-07-08T14:32:36Z</time>
      </trkpt>
      <trkpt lat="45.53781" lon="4.85827">
        <ele>159.8</ele>
        <time>2023-07-08T14:32:37Z</time>
      </trkpt>
      <trkpt lat="45.53781" lon="4.85814">
        <ele>160</ele>
        <time>2023-07-08T14:32:39Z</time>
      </trkpt>
      <trkpt lat="45.53782" lon="4.85808">
        <ele>160</ele>
        <time>2023-07-08T14:32:40Z</time>
      </trkpt>
      <trkpt lat="45.53787" lon="4.85772">
        <ele>160.4</ele>
        <time>2023-07-08T14:32:45Z</time>
      </trkpt>
      <trkpt lat="45.5379" lon="4.8575">
        <ele>160.4</ele>
        <time>2023-07-08T14:32:48Z</time>
      </trkpt>
      <trkpt lat="45.53792" lon="4.85743">
        <ele>160.4</ele>
        <time>2023-07-08T14:32:49Z</time>
      </trkpt>
      <trkpt lat="45.53793" lon="4.85736">
        <ele>160.4</ele>
        <time>2023-07-08T14:32:50Z</time>
      </trkpt>
      <trkpt lat="45.53794" lon="4.8573">
        <ele>160.4</ele>
        <time>2023-07-08T14:32:51Z</time>
      </trkpt>
      <trkpt lat="45.53795" lon="4.85722">
        <ele>160.4</ele>
        <time>2023-07-08T14:32:52Z</time>
      </trkpt>
      <trkpt lat="45.53799" lon="4.85697">
        <ele>160.6</ele>
        <time>2023-07-08T14:32:56Z</time>
      </trkpt>
      <trkpt lat="45.53805" lon="4.85657">
        <ele>160.8</ele>
        <time>2023-07-08T14:33:05Z</time>
      </trkpt>
      <trkpt lat="45.53806" lon="4.85651">
        <ele>160.8</ele>
        <time>2023-07-08T14:33:06Z</time>
      </trkpt>
      <trkpt lat="45.53805" lon="4.85645">
        <ele>160.8</ele>
        <time>2023-07-08T14:33:07Z</time>
      </trkpt>
      <trkpt lat="45.53805" lon="4.85639">
        <ele>160.8</ele>
        <time>2023-07-08T14:33:08Z</time>
      </trkpt>
      <trkpt lat="45.53806" lon="4.85633">
        <ele>160.8</ele>
        <time>2023-07-08T14:33:09Z</time>
      </trkpt>
      <trkpt lat="45.53807" lon="4.85627">
        <ele>160.8</ele>
        <time>2023-07-08T14:33:10Z</time>
      </trkpt>
      <trkpt lat="45.5381" lon="4.85623">
        <ele>160.8</ele>
        <time>2023-07-08T14:33:11Z</time>
      </trkpt>
      <trkpt lat="45.53813" lon="4.85619">
        <ele>160.8</ele>
        <time>2023-07-08T14:33:12Z</time>
      </trkpt>
      <trkpt lat="45.53819" lon="4.85602">
        <ele>160.8</ele>
        <time>2023-07-08T14:33:15Z</time>
      </trkpt>
      <trkpt lat="45.53832" lon="4.85536">
        <ele>160</ele>
        <time>2023-07-08T14:33:26Z</time>
      </trkpt>
      <trkpt lat="45.53835" lon="4.85531">
        <ele>160</ele>
        <time>2023-07-08T14:33:27Z</time>
      </trkpt>
      <trkpt lat="45.53836" lon="4.85525">
        <ele>160</ele>
        <time>2023-07-08T14:33:28Z</time>
      </trkpt>
      <trkpt lat="45.53839" lon="4.85507">
        <ele>160</ele>
        <time>2023-07-08T14:33:31Z</time>
      </trkpt>
      <trkpt lat="45.53845" lon="4.85468">
        <ele>160</ele>
        <time>2023-07-08T14:33:39Z</time>
      </trkpt>
      <trkpt lat="45.53847" lon="4.85467">
        <ele>160</ele>
        <time>2023-07-08T14:33:40Z</time>
      </trkpt>
      <trkpt lat="45.5385" lon="4.85467">
        <ele>160.2</ele>
        <time>2023-07-08T14:33:41Z</time>
      </trkpt>
      <trkpt lat="45.53895" lon="4.85479">
        <ele>161</ele>
        <time>2023-07-08T14:33:55Z</time>
      </trkpt>
      <trkpt lat="45.53918" lon="4.85487">
        <ele>160</ele>
        <time>2023-07-08T14:34:05Z</time>
      </trkpt>
      <trkpt lat="45.5392" lon="4.85485">
        <ele>160</ele>
        <time>2023-07-08T14:34:06Z</time>
      </trkpt>
      <trkpt lat="45.53922" lon="4.85482">
        <ele>160</ele>
        <time>2023-07-08T14:34:07Z</time>
      </trkpt>
      <trkpt lat="45.53923" lon="4.85477">
        <ele>160</ele>
        <time>2023-07-08T14:34:08Z</time>
      </trkpt>
      <trkpt lat="45.53924" lon="4.85472">
        <ele>160</ele>
        <time>2023-07-08T14:34:09Z</time>
      </trkpt>
      <trkpt lat="45.53925" lon="4.85467">
        <ele>160</ele>
        <time>2023-07-08T14:34:10Z</time>
      </trkpt>
      <trkpt lat="45.5394" lon="4.85395">
        <ele>159.8</ele>
        <time>2023-07-08T14:34:23Z</time>
      </trkpt>
      <trkpt lat="45.53946" lon="4.85359">
        <ele>159.6</ele>
        <time>2023-07-08T14:34:28Z</time>
      </trkpt>
      <trkpt lat="45.53957" lon="4.85257">
        <ele>159.4</ele>
        <time>2023-07-08T14:34:43Z</time>
      </trkpt>
      <trkpt lat="45.53967" lon="4.85171">
        <ele>159.4</ele>
        <time>2023-07-08T14:34:54Z</time>
      </trkpt>
      <trkpt lat="45.53978" lon="4.85076">
        <ele>159.2</ele>
        <time>2023-07-08T14:35:06Z</time>
      </trkpt>
      <trkpt lat="45.53979" lon="4.85068">
        <ele>159.2</ele>
        <time>2023-07-08T14:35:07Z</time>
      </trkpt>
      <trkpt lat="45.5398" lon="4.85061">
        <ele>159.2</ele>
        <time>2023-07-08T14:35:08Z</time>
      </trkpt>
      <trkpt lat="45.53981" lon="4.85046">
        <ele>159.2</ele>
        <time>2023-07-08T14:35:10Z</time>
      </trkpt>
      <trkpt lat="45.53993" lon="4.84942">
        <ele>159.2</ele>
        <time>2023-07-08T14:35:23Z</time>
      </trkpt>
      <trkpt lat="45.54008" lon="4.84815">
        <ele>159</ele>
        <time>2023-07-08T14:35:38Z</time>
      </trkpt>
      <trkpt lat="45.54023" lon="4.84668">
        <ele>159.4</ele>
        <time>2023-07-08T14:35:55Z</time>
      </trkpt>
      <trkpt lat="45.5404" lon="4.84535">
        <ele>159.6</ele>
        <time>2023-07-08T14:36:11Z</time>
      </trkpt>
      <trkpt lat="45.54056" lon="4.84434">
        <ele>159.8</ele>
        <time>2023-07-08T14:36:27Z</time>
      </trkpt>
      <trkpt lat="45.54068" lon="4.84378">
        <ele>160</ele>
        <time>2023-07-08T14:36:36Z</time>
      </trkpt>
      <trkpt lat="45.54071" lon="4.84358">
        <ele>160</ele>
        <time>2023-07-08T14:36:39Z</time>
      </trkpt>
      <trkpt lat="45.54072" lon="4.84352">
        <ele>160</ele>
        <time>2023-07-08T14:36:40Z</time>
      </trkpt>
      <trkpt lat="45.54081" lon="4.84306">
        <ele>160</ele>
        <time>2023-07-08T14:36:47Z</time>
      </trkpt>
      <trkpt lat="45.54096" lon="4.84233">
        <ele>160.2</ele>
        <time>2023-07-08T14:36:58Z</time>
      </trkpt>
      <trkpt lat="45.54097" lon="4.84226">
        <ele>160.2</ele>
        <time>2023-07-08T14:36:59Z</time>
      </trkpt>
      <trkpt lat="45.54099" lon="4.84219">
        <ele>160.2</ele>
        <time>2023-07-08T14:37:00Z</time>
      </trkpt>
      <trkpt lat="45.54111" lon="4.84168">
        <ele>160.2</ele>
        <time>2023-07-08T14:37:07Z</time>
      </trkpt>
      <trkpt lat="45.54116" lon="4.8413">
        <ele>160.2</ele>
        <time>2023-07-08T14:37:12Z</time>
      </trkpt>
      <trkpt lat="45.54137" lon="4.84028">
        <ele>161</ele>
        <time>2023-07-08T14:37:28Z</time>
      </trkpt>
      <trkpt lat="45.5417" lon="4.83899">
        <ele>160.8</ele>
        <time>2023-07-08T14:37:45Z</time>
      </trkpt>
      <trkpt lat="45.54209" lon="4.83769">
        <ele>160.6</ele>
        <time>2023-07-08T14:38:02Z</time>
      </trkpt>
      <trkpt lat="45.54264" lon="4.83622">
        <ele>160.4</ele>
        <time>2023-07-08T14:38:21Z</time>
      </trkpt>
      <trkpt lat="45.54333" lon="4.83461">
        <ele>160.2</ele>
        <time>2023-07-08T14:38:42Z</time>
      </trkpt>
      <trkpt lat="45.54349" lon="4.83427">
        <ele>160.4</ele>
        <time>2023-07-08T14:38:47Z</time>
      </trkpt>
      <trkpt lat="45.54352" lon="4.83422">
        <ele>160.6</ele>
        <time>2023-07-08T14:38:48Z</time>
      </trkpt>
      <trkpt lat="45.54359" lon="4.8341">
        <ele>160.6</ele>
        <time>2023-07-08T14:38:50Z</time>
      </trkpt>
      <trkpt lat="45.54367" lon="4.83393">
        <ele>160.8</ele>
        <time>2023-07-08T14:38:53Z</time>
      </trkpt>
      <trkpt lat="45.5437" lon="4.83387">
        <ele>160.8</ele>
        <time>2023-07-08T14:38:54Z</time>
      </trkpt>
      <trkpt lat="45.54419" lon="4.83297">
        <ele>160.8</ele>
        <time>2023-07-08T14:39:08Z</time>
      </trkpt>
      <trkpt lat="45.5447" lon="4.83216">
        <ele>160.4</ele>
        <time>2023-07-08T14:39:21Z</time>
      </trkpt>
      <trkpt lat="45.54476" lon="4.83204">
        <ele>160.4</ele>
        <time>2023-07-08T14:39:23Z</time>
      </trkpt>
      <trkpt lat="45.5452" lon="4.83136">
        <ele>161.2</ele>
        <time>2023-07-08T14:39:38Z</time>
      </trkpt>
      <trkpt lat="45.54523" lon="4.83131">
        <ele>161.2</ele>
        <time>2023-07-08T14:39:39Z</time>
      </trkpt>
      <trkpt lat="45.54527" lon="4.83126">
        <ele>161.2</ele>
        <time>2023-07-08T14:39:40Z</time>
      </trkpt>
      <trkpt lat="45.5453" lon="4.8312">
        <ele>161.2</ele>
        <time>2023-07-08T14:39:41Z</time>
      </trkpt>
      <trkpt lat="45.54534" lon="4.83115">
        <ele>161.2</ele>
        <time>2023-07-08T14:39:42Z</time>
      </trkpt>
      <trkpt lat="45.54537" lon="4.83109">
        <ele>161.4</ele>
        <time>2023-07-08T14:39:43Z</time>
      </trkpt>
      <trkpt lat="45.54541" lon="4.83104">
        <ele>161.4</ele>
        <time>2023-07-08T14:39:44Z</time>
      </trkpt>
      <trkpt lat="45.54592" lon="4.83029">
        <ele>162</ele>
        <time>2023-07-08T14:39:57Z</time>
      </trkpt>
      <trkpt lat="45.54595" lon="4.83024">
        <ele>162</ele>
        <time>2023-07-08T14:39:58Z</time>
      </trkpt>
      <trkpt lat="45.5461" lon="4.83005">
        <ele>162.2</ele>
        <time>2023-07-08T14:40:02Z</time>
      </trkpt>
      <trkpt lat="45.5466" lon="4.82938">
        <ele>162.6</ele>
        <time>2023-07-08T14:40:16Z</time>
      </trkpt>
      <trkpt lat="45.54668" lon="4.82925">
        <ele>162.6</ele>
        <time>2023-07-08T14:40:18Z</time>
      </trkpt>
      <trkpt lat="45.54671" lon="4.82918">
        <ele>162.6</ele>
        <time>2023-07-08T14:40:19Z</time>
      </trkpt>
      <trkpt lat="45.54673" lon="4.8291">
        <ele>162.6</ele>
        <time>2023-07-08T14:40:20Z</time>
      </trkpt>
      <trkpt lat="45.54675" lon="4.82902">
        <ele>162.6</ele>
        <time>2023-07-08T14:40:21Z</time>
      </trkpt>
      <trkpt lat="45.54676" lon="4.82894">
        <ele>162.6</ele>
        <time>2023-07-08T14:40:22Z</time>
      </trkpt>
      <trkpt lat="45.54677" lon="4.82885">
        <ele>162.4</ele>
        <time>2023-07-08T14:40:23Z</time>
      </trkpt>
      <trkpt lat="45.54681" lon="4.8281">
        <ele>162.4</ele>
        <time>2023-07-08T14:40:32Z</time>
      </trkpt>
      <trkpt lat="45.54687" lon="4.8275">
        <ele>162.4</ele>
        <time>2023-07-08T14:40:41Z</time>
      </trkpt>
      <trkpt lat="45.54688" lon="4.82737">
        <ele>162.6</ele>
        <time>2023-07-08T14:40:43Z</time>
      </trkpt>
      <trkpt lat="45.54689" lon="4.82731">
        <ele>162.6</ele>
        <time>2023-07-08T14:40:44Z</time>
      </trkpt>
      <trkpt lat="45.54691" lon="4.82725">
        <ele>162.8</ele>
        <time>2023-07-08T14:40:45Z</time>
      </trkpt>
      <trkpt lat="45.54693" lon="4.82719">
        <ele>162.8</ele>
        <time>2023-07-08T14:40:46Z</time>
      </trkpt>
      <trkpt lat="45.54697" lon="4.82714">
        <ele>162.8</ele>
        <time>2023-07-08T14:40:47Z</time>
      </trkpt>
      <trkpt lat="45.54701" lon="4.82708">
        <ele>162.8</ele>
        <time>2023-07-08T14:40:48Z</time>
      </trkpt>
      <trkpt lat="45.54704" lon="4.82701">
        <ele>162.8</ele>
        <time>2023-07-08T14:40:49Z</time>
      </trkpt>
      <trkpt lat="45.54707" lon="4.82694">
        <ele>162.8</ele>
        <time>2023-07-08T14:40:50Z</time>
      </trkpt>
      <trkpt lat="45.54718" lon="4.82675">
        <ele>162.8</ele>
        <time>2023-07-08T14:40:53Z</time>
      </trkpt>
      <trkpt lat="45.54723" lon="4.82669">
        <ele>162.8</ele>
        <time>2023-07-08T14:40:54Z</time>
      </trkpt>
      <trkpt lat="45.54728" lon="4.82664">
        <ele>162.8</ele>
        <time>2023-07-08T14:40:55Z</time>
      </trkpt>
      <trkpt lat="45.54805" lon="4.82594">
        <ele>162.8</ele>
        <time>2023-07-08T14:41:11Z</time>
      </trkpt>
      <trkpt lat="45.54883" lon="4.82526">
        <ele>162.8</ele>
        <time>2023-07-08T14:41:27Z</time>
      </trkpt>
      <trkpt lat="45.54912" lon="4.82502">
        <ele>162.8</ele>
        <time>2023-07-08T14:41:33Z</time>
      </trkpt>
      <trkpt lat="45.54986" lon="4.82437">
        <ele>163</ele>
        <time>2023-07-08T14:41:49Z</time>
      </trkpt>
      <trkpt lat="45.55032" lon="4.82397">
        <ele>163</ele>
        <time>2023-07-08T14:41:59Z</time>
      </trkpt>
      <trkpt lat="45.55036" lon="4.82393">
        <ele>163</ele>
        <time>2023-07-08T14:42:00Z</time>
      </trkpt>
      <trkpt lat="45.55088" lon="4.82332">
        <ele>163.2</ele>
        <time>2023-07-08T14:42:11Z</time>
      </trkpt>
      <trkpt lat="45.55152" lon="4.82233">
        <ele>163.2</ele>
        <time>2023-07-08T14:42:27Z</time>
      </trkpt>
      <trkpt lat="45.55189" lon="4.82162">
        <ele>163</ele>
        <time>2023-07-08T14:42:38Z</time>
      </trkpt>
      <trkpt lat="45.55192" lon="4.82157">
        <ele>163</ele>
        <time>2023-07-08T14:42:39Z</time>
      </trkpt>
      <trkpt lat="45.55194" lon="4.82152">
        <ele>163</ele>
        <time>2023-07-08T14:42:40Z</time>
      </trkpt>
      <trkpt lat="45.55194" lon="4.82145">
        <ele>163</ele>
        <time>2023-07-08T14:42:41Z</time>
      </trkpt>
      <trkpt lat="45.55193" lon="4.82139">
        <ele>163</ele>
        <time>2023-07-08T14:42:42Z</time>
      </trkpt>
      <trkpt lat="45.55192" lon="4.82133">
        <ele>163</ele>
        <time>2023-07-08T14:42:43Z</time>
      </trkpt>
      <trkpt lat="45.55193" lon="4.82128">
        <ele>163</ele>
        <time>2023-07-08T14:42:44Z</time>
      </trkpt>
      <trkpt lat="45.55196" lon="4.82124">
        <ele>163.2</ele>
        <time>2023-07-08T14:42:45Z</time>
      </trkpt>
      <trkpt lat="45.55199" lon="4.8212">
        <ele>163.2</ele>
        <time>2023-07-08T14:42:46Z</time>
      </trkpt>
      <trkpt lat="45.55202" lon="4.82115">
        <ele>163.4</ele>
        <time>2023-07-08T14:42:47Z</time>
      </trkpt>
      <trkpt lat="45.55205" lon="4.8211">
        <ele>163.6</ele>
        <time>2023-07-08T14:42:48Z</time>
      </trkpt>
      <trkpt lat="45.55208" lon="4.82105">
        <ele>163.6</ele>
        <time>2023-07-08T14:42:49Z</time>
      </trkpt>
      <trkpt lat="45.55212" lon="4.821">
        <ele>163.6</ele>
        <time>2023-07-08T14:42:50Z</time>
      </trkpt>
      <trkpt lat="45.55248" lon="4.82058">
        <ele>163.8</ele>
        <time>2023-07-08T14:42:59Z</time>
      </trkpt>
      <trkpt lat="45.55257" lon="4.82048">
        <ele>163.8</ele>
        <time>2023-07-08T14:43:01Z</time>
      </trkpt>
      <trkpt lat="45.55296" lon="4.82009">
        <ele>163.6</ele>
        <time>2023-07-08T14:43:11Z</time>
      </trkpt>
      <trkpt lat="45.553" lon="4.82005">
        <ele>163.6</ele>
        <time>2023-07-08T14:43:12Z</time>
      </trkpt>
      <trkpt lat="45.55313" lon="4.81991">
        <ele>163.4</ele>
        <time>2023-07-08T14:43:16Z</time>
      </trkpt>
      <trkpt lat="45.55317" lon="4.81987">
        <ele>163.4</ele>
        <time>2023-07-08T14:43:17Z</time>
      </trkpt>
      <trkpt lat="45.55321" lon="4.81983">
        <ele>163.4</ele>
        <time>2023-07-08T14:43:18Z</time>
      </trkpt>
      <trkpt lat="45.55324" lon="4.81979">
        <ele>163.4</ele>
        <time>2023-07-08T14:43:19Z</time>
      </trkpt>
      <trkpt lat="45.55327" lon="4.81974">
        <ele>163.2</ele>
        <time>2023-07-08T14:43:20Z</time>
      </trkpt>
      <trkpt lat="45.55331" lon="4.8197">
        <ele>163.2</ele>
        <time>2023-07-08T14:43:21Z</time>
      </trkpt>
      <trkpt lat="45.5534" lon="4.81958">
        <ele>163.2</ele>
        <time>2023-07-08T14:43:24Z</time>
      </trkpt>
      <trkpt lat="45.55343" lon="4.81952">
        <ele>163.2</ele>
        <time>2023-07-08T14:43:25Z</time>
      </trkpt>
      <trkpt lat="45.5537" lon="4.81904">
        <ele>163.2</ele>
        <time>2023-07-08T14:43:33Z</time>
      </trkpt>
      <trkpt lat="45.55378" lon="4.81894">
        <ele>163.2</ele>
        <time>2023-07-08T14:43:35Z</time>
      </trkpt>
      <trkpt lat="45.55383" lon="4.81889">
        <ele>163.2</ele>
        <time>2023-07-08T14:43:36Z</time>
      </trkpt>
      <trkpt lat="45.55386" lon="4.81882">
        <ele>163.2</ele>
        <time>2023-07-08T14:43:37Z</time>
      </trkpt>
      <trkpt lat="45.55388" lon="4.81876">
        <ele>163.2</ele>
        <time>2023-07-08T14:43:38Z</time>
      </trkpt>
      <trkpt lat="45.55392" lon="4.8187">
        <ele>163.2</ele>
        <time>2023-07-08T14:43:39Z</time>
      </trkpt>
      <trkpt lat="45.55395" lon="4.81865">
        <ele>163.2</ele>
        <time>2023-07-08T14:43:40Z</time>
      </trkpt>
      <trkpt lat="45.55398" lon="4.81859">
        <ele>163.2</ele>
        <time>2023-07-08T14:43:41Z</time>
      </trkpt>
      <trkpt lat="45.55401" lon="4.81852">
        <ele>163.2</ele>
        <time>2023-07-08T14:43:42Z</time>
      </trkpt>
      <trkpt lat="45.55439" lon="4.81779">
        <ele>163.2</ele>
        <time>2023-07-08T14:43:54Z</time>
      </trkpt>
      <trkpt lat="45.55442" lon="4.81773">
        <ele>163.2</ele>
        <time>2023-07-08T14:43:55Z</time>
      </trkpt>
      <trkpt lat="45.55462" lon="4.81738">
        <ele>163.2</ele>
        <time>2023-07-08T14:44:01Z</time>
      </trkpt>
      <trkpt lat="45.55468" lon="4.81726">
        <ele>163.2</ele>
        <time>2023-07-08T14:44:03Z</time>
      </trkpt>
      <trkpt lat="45.55473" lon="4.81722">
        <ele>163.2</ele>
        <time>2023-07-08T14:44:04Z</time>
      </trkpt>
      <trkpt lat="45.55485" lon="4.81705">
        <ele>163.4</ele>
        <time>2023-07-08T14:44:08Z</time>
      </trkpt>
      <trkpt lat="45.55535" lon="4.81637">
        <ele>163.8</ele>
        <time>2023-07-08T14:44:21Z</time>
      </trkpt>
      <trkpt lat="45.55551" lon="4.8162">
        <ele>163.8</ele>
        <time>2023-07-08T14:44:25Z</time>
      </trkpt>
      <trkpt lat="45.55555" lon="4.81615">
        <ele>163.8</ele>
        <time>2023-07-08T14:44:26Z</time>
      </trkpt>
      <trkpt lat="45.556" lon="4.81577">
        <ele>164</ele>
        <time>2023-07-08T14:44:38Z</time>
      </trkpt>
      <trkpt lat="45.55608" lon="4.8157">
        <ele>164</ele>
        <time>2023-07-08T14:44:40Z</time>
      </trkpt>
      <trkpt lat="45.55613" lon="4.81567">
        <ele>164</ele>
        <time>2023-07-08T14:44:41Z</time>
      </trkpt>
      <trkpt lat="45.55617" lon="4.81563">
        <ele>164</ele>
        <time>2023-07-08T14:44:42Z</time>
      </trkpt>
      <trkpt lat="45.55622" lon="4.81559">
        <ele>164</ele>
        <time>2023-07-08T14:44:43Z</time>
      </trkpt>
      <trkpt lat="45.55627" lon="4.81556">
        <ele>164</ele>
        <time>2023-07-08T14:44:44Z</time>
      </trkpt>
      <trkpt lat="45.55631" lon="4.81553">
        <ele>164</ele>
        <time>2023-07-08T14:44:45Z</time>
      </trkpt>
      <trkpt lat="45.55636" lon="4.8155">
        <ele>164</ele>
        <time>2023-07-08T14:44:46Z</time>
      </trkpt>
      <trkpt lat="45.55666" lon="4.81531">
        <ele>164</ele>
        <time>2023-07-08T14:44:52Z</time>
      </trkpt>
      <trkpt lat="45.55674" lon="4.81523">
        <ele>163.8</ele>
        <time>2023-07-08T14:44:54Z</time>
      </trkpt>
      <trkpt lat="45.55739" lon="4.81486">
        <ele>163.4</ele>
        <time>2023-07-08T14:45:07Z</time>
      </trkpt>
      <trkpt lat="45.55789" lon="4.81449">
        <ele>163.8</ele>
        <time>2023-07-08T14:45:19Z</time>
      </trkpt>
      <trkpt lat="45.55845" lon="4.81413">
        <ele>163.8</ele>
        <time>2023-07-08T14:45:31Z</time>
      </trkpt>
      <trkpt lat="45.5586" lon="4.81405">
        <ele>163.8</ele>
        <time>2023-07-08T14:45:34Z</time>
      </trkpt>
      <trkpt lat="45.5589" lon="4.81384">
        <ele>163.8</ele>
        <time>2023-07-08T14:45:41Z</time>
      </trkpt>
      <trkpt lat="45.55895" lon="4.8138">
        <ele>163.8</ele>
        <time>2023-07-08T14:45:42Z</time>
      </trkpt>
      <trkpt lat="45.55929" lon="4.81355">
        <ele>163.6</ele>
        <time>2023-07-08T14:45:49Z</time>
      </trkpt>
      <trkpt lat="45.55933" lon="4.81352">
        <ele>163.4</ele>
        <time>2023-07-08T14:45:50Z</time>
      </trkpt>
      <trkpt lat="45.55938" lon="4.81349">
        <ele>163.4</ele>
        <time>2023-07-08T14:45:51Z</time>
      </trkpt>
      <trkpt lat="45.55963" lon="4.81335">
        <ele>163.4</ele>
        <time>2023-07-08T14:45:57Z</time>
      </trkpt>
      <trkpt lat="45.55967" lon="4.81332">
        <ele>163.4</ele>
        <time>2023-07-08T14:45:58Z</time>
      </trkpt>
      <trkpt lat="45.55972" lon="4.8133">
        <ele>163.4</ele>
        <time>2023-07-08T14:45:59Z</time>
      </trkpt>
      <trkpt lat="45.55979" lon="4.81326">
        <ele>163.4</ele>
        <time>2023-07-08T14:46:01Z</time>
      </trkpt>
      <trkpt lat="45.55983" lon="4.81322">
        <ele>163.4</ele>
        <time>2023-07-08T14:46:02Z</time>
      </trkpt>
      <trkpt lat="45.56016" lon="4.81298">
        <ele>163.6</ele>
        <time>2023-07-08T14:46:12Z</time>
      </trkpt>
      <trkpt lat="45.56025" lon="4.81293">
        <ele>163.8</ele>
        <time>2023-07-08T14:46:14Z</time>
      </trkpt>
      <trkpt lat="45.56043" lon="4.81283">
        <ele>163.8</ele>
        <time>2023-07-08T14:46:18Z</time>
      </trkpt>
      <trkpt lat="45.56073" lon="4.81265">
        <ele>163.8</ele>
        <time>2023-07-08T14:46:24Z</time>
      </trkpt>
      <trkpt lat="45.56078" lon="4.81261">
        <ele>163.8</ele>
        <time>2023-07-08T14:46:25Z</time>
      </trkpt>
      <trkpt lat="45.56122" lon="4.81222">
        <ele>163.4</ele>
        <time>2023-07-08T14:46:37Z</time>
      </trkpt>
      <trkpt lat="45.56126" lon="4.8122">
        <ele>163.4</ele>
        <time>2023-07-08T14:46:38Z</time>
      </trkpt>
      <trkpt lat="45.5613" lon="4.81216">
        <ele>163.4</ele>
        <time>2023-07-08T14:46:39Z</time>
      </trkpt>
      <trkpt lat="45.56138" lon="4.81208">
        <ele>163.6</ele>
        <time>2023-07-08T14:46:42Z</time>
      </trkpt>
      <trkpt lat="45.56141" lon="4.81209">
        <ele>163.6</ele>
        <time>2023-07-08T14:46:43Z</time>
      </trkpt>
      <trkpt lat="45.56145" lon="4.81208">
        <ele>163.6</ele>
        <time>2023-07-08T14:46:46Z</time>
      </trkpt>
      <trkpt lat="45.56146" lon="4.81205">
        <ele>163.6</ele>
        <time>2023-07-08T14:46:47Z</time>
      </trkpt>
      <trkpt lat="45.56147" lon="4.81201">
        <ele>163.6</ele>
        <time>2023-07-08T14:46:48Z</time>
      </trkpt>
      <trkpt lat="45.56147" lon="4.81197">
        <ele>163.6</ele>
        <time>2023-07-08T14:46:49Z</time>
      </trkpt>
      <trkpt lat="45.56148" lon="4.81193">
        <ele>163.6</ele>
        <time>2023-07-08T14:46:50Z</time>
      </trkpt>
      <trkpt lat="45.5615" lon="4.81189">
        <ele>164</ele>
        <time>2023-07-08T14:46:51Z</time>
      </trkpt>
      <trkpt lat="45.56145" lon="4.81143">
        <ele>164.2</ele>
        <time>2023-07-08T14:47:00Z</time>
      </trkpt>
      <trkpt lat="45.56127" lon="4.81025">
        <ele>164.8</ele>
        <time>2023-07-08T14:47:19Z</time>
      </trkpt>
      <trkpt lat="45.56141" lon="4.80928">
        <ele>165.4</ele>
        <time>2023-07-08T14:47:34Z</time>
      </trkpt>
      <trkpt lat="45.56182" lon="4.80846">
        <ele>166</ele>
        <time>2023-07-08T14:47:49Z</time>
      </trkpt>
      <trkpt lat="45.56234" lon="4.80769">
        <ele>165.8</ele>
        <time>2023-07-08T14:48:04Z</time>
      </trkpt>
      <trkpt lat="45.56253" lon="4.80745">
        <ele>166</ele>
        <time>2023-07-08T14:48:09Z</time>
      </trkpt>
      <trkpt lat="45.56326" lon="4.80642">
        <ele>166.6</ele>
        <time>2023-07-08T14:48:28Z</time>
      </trkpt>
      <trkpt lat="45.56398" lon="4.80535">
        <ele>166.8</ele>
        <time>2023-07-08T14:48:46Z</time>
      </trkpt>
      <trkpt lat="45.56464" lon="4.80437">
        <ele>166.8</ele>
        <time>2023-07-08T14:49:02Z</time>
      </trkpt>
      <trkpt lat="45.56524" lon="4.80353">
        <ele>167.6</ele>
        <time>2023-07-08T14:49:17Z</time>
      </trkpt>
      <trkpt lat="45.56536" lon="4.80336">
        <ele>167.8</ele>
        <time>2023-07-08T14:49:20Z</time>
      </trkpt>
      <trkpt lat="45.56539" lon="4.80331">
        <ele>167.8</ele>
        <time>2023-07-08T14:49:21Z</time>
      </trkpt>
      <trkpt lat="45.56602" lon="4.80244">
        <ele>168.2</ele>
        <time>2023-07-08T14:49:36Z</time>
      </trkpt>
      <trkpt lat="45.56619" lon="4.8022">
        <ele>168.2</ele>
        <time>2023-07-08T14:49:40Z</time>
      </trkpt>
      <trkpt lat="45.56675" lon="4.80144">
        <ele>168.6</ele>
        <time>2023-07-08T14:49:54Z</time>
      </trkpt>
      <trkpt lat="45.56747" lon="4.80056">
        <ele>168.6</ele>
        <time>2023-07-08T14:50:09Z</time>
      </trkpt>
      <trkpt lat="45.56846" lon="4.79938">
        <ele>168.8</ele>
        <time>2023-07-08T14:50:29Z</time>
      </trkpt>
      <trkpt lat="45.56874" lon="4.79904">
        <ele>169</ele>
        <time>2023-07-08T14:50:35Z</time>
      </trkpt>
      <trkpt lat="45.56906" lon="4.79879">
        <ele>169.2</ele>
        <time>2023-07-08T14:50:42Z</time>
      </trkpt>
      <trkpt lat="45.56911" lon="4.79875">
        <ele>169.4</ele>
        <time>2023-07-08T14:50:43Z</time>
      </trkpt>
      <trkpt lat="45.56979" lon="4.79793">
        <ele>169.8</ele>
        <time>2023-07-08T14:50:59Z</time>
      </trkpt>
      <trkpt lat="45.57054" lon="4.79697">
        <ele>169.8</ele>
        <time>2023-07-08T14:51:16Z</time>
      </trkpt>
      <trkpt lat="45.57101" lon="4.79631">
        <ele>169.6</ele>
        <time>2023-07-08T14:51:27Z</time>
      </trkpt>
      <trkpt lat="45.57106" lon="4.79628">
        <ele>169.6</ele>
        <time>2023-07-08T14:51:28Z</time>
      </trkpt>
      <trkpt lat="45.57112" lon="4.79624">
        <ele>169.6</ele>
        <time>2023-07-08T14:51:29Z</time>
      </trkpt>
      <trkpt lat="45.57117" lon="4.7962">
        <ele>169.6</ele>
        <time>2023-07-08T14:51:30Z</time>
      </trkpt>
      <trkpt lat="45.57122" lon="4.79614">
        <ele>169.4</ele>
        <time>2023-07-08T14:51:31Z</time>
      </trkpt>
      <trkpt lat="45.5715" lon="4.79578">
        <ele>169.2</ele>
        <time>2023-07-08T14:51:38Z</time>
      </trkpt>
      <trkpt lat="45.57157" lon="4.79568">
        <ele>169.2</ele>
        <time>2023-07-08T14:51:40Z</time>
      </trkpt>
      <trkpt lat="45.57218" lon="4.79511">
        <ele>169.2</ele>
        <time>2023-07-08T14:51:55Z</time>
      </trkpt>
      <trkpt lat="45.57236" lon="4.79496">
        <ele>169.8</ele>
        <time>2023-07-08T14:52:00Z</time>
      </trkpt>
      <trkpt lat="45.57239" lon="4.79492">
        <ele>170</ele>
        <time>2023-07-08T14:52:01Z</time>
      </trkpt>
      <trkpt lat="45.57248" lon="4.79477">
        <ele>170.6</ele>
        <time>2023-07-08T14:52:04Z</time>
      </trkpt>
      <trkpt lat="45.5725" lon="4.79471">
        <ele>170.8</ele>
        <time>2023-07-08T14:52:05Z</time>
      </trkpt>
      <trkpt lat="45.57251" lon="4.79464">
        <ele>170.8</ele>
        <time>2023-07-08T14:52:06Z</time>
      </trkpt>
      <trkpt lat="45.57252" lon="4.79458">
        <ele>171</ele>
        <time>2023-07-08T14:52:07Z</time>
      </trkpt>
      <trkpt lat="45.57253" lon="4.79452">
        <ele>171.2</ele>
        <time>2023-07-08T14:52:08Z</time>
      </trkpt>
      <trkpt lat="45.57253" lon="4.79446">
        <ele>171.4</ele>
        <time>2023-07-08T14:52:09Z</time>
      </trkpt>
      <trkpt lat="45.57252" lon="4.7944">
        <ele>171.6</ele>
        <time>2023-07-08T14:52:10Z</time>
      </trkpt>
      <trkpt lat="45.57251" lon="4.79435">
        <ele>171.6</ele>
        <time>2023-07-08T14:52:11Z</time>
      </trkpt>
      <trkpt lat="45.5725" lon="4.79423">
        <ele>171.6</ele>
        <time>2023-07-08T14:52:13Z</time>
      </trkpt>
      <trkpt lat="45.5725" lon="4.79406">
        <ele>171.8</ele>
        <time>2023-07-08T14:52:16Z</time>
      </trkpt>
      <trkpt lat="45.57252" lon="4.79401">
        <ele>172</ele>
        <time>2023-07-08T14:52:17Z</time>
      </trkpt>
      <trkpt lat="45.57255" lon="4.79396">
        <ele>172</ele>
        <time>2023-07-08T14:52:18Z</time>
      </trkpt>
      <trkpt lat="45.57316" lon="4.79323">
        <ele>170.8</ele>
        <time>2023-07-08T14:52:32Z</time>
      </trkpt>
      <trkpt lat="45.57397" lon="4.79224">
        <ele>167.8</ele>
        <time>2023-07-08T14:52:48Z</time>
      </trkpt>
      <trkpt lat="45.57499" lon="4.79101">
        <ele>166.6</ele>
        <time>2023-07-08T14:53:09Z</time>
      </trkpt>
      <trkpt lat="45.57564" lon="4.79029">
        <ele>166</ele>
        <time>2023-07-08T14:53:24Z</time>
      </trkpt>
      <trkpt lat="45.57633" lon="4.78935">
        <ele>165.6</ele>
        <time>2023-07-08T14:53:39Z</time>
      </trkpt>
      <trkpt lat="45.57715" lon="4.78819">
        <ele>165.2</ele>
        <time>2023-07-08T14:53:58Z</time>
      </trkpt>
      <trkpt lat="45.57784" lon="4.78699">
        <ele>165.4</ele>
        <time>2023-07-08T14:54:17Z</time>
      </trkpt>
      <trkpt lat="45.5783" lon="4.78577">
        <ele>165.8</ele>
        <time>2023-07-08T14:54:33Z</time>
      </trkpt>
      <trkpt lat="45.57869" lon="4.78446">
        <ele>166.2</ele>
        <time>2023-07-08T14:54:49Z</time>
      </trkpt>
      <trkpt lat="45.57903" lon="4.78341">
        <ele>165.8</ele>
        <time>2023-07-08T14:55:02Z</time>
      </trkpt>
      <trkpt lat="45.57962" lon="4.78166">
        <ele>165.4</ele>
        <time>2023-07-08T14:55:23Z</time>
      </trkpt>
      <trkpt lat="45.57998" lon="4.78054">
        <ele>165.6</ele>
        <time>2023-07-08T14:55:39Z</time>
      </trkpt>
      <trkpt lat="45.5803" lon="4.77967">
        <ele>165.6</ele>
        <time>2023-07-08T14:55:53Z</time>
      </trkpt>
      <trkpt lat="45.58067" lon="4.77909">
        <ele>165.8</ele>
        <time>2023-07-08T14:56:05Z</time>
      </trkpt>
      <trkpt lat="45.58082" lon="4.7789">
        <ele>167</ele>
        <time>2023-07-08T14:56:17Z</time>
      </trkpt>
      <trkpt lat="45.58086" lon="4.77877">
        <ele>168</ele>
        <time>2023-07-08T14:56:31Z</time>
      </trkpt>
      <trkpt lat="45.58087" lon="4.77876">
        <ele>168</ele>
        <time>2023-07-08T14:56:32Z</time>
      </trkpt>
      <trkpt lat="45.58088" lon="4.77875">
        <ele>168</ele>
        <time>2023-07-08T14:56:33Z</time>
      </trkpt>
      <trkpt lat="45.58091" lon="4.77873">
        <ele>168</ele>
        <time>2023-07-08T14:56:34Z</time>
      </trkpt>
      <trkpt lat="45.58124" lon="4.77844">
        <ele>167.4</ele>
        <time>2023-07-08T14:56:44Z</time>
      </trkpt>
      <trkpt lat="45.58128" lon="4.77841">
        <ele>167.2</ele>
        <time>2023-07-08T14:56:45Z</time>
      </trkpt>
      <trkpt lat="45.58149" lon="4.77827">
        <ele>166.6</ele>
        <time>2023-07-08T14:56:50Z</time>
      </trkpt>
      <trkpt lat="45.58154" lon="4.77824">
        <ele>166.6</ele>
        <time>2023-07-08T14:56:51Z</time>
      </trkpt>
      <trkpt lat="45.58158" lon="4.77821">
        <ele>166.4</ele>
        <time>2023-07-08T14:56:52Z</time>
      </trkpt>
      <trkpt lat="45.58163" lon="4.77817">
        <ele>166.2</ele>
        <time>2023-07-08T14:56:53Z</time>
      </trkpt>
      <trkpt lat="45.58167" lon="4.77813">
        <ele>166.2</ele>
        <time>2023-07-08T14:56:54Z</time>
      </trkpt>
      <trkpt lat="45.58171" lon="4.77809">
        <ele>166</ele>
        <time>2023-07-08T14:56:55Z</time>
      </trkpt>
      <trkpt lat="45.58176" lon="4.77806">
        <ele>166</ele>
        <time>2023-07-08T14:56:56Z</time>
      </trkpt>
      <trkpt lat="45.5818" lon="4.77802">
        <ele>165.8</ele>
        <time>2023-07-08T14:56:57Z</time>
      </trkpt>
      <trkpt lat="45.58184" lon="4.77799">
        <ele>165.8</ele>
        <time>2023-07-08T14:56:58Z</time>
      </trkpt>
      <trkpt lat="45.58188" lon="4.77796">
        <ele>165.6</ele>
        <time>2023-07-08T14:56:59Z</time>
      </trkpt>
      <trkpt lat="45.58222" lon="4.77765">
        <ele>164.8</ele>
        <time>2023-07-08T14:57:07Z</time>
      </trkpt>
      <trkpt lat="45.58227" lon="4.77762">
        <ele>164.8</ele>
        <time>2023-07-08T14:57:08Z</time>
      </trkpt>
      <trkpt lat="45.58231" lon="4.77759">
        <ele>164.8</ele>
        <time>2023-07-08T14:57:09Z</time>
      </trkpt>
      <trkpt lat="45.5824" lon="4.77751">
        <ele>164.8</ele>
        <time>2023-07-08T14:57:11Z</time>
      </trkpt>
      <trkpt lat="45.58294" lon="4.77712">
        <ele>165</ele>
        <time>2023-07-08T14:57:25Z</time>
      </trkpt>
      <trkpt lat="45.583" lon="4.77705">
        <ele>165.2</ele>
        <time>2023-07-08T14:57:27Z</time>
      </trkpt>
      <trkpt lat="45.58303" lon="4.777">
        <ele>165.2</ele>
        <time>2023-07-08T14:57:28Z</time>
      </trkpt>
      <trkpt lat="45.58305" lon="4.77695">
        <ele>165.4</ele>
        <time>2023-07-08T14:57:29Z</time>
      </trkpt>
      <trkpt lat="45.58307" lon="4.77689">
        <ele>165.4</ele>
        <time>2023-07-08T14:57:30Z</time>
      </trkpt>
      <trkpt lat="45.58309" lon="4.77683">
        <ele>165.4</ele>
        <time>2023-07-08T14:57:31Z</time>
      </trkpt>
      <trkpt lat="45.58313" lon="4.77671">
        <ele>165.4</ele>
        <time>2023-07-08T14:57:33Z</time>
      </trkpt>
      <trkpt lat="45.58337" lon="4.77614">
        <ele>165.4</ele>
        <time>2023-07-08T14:57:42Z</time>
      </trkpt>
      <trkpt lat="45.5834" lon="4.77608">
        <ele>165.4</ele>
        <time>2023-07-08T14:57:43Z</time>
      </trkpt>
      <trkpt lat="45.58371" lon="4.77543">
        <ele>165.2</ele>
        <time>2023-07-08T14:57:56Z</time>
      </trkpt>
      <trkpt lat="45.58373" lon="4.77537">
        <ele>165.2</ele>
        <time>2023-07-08T14:57:57Z</time>
      </trkpt>
      <trkpt lat="45.584" lon="4.7748">
        <ele>165.2</ele>
        <time>2023-07-08T14:58:06Z</time>
      </trkpt>
      <trkpt lat="45.58403" lon="4.77473">
        <ele>165.2</ele>
        <time>2023-07-08T14:58:07Z</time>
      </trkpt>
      <trkpt lat="45.58406" lon="4.77467">
        <ele>165</ele>
        <time>2023-07-08T14:58:08Z</time>
      </trkpt>
      <trkpt lat="45.58446" lon="4.77385">
        <ele>164.8</ele>
        <time>2023-07-08T14:58:22Z</time>
      </trkpt>
      <trkpt lat="45.58448" lon="4.7738">
        <ele>164.8</ele>
        <time>2023-07-08T14:58:23Z</time>
      </trkpt>
      <trkpt lat="45.58451" lon="4.77376">
        <ele>164.8</ele>
        <time>2023-07-08T14:58:24Z</time>
      </trkpt>
      <trkpt lat="45.58453" lon="4.77372">
        <ele>164.8</ele>
        <time>2023-07-08T14:58:25Z</time>
      </trkpt>
      <trkpt lat="45.58455" lon="4.77367">
        <ele>164.8</ele>
        <time>2023-07-08T14:58:26Z</time>
      </trkpt>
      <trkpt lat="45.58458" lon="4.77363">
        <ele>164.8</ele>
        <time>2023-07-08T14:58:27Z</time>
      </trkpt>
      <trkpt lat="45.58464" lon="4.77355">
        <ele>165</ele>
        <time>2023-07-08T14:58:29Z</time>
      </trkpt>
      <trkpt lat="45.5847" lon="4.77347">
        <ele>165</ele>
        <time>2023-07-08T14:58:31Z</time>
      </trkpt>
      <trkpt lat="45.58496" lon="4.77319">
        <ele>165</ele>
        <time>2023-07-08T14:58:38Z</time>
      </trkpt>
      <trkpt lat="45.58546" lon="4.77242">
        <ele>165</ele>
        <time>2023-07-08T14:58:52Z</time>
      </trkpt>
      <trkpt lat="45.58588" lon="4.77173">
        <ele>165</ele>
        <time>2023-07-08T14:59:06Z</time>
      </trkpt>
      <trkpt lat="45.58592" lon="4.77163">
        <ele>165</ele>
        <time>2023-07-08T14:59:08Z</time>
      </trkpt>
      <trkpt lat="45.58595" lon="4.77159">
        <ele>165</ele>
        <time>2023-07-08T14:59:09Z</time>
      </trkpt>
      <trkpt lat="45.58598" lon="4.77155">
        <ele>165</ele>
        <time>2023-07-08T14:59:10Z</time>
      </trkpt>
      <trkpt lat="45.58602" lon="4.77151">
        <ele>165</ele>
        <time>2023-07-08T14:59:11Z</time>
      </trkpt>
      <trkpt lat="45.58605" lon="4.77148">
        <ele>165</ele>
        <time>2023-07-08T14:59:12Z</time>
      </trkpt>
      <trkpt lat="45.58609" lon="4.77145">
        <ele>165</ele>
        <time>2023-07-08T14:59:13Z</time>
      </trkpt>
      <trkpt lat="45.58612" lon="4.77143">
        <ele>165</ele>
        <time>2023-07-08T14:59:14Z</time>
      </trkpt>
      <trkpt lat="45.58616" lon="4.77142">
        <ele>165</ele>
        <time>2023-07-08T14:59:15Z</time>
      </trkpt>
      <trkpt lat="45.5862" lon="4.77141">
        <ele>165</ele>
        <time>2023-07-08T14:59:16Z</time>
      </trkpt>
      <trkpt lat="45.58629" lon="4.77138">
        <ele>165.2</ele>
        <time>2023-07-08T14:59:18Z</time>
      </trkpt>
      <trkpt lat="45.58632" lon="4.77135">
        <ele>165.2</ele>
        <time>2023-07-08T14:59:19Z</time>
      </trkpt>
      <trkpt lat="45.58634" lon="4.7713">
        <ele>165.2</ele>
        <time>2023-07-08T14:59:20Z</time>
      </trkpt>
      <trkpt lat="45.58634" lon="4.77124">
        <ele>165.2</ele>
        <time>2023-07-08T14:59:21Z</time>
      </trkpt>
      <trkpt lat="45.58632" lon="4.77118">
        <ele>165.2</ele>
        <time>2023-07-08T14:59:22Z</time>
      </trkpt>
      <trkpt lat="45.5863" lon="4.77112">
        <ele>165.4</ele>
        <time>2023-07-08T14:59:23Z</time>
      </trkpt>
      <trkpt lat="45.58608" lon="4.77015">
        <ele>165.8</ele>
        <time>2023-07-08T14:59:35Z</time>
      </trkpt>
      <trkpt lat="45.58597" lon="4.76949">
        <ele>166</ele>
        <time>2023-07-08T14:59:43Z</time>
      </trkpt>
      <trkpt lat="45.58595" lon="4.76941">
        <ele>166</ele>
        <time>2023-07-08T14:59:44Z</time>
      </trkpt>
      <trkpt lat="45.58556" lon="4.76868">
        <ele>165</ele>
        <time>2023-07-08T14:59:55Z</time>
      </trkpt>
      <trkpt lat="45.58554" lon="4.76861">
        <ele>164.8</ele>
        <time>2023-07-08T14:59:56Z</time>
      </trkpt>
      <trkpt lat="45.58552" lon="4.76853">
        <ele>164.8</ele>
        <time>2023-07-08T14:59:57Z</time>
      </trkpt>
      <trkpt lat="45.5855" lon="4.76845">
        <ele>164.6</ele>
        <time>2023-07-08T14:59:58Z</time>
      </trkpt>
      <trkpt lat="45.58549" lon="4.76837">
        <ele>164.6</ele>
        <time>2023-07-08T14:59:59Z</time>
      </trkpt>
      <trkpt lat="45.58543" lon="4.76795">
        <ele>164.6</ele>
        <time>2023-07-08T15:00:04Z</time>
      </trkpt>
      <trkpt lat="45.58541" lon="4.76786">
        <ele>164.6</ele>
        <time>2023-07-08T15:00:05Z</time>
      </trkpt>
      <trkpt lat="45.58538" lon="4.76779">
        <ele>164.8</ele>
        <time>2023-07-08T15:00:06Z</time>
      </trkpt>
      <trkpt lat="45.58535" lon="4.76771">
        <ele>164.8</ele>
        <time>2023-07-08T15:00:07Z</time>
      </trkpt>
      <trkpt lat="45.58532" lon="4.76763">
        <ele>165</ele>
        <time>2023-07-08T15:00:08Z</time>
      </trkpt>
      <trkpt lat="45.58529" lon="4.76755">
        <ele>165.2</ele>
        <time>2023-07-08T15:00:09Z</time>
      </trkpt>
      <trkpt lat="45.58528" lon="4.76747">
        <ele>165.2</ele>
        <time>2023-07-08T15:00:10Z</time>
      </trkpt>
      <trkpt lat="45.58528" lon="4.7674">
        <ele>165.2</ele>
        <time>2023-07-08T15:00:11Z</time>
      </trkpt>
      <trkpt lat="45.58528" lon="4.76733">
        <ele>165.4</ele>
        <time>2023-07-08T15:00:12Z</time>
      </trkpt>
      <trkpt lat="45.58527" lon="4.76726">
        <ele>165.4</ele>
        <time>2023-07-08T15:00:13Z</time>
      </trkpt>
      <trkpt lat="45.58525" lon="4.7672">
        <ele>165.6</ele>
        <time>2023-07-08T15:00:14Z</time>
      </trkpt>
      <trkpt lat="45.58523" lon="4.76715">
        <ele>165.8</ele>
        <time>2023-07-08T15:00:15Z</time>
      </trkpt>
      <trkpt lat="45.58519" lon="4.767">
        <ele>167</ele>
        <time>2023-07-08T15:00:23Z</time>
      </trkpt>
      <trkpt lat="45.58519" lon="4.76709">
        <ele>167.8</ele>
        <time>2023-07-08T15:03:20Z</time>
      </trkpt>
      <trkpt lat="45.5852" lon="4.76712">
        <ele>167.8</ele>
        <time>2023-07-08T15:03:21Z</time>
      </trkpt>
      <trkpt lat="45.58522" lon="4.76715">
        <ele>167.8</ele>
        <time>2023-07-08T15:03:22Z</time>
      </trkpt>
      <trkpt lat="45.5853" lon="4.76741">
        <ele>167.8</ele>
        <time>2023-07-08T15:03:29Z</time>
      </trkpt>
      <trkpt lat="45.58529" lon="4.76745">
        <ele>167.8</ele>
        <time>2023-07-08T15:03:30Z</time>
      </trkpt>
      <trkpt lat="45.58526" lon="4.76748">
        <ele>167.6</ele>
        <time>2023-07-08T15:03:37Z</time>
      </trkpt>
      <trkpt lat="45.58524" lon="4.76763">
        <ele>167.4</ele>
        <time>2023-07-08T15:03:43Z</time>
      </trkpt>
      <trkpt lat="45.58527" lon="4.76769">
        <ele>167.4</ele>
        <time>2023-07-08T15:03:44Z</time>
      </trkpt>
      <trkpt lat="45.58531" lon="4.76776">
        <ele>167.4</ele>
        <time>2023-07-08T15:03:45Z</time>
      </trkpt>
      <trkpt lat="45.58538" lon="4.76794">
        <ele>167.4</ele>
        <time>2023-07-08T15:03:47Z</time>
      </trkpt>
      <trkpt lat="45.5854" lon="4.76805">
        <ele>167.4</ele>
        <time>2023-07-08T15:03:48Z</time>
      </trkpt>
      <trkpt lat="45.58559" lon="4.76889">
        <ele>167.8</ele>
        <time>2023-07-08T15:03:56Z</time>
      </trkpt>
      <trkpt lat="45.5856" lon="4.76897">
        <ele>167.8</ele>
        <time>2023-07-08T15:03:57Z</time>
      </trkpt>
      <trkpt lat="45.58561" lon="4.76903">
        <ele>167.8</ele>
        <time>2023-07-08T15:03:58Z</time>
      </trkpt>
      <trkpt lat="45.58564" lon="4.76909">
        <ele>167.8</ele>
        <time>2023-07-08T15:03:59Z</time>
      </trkpt>
      <trkpt lat="45.58568" lon="4.76913">
        <ele>167.8</ele>
        <time>2023-07-08T15:04:00Z</time>
      </trkpt>
      <trkpt lat="45.58572" lon="4.76915">
        <ele>167.8</ele>
        <time>2023-07-08T15:04:01Z</time>
      </trkpt>
      <trkpt lat="45.58577" lon="4.76919">
        <ele>167.6</ele>
        <time>2023-07-08T15:04:02Z</time>
      </trkpt>
      <trkpt lat="45.58582" lon="4.76925">
        <ele>167.4</ele>
        <time>2023-07-08T15:04:03Z</time>
      </trkpt>
      <trkpt lat="45.58586" lon="4.76932">
        <ele>167.2</ele>
        <time>2023-07-08T15:04:04Z</time>
      </trkpt>
      <trkpt lat="45.5859" lon="4.7694">
        <ele>167.2</ele>
        <time>2023-07-08T15:04:05Z</time>
      </trkpt>
      <trkpt lat="45.58594" lon="4.7695">
        <ele>167.2</ele>
        <time>2023-07-08T15:04:06Z</time>
      </trkpt>
      <trkpt lat="45.58597" lon="4.7696">
        <ele>167.2</ele>
        <time>2023-07-08T15:04:07Z</time>
      </trkpt>
      <trkpt lat="45.58599" lon="4.76971">
        <ele>167.2</ele>
        <time>2023-07-08T15:04:08Z</time>
      </trkpt>
      <trkpt lat="45.5862" lon="4.77102">
        <ele>168.2</ele>
        <time>2023-07-08T15:04:20Z</time>
      </trkpt>
      <trkpt lat="45.58631" lon="4.77136">
        <ele>168.2</ele>
        <time>2023-07-08T15:04:26Z</time>
      </trkpt>
      <trkpt lat="45.58634" lon="4.77141">
        <ele>168</ele>
        <time>2023-07-08T15:04:27Z</time>
      </trkpt>
      <trkpt lat="45.58638" lon="4.77145">
        <ele>167.8</ele>
        <time>2023-07-08T15:04:28Z</time>
      </trkpt>
      <trkpt lat="45.58641" lon="4.77148">
        <ele>167.8</ele>
        <time>2023-07-08T15:04:29Z</time>
      </trkpt>
      <trkpt lat="45.58645" lon="4.77153">
        <ele>167.6</ele>
        <time>2023-07-08T15:04:30Z</time>
      </trkpt>
      <trkpt lat="45.58647" lon="4.77159">
        <ele>167.6</ele>
        <time>2023-07-08T15:04:31Z</time>
      </trkpt>
      <trkpt lat="45.5865" lon="4.77165">
        <ele>167.6</ele>
        <time>2023-07-08T15:04:32Z</time>
      </trkpt>
      <trkpt lat="45.58653" lon="4.77171">
        <ele>167.6</ele>
        <time>2023-07-08T15:04:33Z</time>
      </trkpt>
      <trkpt lat="45.58658" lon="4.77175">
        <ele>167.6</ele>
        <time>2023-07-08T15:04:34Z</time>
      </trkpt>
      <trkpt lat="45.58663" lon="4.77174">
        <ele>167.6</ele>
        <time>2023-07-08T15:04:35Z</time>
      </trkpt>
      <trkpt lat="45.58668" lon="4.77169">
        <ele>167.6</ele>
        <time>2023-07-08T15:04:36Z</time>
      </trkpt>
      <trkpt lat="45.58671" lon="4.77161">
        <ele>167.6</ele>
        <time>2023-07-08T15:04:37Z</time>
      </trkpt>
      <trkpt lat="45.58675" lon="4.77154">
        <ele>167.6</ele>
        <time>2023-07-08T15:04:38Z</time>
      </trkpt>
      <trkpt lat="45.58681" lon="4.77147">
        <ele>167.8</ele>
        <time>2023-07-08T15:04:39Z</time>
      </trkpt>
      <trkpt lat="45.58688" lon="4.77142">
        <ele>167.8</ele>
        <time>2023-07-08T15:04:40Z</time>
      </trkpt>
      <trkpt lat="45.58695" lon="4.77137">
        <ele>168</ele>
        <time>2023-07-08T15:04:41Z</time>
      </trkpt>
      <trkpt lat="45.58703" lon="4.77133">
        <ele>168</ele>
        <time>2023-07-08T15:04:42Z</time>
      </trkpt>
    </trkseg>
  </trk>
</gpx>